[[{"header":{"parameterUnit":"m.s-1","parameterCategory":1,"la1":30.6,"la2":29.2853,"lo1":-89.7004,"lo2":-87.6739,"dy":0.0162,"dx":0.0183,"nx":112,"ny":82,"refTime":"2023-06-04T12:00:00:Z","depth":0,"parameterNumber":2,"parameterNumberName":"U-component_of_WINDS"},"data":[0.0,0.0,0.0,0.0,0.0,0.0,0.0,0.0,0.0,0.0,0.0,0.0,0.0,0.0,0.0,0.0,0.0,0.0,0.0,0.0,0.0,0.0,0.0,0.0,0.0,0.0,0.0,0.0,0.0,0.0,0.0,0.0,0.0,0.0,0.0,0.0,0.0,0.0,0.0,0.0,0.0,0.0,0.0,0.0,0.0,0.0,0.0,0.0,0.0,0.0,0.0,0.0,0.0,0.0,0.0,0.0,0.0,0.0,0.0,0.0,0.0,0.0,0.0,0.0,0.0,0.0,0.0,0.0,0.0,0.0,0.0,0.0,0.0,0.0,0.0,0.0,0.0,0.0,0.0,0.0,0.0,0.0,0.0,0.0,0.0,0.0,0.0,0.0,0.0,0.0,-4.0053,-4.0435,-4.1983,-4.3632,-4.525,-4.4081,-4.2778,-4.1613,0.0,0.0,0.0,0.0,0.0,0.0,0.0,0.0,0.0,0.0,0.0,0.0,0.0,0.0,0.0,0.0,0.0,0.0,0.0,0.0,0.0,0.0,0.0,0.0,0.0,0.0,0.0,0.0,0.0,0.0,0.0,0.0,0.0,0.0,0.0,0.0,0.0,0.0,0.0,0.0,0.0,0.0,0.0,0.0,0.0,0.0,0.0,0.0,0.0,0.0,0.0,0.0,0.0,0.0,0.0,0.0,0.0,0.0,0.0,0.0,0.0,0.0,0.0,0.0,0.0,0.0,0.0,0.0,0.0,0.0,0.0,0.0,0.0,0.0,0.0,0.0,0.0,0.0,0.0,0.0,0.0,0.0,0.0,0.0,0.0,0.0,0.0,0.0,0.0,0.0,0.0,0.0,0.0,0.0,0.0,0.0,0.0,0.0,0.0,0.0,0.0,0.0,0.0,0.0,-3.8916,-4.1094,-4.1982,-4.2963,-4.4294,-4.3923,-4.3111,-4.1905,0.0,0.0,0.0,0.0,0.0,0.0,0.0,0.0,0.0,0.0,0.0,0.0,0.0,0.0,0.0,0.0,0.0,0.0,0.0,0.0,0.0,0.0,0.0,0.0,0.0,0.0,0.0,0.0,0.0,0.0,0.0,0.0,0.0,0.0,0.0,0.0,0.0,0.0,0.0,0.0,0.0,0.0,0.0,0.0,0.0,0.0,0.0,0.0,0.0,0.0,0.0,0.0,0.0,0.0,0.0,0.0,0.0,0.0,0.0,0.0,0.0,0.0,0.0,0.0,0.0,0.0,0.0,0.0,0.0,0.0,0.0,0.0,0.0,0.0,0.0,0.0,0.0,0.0,0.0,0.0,0.0,0.0,0.0,0.0,0.0,0.0,0.0,0.0,0.0,0.0,0.0,0.0,0.0,0.0,0.0,0.0,0.0,0.0,0.0,0.0,0.0,0.0,0.0,-3.7922,-3.9202,-4.1285,-4.2395,-4.3335,-4.4129,-4.3896,-4.3195,-4.1977,-3.9746,0.0,0.0,0.0,0.0,0.0,0.0,0.0,0.0,0.0,0.0,0.0,0.0,0.0,0.0,0.0,0.0,0.0,0.0,0.0,0.0,0.0,0.0,0.0,0.0,0.0,0.0,0.0,0.0,0.0,0.0,0.0,0.0,0.0,0.0,0.0,0.0,0.0,0.0,0.0,0.0,0.0,0.0,0.0,0.0,0.0,0.0,0.0,0.0,0.0,0.0,0.0,0.0,0.0,0.0,0.0,0.0,0.0,0.0,0.0,0.0,0.0,0.0,0.0,0.0,0.0,0.0,0.0,0.0,0.0,0.0,0.0,0.0,0.0,0.0,0.0,0.0,0.0,0.0,0.0,0.0,0.0,0.0,0.0,0.0,0.0,0.0,0.0,0.0,0.0,0.0,0.0,0.0,0.0,0.0,0.0,0.0,0.0,0.0,0.0,0.0,0.0,0.0,-3.9049,-3.9871,-4.1342,-4.2658,-4.3541,-4.3882,-4.3661,-4.2965,-4.1704,-3.9896,0.0,0.0,0.0,0.0,0.0,0.0,0.0,0.0,0.0,0.0,0.0,0.0,0.0,0.0,0.0,0.0,0.0,0.0,0.0,0.0,0.0,0.0,0.0,0.0,0.0,0.0,0.0,0.0,0.0,0.0,0.0,0.0,0.0,0.0,0.0,0.0,0.0,0.0,0.0,0.0,0.0,0.0,0.0,0.0,0.0,0.0,0.0,0.0,0.0,0.0,0.0,0.0,0.0,0.0,0.0,0.0,0.0,0.0,0.0,0.0,0.0,0.0,0.0,0.0,0.0,0.0,0.0,0.0,0.0,0.0,0.0,0.0,0.0,0.0,0.0,0.0,0.0,0.0,0.0,0.0,0.0,0.0,0.0,0.0,0.0,0.0,0.0,0.0,0.0,0.0,0.0,0.0,0.0,0.0,0.0,0.0,0.0,0.0,0.0,0.0,0.0,0.0,-3.9221,-4.054,-4.1399,-4.2306,-4.2924,-4.3076,-4.302,-4.2328,-4.0884,-3.9875,0.0,0.0,0.0,0.0,0.0,0.0,0.0,0.0,0.0,0.0,0.0,0.0,0.0,0.0,0.0,0.0,0.0,0.0,0.0,0.0,0.0,0.0,0.0,0.0,0.0,0.0,0.0,0.0,0.0,0.0,0.0,0.0,0.0,0.0,0.0,0.0,0.0,0.0,0.0,0.0,0.0,0.0,0.0,0.0,0.0,0.0,0.0,0.0,0.0,0.0,0.0,0.0,0.0,0.0,0.0,0.0,0.0,0.0,0.0,0.0,0.0,0.0,0.0,0.0,0.0,0.0,0.0,0.0,0.0,0.0,0.0,0.0,0.0,0.0,0.0,0.0,0.0,0.0,0.0,0.0,0.0,0.0,0.0,0.0,0.0,0.0,0.0,0.0,0.0,0.0,0.0,0.0,0.0,0.0,0.0,0.0,0.0,0.0,0.0,0.0,0.0,0.0,-3.9661,-4.1151,-4.1457,-4.2657,-4.3327,-4.3147,-4.337,-4.2749,-4.0946,0.0,0.0,0.0,0.0,0.0,0.0,0.0,0.0,0.0,0.0,0.0,0.0,0.0,0.0,0.0,0.0,0.0,0.0,0.0,0.0,0.0,0.0,0.0,0.0,0.0,0.0,0.0,0.0,0.0,0.0,0.0,0.0,0.0,0.0,0.0,0.0,0.0,0.0,0.0,0.0,0.0,0.0,0.0,0.0,0.0,0.0,0.0,0.0,0.0,0.0,0.0,0.0,0.0,0.0,0.0,0.0,0.0,0.0,0.0,0.0,0.0,0.0,0.0,0.0,0.0,0.0,0.0,0.0,0.0,0.0,0.0,0.0,0.0,0.0,0.0,0.0,0.0,0.0,0.0,0.0,0.0,0.0,0.0,0.0,0.0,0.0,0.0,0.0,0.0,0.0,0.0,0.0,0.0,0.0,0.0,0.0,0.0,0.0,0.0,0.0,0.0,0.0,-3.7597,-3.9451,-4.0903,-4.1437,-4.2397,-4.3058,-4.3194,-4.2945,-4.2109,-4.0608,0.0,0.0,0.0,0.0,0.0,0.0,0.0,0.0,0.0,0.0,0.0,0.0,0.0,0.0,0.0,0.0,0.0,0.0,0.0,0.0,0.0,0.0,0.0,0.0,0.0,0.0,0.0,0.0,0.0,0.0,0.0,0.0,0.0,0.0,0.0,0.0,0.0,0.0,0.0,0.0,0.0,0.0,0.0,0.0,0.0,0.0,0.0,0.0,0.0,0.0,0.0,0.0,0.0,0.0,0.0,0.0,0.0,0.0,0.0,0.0,0.0,0.0,0.0,0.0,0.0,0.0,0.0,0.0,0.0,0.0,0.0,0.0,0.0,0.0,0.0,0.0,0.0,0.0,0.0,0.0,0.0,0.0,0.0,0.0,0.0,0.0,0.0,0.0,0.0,0.0,0.0,0.0,0.0,0.0,0.0,0.0,0.0,0.0,0.0,0.0,0.0,0.0,-3.7597,-3.8476,-3.9642,-4.1304,-4.1368,-4.1813,-4.3062,-4.1409,-4.0126,0.0,0.0,0.0,0.0,0.0,0.0,0.0,0.0,0.0,0.0,0.0,0.0,0.0,0.0,0.0,0.0,0.0,0.0,0.0,0.0,0.0,0.0,0.0,0.0,0.0,0.0,0.0,0.0,0.0,0.0,0.0,0.0,0.0,0.0,0.0,0.0,0.0,0.0,0.0,0.0,0.0,0.0,0.0,0.0,0.0,0.0,0.0,0.0,0.0,0.0,0.0,0.0,0.0,0.0,0.0,0.0,0.0,0.0,0.0,0.0,0.0,0.0,0.0,0.0,0.0,0.0,0.0,0.0,0.0,0.0,0.0,0.0,0.0,0.0,0.0,0.0,0.0,0.0,0.0,0.0,0.0,0.0,0.0,0.0,0.0,0.0,0.0,0.0,0.0,0.0,0.0,0.0,0.0,0.0,0.0,0.0,0.0,0.0,0.0,0.0,0.0,0.0,0.0,-3.7674,-3.9011,-4.0072,-4.0471,-4.0902,-4.1291,-4.1612,-4.137,-4.0632,-3.922,0.0,0.0,0.0,0.0,0.0,0.0,0.0,0.0,0.0,0.0,0.0,0.0,0.0,0.0,0.0,0.0,0.0,0.0,0.0,0.0,0.0,0.0,0.0,0.0,0.0,0.0,0.0,0.0,0.0,0.0,0.0,0.0,0.0,0.0,0.0,0.0,0.0,0.0,0.0,0.0,0.0,0.0,0.0,0.0,0.0,0.0,0.0,0.0,0.0,0.0,0.0,0.0,0.0,0.0,0.0,0.0,0.0,0.0,0.0,0.0,0.0,0.0,0.0,0.0,0.0,0.0,0.0,0.0,0.0,0.0,0.0,0.0,0.0,0.0,0.0,0.0,0.0,0.0,0.0,0.0,0.0,0.0,0.0,0.0,0.0,0.0,0.0,0.0,0.0,0.0,0.0,0.0,0.0,0.0,0.0,0.0,0.0,0.0,0.0,0.0,0.0,0.0,-3.7617,-3.861,-3.9499,-4.01,-4.0433,-4.0719,-4.1009,-4.08,-3.9886,-3.8173,0.0,0.0,0.0,0.0,0.0,0.0,0.0,0.0,0.0,0.0,0.0,0.0,0.0,0.0,0.0,0.0,0.0,0.0,0.0,0.0,0.0,0.0,0.0,0.0,0.0,0.0,0.0,0.0,0.0,0.0,0.0,0.0,0.0,0.0,0.0,0.0,0.0,0.0,0.0,0.0,0.0,0.0,0.0,0.0,0.0,0.0,0.0,0.0,0.0,0.0,0.0,0.0,0.0,0.0,0.0,0.0,0.0,0.0,0.0,0.0,0.0,0.0,0.0,0.0,0.0,0.0,0.0,0.0,0.0,0.0,0.0,0.0,0.0,0.0,0.0,0.0,0.0,0.0,0.0,0.0,0.0,0.0,0.0,0.0,0.0,0.0,0.0,0.0,0.0,0.0,0.0,0.0,0.0,0.0,0.0,0.0,0.0,0.0,0.0,0.0,0.0,0.0,-3.7617,-3.7827,-3.8448,-4.0091,-4.0046,-4.0192,-4.0889,-3.9821,-3.8454,-3.6889,0.0,0.0,0.0,0.0,0.0,0.0,0.0,0.0,0.0,0.0,0.0,0.0,0.0,0.0,0.0,0.0,0.0,0.0,0.0,0.0,0.0,0.0,0.0,0.0,0.0,0.0,0.0,0.0,0.0,0.0,0.0,0.0,0.0,0.0,0.0,0.0,0.0,0.0,0.0,0.0,0.0,0.0,0.0,0.0,0.0,0.0,0.0,0.0,0.0,0.0,0.0,0.0,0.0,0.0,0.0,0.0,0.0,0.0,0.0,0.0,-4.3294,-4.2396,0.0,0.0,0.0,0.0,0.0,0.0,0.0,0.0,0.0,0.0,0.0,0.0,0.0,0.0,0.0,0.0,0.0,0.0,0.0,0.0,0.0,0.0,0.0,0.0,0.0,0.0,0.0,0.0,0.0,0.0,0.0,0.0,0.0,0.0,0.0,0.0,0.0,0.0,0.0,0.0,-3.8591,-3.8725,-3.9042,-3.9901,-3.9933,-3.9909,-3.9912,-3.9039,-3.801,-3.6864,-3.5479,0.0,0.0,0.0,0.0,0.0,0.0,0.0,0.0,0.0,0.0,0.0,0.0,0.0,0.0,0.0,0.0,0.0,0.0,0.0,0.0,0.0,0.0,0.0,0.0,0.0,0.0,0.0,0.0,0.0,0.0,0.0,0.0,0.0,0.0,0.0,0.0,0.0,0.0,0.0,0.0,0.0,0.0,0.0,0.0,0.0,0.0,0.0,0.0,0.0,0.0,0.0,0.0,0.0,0.0,0.0,0.0,0.0,0.0,0.0,-4.5037,-4.427,0.0,0.0,0.0,0.0,0.0,0.0,0.0,0.0,0.0,0.0,0.0,0.0,0.0,0.0,0.0,0.0,0.0,0.0,0.0,0.0,0.0,0.0,0.0,0.0,0.0,0.0,0.0,0.0,0.0,0.0,0.0,0.0,0.0,0.0,0.0,0.0,0.0,0.0,0.0,0.0,-3.8897,-3.9011,-3.9109,-3.9342,-3.9336,-3.9107,-3.8531,-3.8028,-3.7157,-3.5827,-3.4867,0.0,0.0,0.0,0.0,0.0,0.0,0.0,0.0,0.0,0.0,0.0,0.0,0.0,0.0,0.0,0.0,0.0,0.0,0.0,0.0,0.0,0.0,0.0,0.0,0.0,0.0,0.0,0.0,0.0,0.0,0.0,0.0,0.0,0.0,0.0,0.0,0.0,0.0,0.0,0.0,0.0,0.0,0.0,0.0,0.0,0.0,0.0,0.0,0.0,0.0,0.0,0.0,0.0,-4.7267,-4.762,-4.6682,-4.7557,-4.7949,-4.7928,-4.7253,-4.6793,-4.6456,-4.5597,0.0,0.0,0.0,0.0,0.0,0.0,0.0,0.0,0.0,0.0,0.0,0.0,0.0,0.0,0.0,0.0,0.0,0.0,0.0,0.0,0.0,0.0,-4.4579,-4.3704,-4.4054,-4.398,-4.1751,0.0,0.0,0.0,0.0,0.0,0.0,0.0,0.0,0.0,0.0,0.0,-3.9145,-3.9355,-3.9271,-3.8841,-3.8722,-3.8315,-3.7354,-3.7036,-3.6303,-3.4902,-3.4443,-3.3325,0.0,0.0,0.0,0.0,0.0,0.0,0.0,0.0,0.0,0.0,0.0,0.0,0.0,0.0,0.0,0.0,0.0,0.0,0.0,0.0,0.0,0.0,0.0,0.0,0.0,0.0,0.0,0.0,0.0,0.0,0.0,0.0,-3.8307,-3.9359,0.0,0.0,0.0,0.0,0.0,0.0,0.0,0.0,0.0,0.0,0.0,0.0,0.0,-4.492,-4.568,-4.7421,-4.7912,-4.719,-4.9633,-4.9976,-4.8493,-4.9362,-4.9764,-4.9745,-4.9646,0.0,-4.7352,-4.6495,0.0,0.0,0.0,0.0,0.0,0.0,0.0,0.0,0.0,0.0,0.0,0.0,0.0,0.0,0.0,0.0,0.0,0.0,0.0,0.0,0.0,0.0,-4.4579,-4.3704,-4.3583,-4.3563,-4.3223,-4.3053,-4.2904,-4.2659,-4.1416,-4.0783,0.0,0.0,0.0,0.0,0.0,0.0,-4.0205,-4.075,-4.053,-3.8883,-3.8719,-3.8264,-3.7212,-3.6472,-3.5953,-3.5747,-3.4355,-3.3623,-3.3801,-3.1823,0.0,0.0,0.0,0.0,0.0,0.0,0.0,0.0,0.0,0.0,0.0,0.0,0.0,0.0,0.0,0.0,0.0,0.0,0.0,0.0,0.0,0.0,0.0,0.0,0.0,0.0,0.0,0.0,0.0,-3.7128,-3.9557,-3.9528,-3.975,-3.9561,0.0,0.0,0.0,0.0,0.0,0.0,0.0,0.0,0.0,-4.5004,-4.5903,-4.6784,-4.7657,-4.8865,-4.9274,-4.8923,-5.0527,-5.0927,-5.0225,-5.0603,-5.0761,-5.0751,-5.029,-4.9687,-4.8935,-4.8063,-4.7695,-4.7535,0.0,0.0,0.0,0.0,-4.5647,-4.5045,-4.6035,-4.5472,-4.4409,-4.4773,0.0,0.0,0.0,0.0,0.0,0.0,0.0,-4.4715,-4.4326,-4.4501,-4.4695,-4.4326,-4.386,-4.3505,-4.3505,-4.3834,-4.4007,-4.3516,-4.271,-4.2324,-4.2946,-4.1351,0.0,0.0,0.0,-4.111,-3.9745,-4.0635,-4.0497,-3.8153,-3.7904,-3.7311,-3.5825,-3.5371,-3.5165,-3.5165,-3.447,-3.3987,-3.3788,-3.3649,-3.3541,0.0,0.0,0.0,0.0,0.0,0.0,0.0,0.0,0.0,0.0,0.0,0.0,0.0,0.0,0.0,0.0,0.0,0.0,0.0,0.0,0.0,0.0,0.0,0.0,0.0,0.0,0.0,0.0,-3.9347,-4.104,-4.0212,-4.1246,-4.1289,0.0,0.0,0.0,0.0,0.0,0.0,-4.3426,-4.4092,-4.5274,-4.7093,-4.7778,-4.8542,-4.943,-5.0034,-5.0229,-5.0014,-5.0657,-5.0852,-5.0657,-5.0664,-5.0667,-5.0638,-5.0038,-4.9761,-4.9707,-4.8837,-4.8607,-4.863,-4.6885,-4.6699,-4.7361,-4.7062,-4.656,-4.6196,-4.7473,-4.6948,-4.573,-4.5924,-4.5453,-4.4676,-4.4035,0.0,0.0,0.0,0.0,-4.4792,-4.4792,-4.4637,-4.4462,-4.4462,-4.3976,-4.3505,-4.3505,-4.4015,-4.4345,-4.3918,-4.358,-4.3388,-4.347,-4.2084,0.0,-4.0808,-4.1503,-4.1393,-3.9587,-4.0521,-4.0316,-3.7602,-3.7303,-3.6578,-3.4755,-3.4612,-3.4612,-3.4612,-3.4612,-3.432,-3.3738,-3.4902,-3.4771,-3.31,0.0,0.0,0.0,0.0,0.0,0.0,0.0,0.0,0.0,0.0,0.0,0.0,0.0,0.0,0.0,0.0,0.0,0.0,0.0,0.0,0.0,0.0,0.0,0.0,0.0,0.0,0.0,0.0,0.0,-4.3542,-4.503,0.0,0.0,0.0,0.0,-4.3156,-4.462,-4.595,-4.6894,-4.6997,-4.7833,-4.9654,-4.9751,-5.0222,-5.1164,-5.1203,-5.0813,-4.9995,-5.0034,-4.9664,-4.8923,-4.8927,-4.8938,-4.892,-4.8881,-4.8864,-4.8805,-4.7929,-4.805,-4.8627,-4.6875,-4.668,-4.728,-4.6391,-4.6041,-4.6021,-4.6099,-4.5569,-4.4986,-4.5749,-4.5453,-4.4792,-4.4753,-4.4734,0.0,0.0,-4.4773,-4.4792,-4.4792,-4.419,-4.3563,-4.3563,-4.3525,-4.3505,-4.3505,-4.3525,-4.3802,-4.4579,-4.4068,-4.3707,-4.4408,0.0,-4.1906,-4.1842,-4.2502,-4.2375,-4.0567,-4.1022,-4.0435,-3.7687,-3.7337,-3.6578,-3.4755,-3.4612,-3.4612,-3.4612,-3.4612,-3.4594,-3.4526,-3.462,-3.4977,-3.5709,-3.4226,0.0,0.0,0.0,0.0,0.0,0.0,0.0,0.0,0.0,0.0,0.0,0.0,0.0,0.0,0.0,0.0,0.0,0.0,0.0,0.0,0.0,0.0,0.0,0.0,0.0,0.0,0.0,0.0,-4.4573,-4.5615,0.0,-4.4425,-4.4681,-4.5138,-4.5587,-4.6645,-4.7747,-4.8826,-4.8871,-4.9458,-5.07,-5.0194,-5.0086,-5.0463,-4.9956,-4.9547,-4.9216,-4.8651,-4.8241,-4.7949,-4.7949,-4.7963,-4.796,-4.796,-4.7967,-4.7845,-4.6429,-4.6992,-4.8732,-4.8123,-4.7671,-4.7435,-4.7641,-4.7368,-4.6832,-4.6832,-4.6288,-4.5433,-4.4656,-4.421,-4.4074,-4.4637,-4.4404,-4.4074,-4.4637,-4.4404,-4.3957,-4.3957,-4.3316,-4.2656,-4.2656,-4.2228,-4.184,-4.184,-4.2267,-4.2753,-4.3068,-4.2869,-4.2902,-4.3634,-4.2396,-4.1239,-4.1132,-4.1861,-4.171,-3.9808,-4.0694,-4.0626,-3.835,-3.7624,-3.6793,-3.5533,-3.4921,-3.4827,-3.5409,-3.5446,-3.5672,-3.619,-3.6704,-3.6385,-3.509,-3.5033,-3.462,0.0,0.0,0.0,0.0,0.0,0.0,0.0,0.0,0.0,0.0,0.0,0.0,0.0,0.0,0.0,0.0,0.0,0.0,0.0,0.0,0.0,0.0,0.0,0.0,0.0,-4.4499,-4.6184,-4.5047,-4.6479,-4.7051,-4.5665,-4.6394,-4.7152,-4.7635,-4.8423,-4.9236,-5.0062,-5.0089,-5.0299,-5.0708,-5.0169,-4.9775,-4.9605,-4.906,-4.8651,-4.8358,-4.7774,-4.7345,-4.7053,-4.7053,-4.7053,-4.7053,-4.7053,-4.7054,-4.6947,-4.5501,-4.592,-4.7441,-4.7164,-4.7011,-4.6992,-4.6956,-4.6747,-4.6464,-4.6468,-4.5899,-4.4967,-4.386,-4.3505,-4.3602,-4.419,-4.3957,-4.3622,-4.421,-4.3724,-4.2986,-4.2694,-4.1995,-4.1276,-4.099,-4.0485,-4.0053,-4.0053,-4.0504,-4.0912,-4.0912,-4.1611,-4.2369,-4.2848,-4.2033,-4.1315,-4.1214,-4.146,-4.1162,-3.9848,-4.0058,-3.978,-3.8381,-3.7701,-3.6963,-3.6012,-3.563,-3.5559,-3.5878,-3.6141,-3.6535,-3.7073,-3.7606,-3.6986,-3.5071,-3.5052,-3.4639,-3.3794,0.0,0.0,0.0,0.0,0.0,0.0,0.0,0.0,0.0,0.0,0.0,0.0,0.0,0.0,0.0,0.0,0.0,0.0,0.0,0.0,0.0,0.0,0.0,-4.3333,-4.5733,-4.6828,-4.5217,-4.7889,-4.8972,-4.6683,-4.8688,-4.9897,-4.928,-4.9953,-5.0467,-5.0692,-5.0682,-5.0397,-4.9825,-4.9759,-4.9405,-4.8768,-4.8729,-4.828,-4.7462,-4.7423,-4.6975,-4.616,-4.6141,-4.6121,-4.6121,-4.6121,-4.6121,-4.6047,-4.5177,-4.482,-4.4772,-4.3963,-4.4671,-4.5955,-4.4185,-4.4046,-4.4718,-4.4691,-4.4112,-4.3369,-4.335,-4.333,-4.335,-4.3389,-4.3389,-4.3389,-4.3408,-4.2811,-4.1961,-4.1043,-4.0266,-3.9489,-3.862,-3.8406,-3.8406,-3.8406,-3.8406,-3.8406,-3.8406,-4.0388,-4.2078,-4.2078,-4.2078,-4.2078,-4.2078,-4.1354,0.0,-4.0729,-3.9128,-3.7943,-3.7767,-3.7537,-3.704,-3.6122,-3.669,-3.6772,-3.5991,-3.6659,-3.711,-3.7167,-3.7129,-3.6723,-3.5916,-3.432,-3.3851,-3.4564,0.0,0.0,0.0,0.0,0.0,0.0,0.0,0.0,0.0,0.0,0.0,0.0,0.0,0.0,0.0,0.0,0.0,0.0,0.0,0.0,0.0,-4.1529,-4.4413,-4.546,-4.7066,-4.8016,-4.7687,-4.8471,-4.8768,-4.8118,-4.8701,-4.934,-4.9877,-5.0137,-5.0388,-5.0682,-5.0104,-4.9774,-4.9802,-4.861,-4.7913,-4.7789,-4.7217,-4.6784,-4.655,-4.5926,-4.5498,-4.5244,-4.4598,-4.4302,-4.4302,-4.4302,-4.4302,-4.4247,-4.3367,-4.3389,-4.4005,-4.4387,-4.4844,-4.5192,-4.4699,-4.386,-4.2894,-4.2208,-4.1432,-4.0631,-4.0014,-3.98,-4.0033,-4.1257,-4.1218,-4.0864,-4.1451,-4.1432,-4.0927,-3.9474,-3.9392,-3.9489,-3.862,-3.8406,-3.8406,-3.8406,-3.8406,-3.8406,-3.8406,-3.8969,-3.9436,-3.9436,-3.9436,-3.9436,-3.9436,-3.9241,-3.9054,-3.8927,-3.8454,-3.8267,-3.8612,-3.8027,-3.7442,-3.7048,-3.716,-3.7133,-3.6866,-3.6449,-3.7042,-3.8838,-3.7749,-3.6723,-3.5916,-3.5446,-3.4714,0.0,0.0,0.0,0.0,0.0,0.0,0.0,0.0,0.0,0.0,0.0,0.0,0.0,0.0,0.0,0.0,0.0,0.0,0.0,0.0,0.0,0.0,-4.321,-4.5717,-4.6837,-4.7692,-4.8374,-4.8852,-4.8794,-4.8831,-4.9172,-4.921,-4.9453,-5.0025,-5.0076,-5.0028,-4.9956,-4.9468,-4.9018,-4.8648,-4.7682,-4.707,-4.6857,-4.6395,-4.5986,-4.5654,-4.5147,-4.4718,-4.4345,-4.3835,-4.3601,-4.3601,-4.3601,-4.3601,-4.3523,-4.2666,-4.2607,-4.3065,0.0,0.0,0.0,0.0,-4.2707,-4.1181,-4.0999,-4.0155,-3.9066,-3.8551,-3.8406,-3.8581,-3.9567,-3.9781,-3.9723,-3.982,-4.0111,-3.9994,-3.8305,-3.8227,-3.8382,-3.7528,-3.7314,-3.7314,-3.7314,-3.7314,-3.7314,-3.7314,-3.7314,0.0,-3.7314,-3.792,-3.8523,-3.8887,-3.8324,-3.7961,-3.8244,-3.7652,-3.7436,-3.8058,-3.7621,-3.7209,-3.7032,-3.7604,0.0,0.0,0.0,-3.7344,-3.8012,-3.7099,0.0,0.0,0.0,-3.5052,-3.4451,-3.4921,0.0,0.0,-3.6179,-3.6761,0.0,0.0,0.0,0.0,0.0,0.0,0.0,0.0,0.0,0.0,0.0,0.0,0.0,0.0,0.0,0.0,-4.4579,-4.6506,-4.7252,-4.7573,-4.8039,-4.8824,-4.8697,-4.8818,-4.9551,-4.9722,-4.9798,-4.9893,-4.9912,-4.9663,-4.9082,-4.8884,0.0,0.0,0.0,-4.6577,-4.6032,-4.6042,-4.5637,-4.4846,-4.4853,-4.4409,-4.3571,-4.3481,-4.3445,-4.3445,-4.3367,-4.3328,-4.325,-4.2471,-4.2159,-4.2107,-4.1484,-4.1714,-4.2385,-4.2204,-4.1111,-3.9789,-4.0379,0.0,0.0,-3.8144,-3.8116,-3.8147,-3.8225,-3.8799,-3.9256,-3.8464,-3.8887,-3.9159,-3.7411,-3.7023,-3.6887,-3.6008,-3.5795,-3.5795,-3.5795,-3.5795,-3.5795,-3.5795,-3.5795,-3.5795,-3.5795,-3.7081,-3.8363,-3.9135,-3.7935,-3.7236,-3.8018,-3.677,-3.6085,-3.6826,-3.6799,0.0,-3.6542,-3.7906,-3.8362,-3.7405,-3.7871,-3.7453,-3.573,-3.5757,-3.5776,-3.5681,-3.491,-3.4787,-3.5367,-3.5461,-3.5149,-3.4489,-3.5446,-3.6667,0.0,0.0,0.0,0.0,0.0,0.0,0.0,0.0,0.0,0.0,0.0,0.0,0.0,0.0,0.0,-4.2983,-4.4761,-4.5716,-4.5258,-4.611,-4.6875,-4.7155,-4.7353,-4.7581,-4.787,-4.8528,-4.921,-4.9855,-4.9912,-4.991,-4.9959,-4.8662,-4.7879,-4.7732,-4.6471,-4.574,-4.5623,-4.5672,-4.5297,-4.4492,-4.4614,0.0,-4.3412,-4.2817,-4.2549,-4.251,-4.1867,-4.1575,-4.1575,-4.14,-4.1322,-4.1383,-4.188,-4.2198,-4.2305,-4.1547,-4.0624,-3.9605,-3.8361,-3.7705,-3.7326,-3.6616,-3.6375,-3.6495,-3.7157,-3.7467,0.0,-3.7392,-3.7974,-3.8246,-3.6494,-3.6576,-3.6887,-3.6008,-3.5795,-3.5795,-3.5795,-3.5795,-3.5795,-3.5795,-3.5795,-3.5795,-3.5795,-3.6086,-3.6358,-3.6533,-3.6261,-3.6105,-3.628,-3.6008,-3.6075,-3.6814,-3.687,-3.6824,-3.6749,-3.7532,-3.7359,-3.5833,-3.5766,-3.5319,-3.4321,-3.4904,-3.4961,-3.4302,-3.4067,-3.3313,-3.2032,-3.2722,-3.3269,-3.3682,-3.5184,-3.6066,0.0,0.0,0.0,0.0,0.0,0.0,0.0,0.0,0.0,0.0,0.0,-3.9466,-4.1189,0.0,-4.3251,-4.4464,-4.5302,-4.5659,-4.5267,-4.5543,-4.5871,-4.6024,-4.694,-4.7588,-4.7688,-4.8667,-4.9476,-4.9874,-4.9912,-4.9572,-4.884,-4.8003,-4.7231,-4.6562,-4.5782,-4.541,-4.549,-4.5098,-4.45,-4.3711,-4.3395,-4.2807,-4.1992,-4.1655,-4.1537,-4.1579,-4.1171,-4.1038,-4.1107,-4.1107,-4.1107,-4.1146,-4.1536,-4.1454,-4.1047,-4.0574,-3.96,-3.837,-3.75,-3.6912,-3.6479,-3.6037,-3.5903,-3.5984,-3.6374,-3.6804,-3.7055,-3.6626,-3.7092,-3.7454,-3.619,-3.6161,-3.6339,-3.5892,-3.5465,-3.5158,-3.5158,-3.4828,-3.4556,-3.4556,-3.4556,-3.4556,-3.4556,-3.4556,-3.4824,-3.5678,-3.5795,-3.5639,-3.5216,-3.5158,-3.5118,-3.5064,-3.5059,-3.5035,-3.5002,-3.5718,-3.5753,-3.4802,-3.4702,-3.4239,-3.3288,-3.3627,-3.384,-3.3851,-3.3424,-3.2743,-3.1852,-3.2289,-3.2467,-3.2436,-3.3677,-3.4641,0.0,0.0,0.0,0.0,0.0,0.0,0.0,-3.7006,-3.7541,-3.9382,-4.0462,-4.1576,-4.3132,-4.4063,-4.488,-4.5673,-4.5927,-4.5927,-4.5624,-4.538,-4.5181,-4.5037,-4.6631,-4.7783,-4.7878,-4.9016,-4.9764,-4.9797,-4.9852,-4.9248,-4.7719,-4.7491,-4.679,-4.5441,-4.509,-4.4989,-4.515,-4.4296,-4.3534,-4.289,-4.2171,-4.1456,-4.0788,-4.0713,-4.0748,-4.0859,-4.0704,-4.0824,-4.1088,-4.0912,-4.0951,-4.1107,-4.1107,-4.0467,-3.9552,-3.9552,-3.8664,-3.7396,-3.7067,-3.6398,-3.5681,-3.5856,-3.581,-3.5707,-3.5844,-3.6387,-3.6791,-3.6109,-3.6362,-3.6723,-3.606,-3.5869,-3.5822,-3.5822,-3.5145,-3.4522,-3.4522,-3.387,-3.3296,-3.3296,-3.3304,-3.3293,-3.3293,-3.3293,-3.3759,-3.5115,-3.5309,-3.5061,-3.4361,-3.4268,-3.4008,-3.3289,-3.3227,-3.3218,-3.3193,-3.3697,-3.3926,-3.3749,-3.3589,-3.3184,-3.2498,-3.2293,-3.2598,-3.3417,-3.262,-3.2211,-3.2175,-3.2156,-3.1816,-3.1157,-3.1798,-3.2939,-3.2039,-3.279,-3.4325,-3.4962,-3.6078,-3.7727,0.0,-4.1317,-4.1737,-4.2637,-4.3062,-4.352,-4.4352,-4.462,-4.4941,-4.5677,-4.6391,-4.6373,-4.4924,-4.5289,-4.5225,-4.387,-4.5725,-4.7205,-4.7435,-4.8565,-4.9327,-4.9461,-4.9726,-4.9514,-4.8604,-4.7813,-4.6992,-4.6126,-4.4647,-4.3881,-4.3897,-4.3043,-4.2582,-4.2552,-4.1868,-4.1517,-4.1459,-4.0889,-4.0655,-4.0686,-4.0029,-4.026,-4.1029,-4.0253,-4.0409,-4.1107,-4.1107,-4.0097,-3.8656,-3.8656,-3.8528,-3.8129,-3.6579,-3.5504,-3.4953,-3.5738,-3.5463,-3.4961,-3.5683,-3.597,-3.6031,-3.5934,-3.595,-3.6006,-3.5928,-3.5887,-3.5884,-3.5884,-3.5219,-3.4594,-3.4594,-3.3901,-3.3304,-3.3304,-3.3297,-3.3293,-3.3293,-3.3293,-3.3351,-3.3546,-3.3584,-3.3546,-3.3448,-3.3429,-3.341,-3.3309,-3.3289,-3.3262,-3.3218,-3.2578,-3.2178,-3.2167,-3.1422,-3.1301,-3.1951,-3.1225,-3.1225,-3.2096,-3.1265,-3.0761,-3.0652,-3.0596,-3.0446,-3.0261,-3.0331,-3.1264,-3.4153,-3.4314,-3.4739,-3.6878,-3.7864,-3.8841,-4.0967,-4.1544,-4.2016,-4.3423,-4.3905,-4.4174,-4.4487,-4.4751,-4.4833,-4.456,-4.4882,-4.5002,-4.4648,-4.4888,-4.5213,-4.5499,-4.5986,-4.6313,-4.6342,-4.7435,-4.8207,-4.8343,-4.8224,-4.8004,-4.7664,-4.7053,-4.6316,-4.5464,-4.4308,-4.3455,-4.2962,-4.2117,-4.1723,-4.1726,-4.0982,-4.0644,-4.0654,-4.0448,-4.0446,-4.0542,-3.9795,-3.9772,-4.0206,-3.9824,-3.9948,-4.039,-4.0893,-4.0351,-3.9201,-3.8694,-3.786,-3.6874,-3.6141,-3.5682,-3.5459,-3.5878,-3.5758,-3.5516,-3.5851,-3.5953,-3.5956,-3.5956,-3.5937,-3.5894,-3.5894,-3.5907,-3.5778,-3.5269,-3.4488,-3.3727,-3.3258,-3.2467,-3.1853,-3.1853,-3.1859,-3.1846,-3.1846,-3.1818,-3.1796,-3.1796,-3.2658,-3.3118,-3.2609,-3.2532,-3.2361,-3.1836,-3.1797,-3.1774,-3.1747,-3.1417,-3.12,-3.1193,-3.0859,-3.0816,-3.1192,-3.0808,-3.0776,-3.1136,-3.0784,-3.0574,-3.053,-3.0481,-3.0449,-3.0381,-3.0381,-3.076,-3.3793,-3.4297,-3.4762,-3.732,-3.8554,-3.9472,-4.073,-4.1156,-4.1753,-4.3313,-4.3781,-4.398,-4.4164,-4.4546,-4.4624,-4.4089,-4.3955,-4.419,-4.4923,-4.4676,-4.4974,-4.6498,-4.6159,-4.5771,-4.5735,-4.6397,-4.6907,-4.7067,-4.6861,-4.6585,-4.6223,-4.5887,-4.5237,-4.4251,-4.3436,-4.2716,-4.2079,-4.1245,-4.0961,-4.1188,-4.0371,-3.9975,-3.9996,-3.988,-3.9945,-4.0085,-3.9572,-3.9557,-3.9874,-3.9651,-3.9764,-4.0146,-4.0535,-4.0175,-3.9337,-3.8461,-3.7331,-3.6223,-3.5977,-3.5749,-3.5619,-3.589,-3.582,-3.5689,-3.5929,-3.5991,-3.5992,-3.5992,-3.5966,-3.5936,-3.5936,-3.5742,-3.5463,-3.5073,-3.394,-3.2886,-3.2535,-3.1574,-3.079,-3.079,-3.0805,-3.08,-3.08,-3.0762,-3.0722,-3.0722,-3.1802,-3.2383,-3.1723,-3.1638,-3.1409,-3.0771,-3.0694,-3.0694,-3.0694,-3.0694,-3.0694,-3.0694,-3.048,-3.0454,-3.0692,-3.042,-3.0269,-3.0276,-3.0266,-3.0268,-3.0268,-3.0259,-3.0366,-3.0598,-3.0598,-3.0598,-2.9163,-3.1322,-3.3824,-3.5037,-3.7426,-3.9651,-4.0364,-4.1061,-4.1774,-4.2503,-4.2665,-4.2865,-4.3584,-4.3905,-4.4249,-4.4932,-4.4561,-4.4661,-4.5986,-4.4864,-4.44,-4.5686,-4.582,-4.5846,-4.5982,-4.5665,-4.5529,-4.5736,-4.6112,-4.5789,-4.4538,-4.4453,-4.3841,-4.2515,-4.1711,-4.1264,-4.1226,-4.0374,-4.0355,-4.1188,-4.0317,-3.9933,-3.9977,-3.9252,-3.9009,-3.9127,-3.9177,-3.975,-4.0603,-3.9746,-3.9976,-4.0795,-3.9975,-3.9194,-3.8422,-3.7564,-3.7214,-3.7038,-3.6181,-3.539,-3.4871,-3.5656,-3.5379,-3.4908,-3.5747,-3.6006,-3.5992,-3.5992,-3.5992,-3.5994,-3.5994,-3.537,-3.4942,-3.5761,-3.4005,-3.2365,-3.3184,-3.2007,-3.0801,-3.0801,-3.0795,-3.08,-3.08,-3.08,-3.0799,-3.0799,-3.0838,-3.0835,-3.075,-3.0733,-3.0733,-3.0694,-3.0694,-3.0694,-3.0694,-3.0694,-3.0694,-3.0694,-2.9913,-2.9816,-3.0674,-2.9894,-2.9444,-2.9444,-2.9447,-2.9447,-2.9447,-2.9367,-2.9766,-3.0598,-3.0598,-3.0598,-2.9394,-3.1305,-3.3568,-3.5571,-3.6801,-3.8038,-4.0116,-4.0768,-4.1261,-4.2378,-4.1842,-4.1283,-4.152,-4.1802,-4.2057,-4.2159,-4.2969,-4.3877,-4.4681,-4.468,-4.4994,-4.5952,-4.5902,-4.5824,-4.5846,-4.5835,-4.5647,-4.5249,-4.5113,-4.4868,-4.4485,-4.3915,-4.3391,-4.2956,-4.1808,-4.0923,-4.0336,-4.0052,-4.0052,-4.0336,-4.0033,-3.9667,-3.9199,-3.8954,-3.8594,-3.8129,-3.7583,-3.7609,-3.8027,-3.7732,-3.7854,-3.8271,-3.8504,-3.8161,-3.7459,-3.7187,-3.6752,-3.6298,-3.6006,-3.5716,-3.5546,-3.5809,-3.5719,-3.5552,-3.589,-3.5997,-3.5887,-3.5302,-3.5131,-3.4998,-3.4431,-3.4491,-3.4471,-3.3612,-3.3612,-3.3437,-3.1991,-3.1666,-3.1496,-3.0909,-3.0796,-3.0798,-3.0798,-3.0801,-3.0796,-3.0803,-3.0764,-3.0735,-3.07,-3.0195,-3.0069,-3.0635,-3.0185,-2.9836,-2.9836,-2.9836,-2.9583,-2.9016,-2.8706,-2.8667,-2.8958,-2.8696,-2.8537,-2.8537,-2.9113,-2.9408,-2.9408,-2.9915,-3.0313,-3.0604,-3.0604,-3.0595,-2.9292,-3.0875,-3.2604,-3.483,-3.5582,-3.6352,-3.8607,-3.9125,-3.9582,-4.1165,-4.0583,-3.987,-4.0094,-4.0375,-4.0484,-4.0382,-4.1316,-4.2488,-4.3627,-4.3665,-4.4136,-4.5593,-4.5405,-4.5302,-4.5762,-4.5869,-4.5652,-4.4991,-4.4415,-4.3979,-4.3632,-4.2813,-4.2145,-4.1707,-4.0967,-4.0325,-3.9758,-3.9856,-3.99,-3.99,-3.9597,-3.906,-3.8305,-3.8315,-3.7908,-3.7185,-3.6964,-3.6946,-3.7057,-3.7068,-3.7144,-3.7269,-3.7507,-3.7332,-3.6924,-3.6609,-3.6198,-3.5806,-3.5875,-3.5908,-3.5892,-3.5899,-3.5904,-3.5912,-3.5958,-3.5754,-3.541,-3.4869,-3.4698,-3.4566,-3.4001,-3.4276,-3.4413,-3.33,-3.3417,-3.33,-3.1621,-3.1465,-3.1465,-3.0917,-3.08,-3.08,-3.08,-3.0558,-3.0468,-3.0761,-3.0239,-2.9921,-3.0221,-2.9515,-2.9187,-2.9751,-2.9285,-2.8939,-2.8939,-2.8939,-2.8706,-2.8142,-2.7832,-2.7793,-2.8084,-2.7822,-2.7663,-2.7663,-2.8209,-2.8469,-2.8466,-2.8982,-2.9404,-2.9714,-2.9714,-2.9861,-2.8603,-2.9943,-3.1063,-3.2859,-3.3844,-3.472,-3.6137,-3.6461,-3.7018,-3.8983,-3.8839,-3.8547,-3.9218,-3.9478,-3.9626,-3.9687,-3.9899,-4.0793,-4.2914,-4.2041,-4.2125,-4.4617,-4.4337,-4.4412,-4.5593,-4.5708,-4.5471,-4.4846,-4.4077,-4.3172,-4.2102,-4.1241,-4.0265,-3.9078,-3.9318,-3.9471,-3.9471,-3.9735,-3.9848,-3.9859,-3.9066,-3.8224,-3.7401,-3.7422,-3.6996,-3.6283,-3.7185,-3.7573,-3.7583,-3.7561,-3.765,-3.768,-3.6916,-3.6704,-3.6709,-3.5892,-3.5582,-3.5639,-3.5817,-3.5883,-3.5886,-3.5886,-3.5858,-3.5831,-3.589,-3.5331,-3.4681,-3.4651,-3.4674,-3.4677,-3.4587,-3.4627,-3.4686,-3.4647,-3.3437,-3.2267,-3.213,-3.1485,-3.0917,-3.082,-3.08,-3.08,-3.08,-3.0177,-2.9924,-3.0683,-2.9313,-2.8514,-2.9398,-2.8704,-2.8147,-2.8206,-2.8107,-2.8035,-2.8035,-2.8032,-2.8029,-2.7971,-2.7255,-2.7174,-2.7948,-2.7233,-2.6828,-2.6828,-2.6812,-2.6803,-2.6815,-2.686,-2.7295,-2.8105,-2.8105,-2.8536,-2.7258,-2.9232,-3.1394,-3.1868,-3.2135,-3.2879,-3.5204,-3.5753,-3.6204,-3.7746,-3.7064,-3.6391,-3.7054,-3.7758,-3.8547,-3.9532,-4.1275,-4.2693,-4.3264,-4.3501,-4.3654,-4.379,-4.4354,-4.4618,-4.4412,-4.4711,-4.4839,-4.4646,-4.4553,-4.3876,-4.2513,-4.1395,-4.0443,-3.9623,-3.9286,-3.9136,-3.9136,-3.9203,-3.9345,-3.958,-3.8733,-3.7996,-3.7382,-3.6804,-3.6093,-3.5343,-3.558,-3.5748,-3.5838,-3.5846,-3.5859,-3.5875,-3.5656,-3.5667,-3.5766,-3.5528,-3.5513,-3.5618,-3.5655,-3.572,-3.5749,-3.5749,-3.5383,-3.5056,-3.5699,-3.5339,-3.4551,-3.3908,-3.4195,-3.4402,-3.3096,-3.3725,-3.4549,-3.3886,-3.4372,-3.4471,-3.2519,-3.2441,-3.2342,-3.1054,-3.08,-3.08,-3.08,-3.0626,-3.0567,-3.0761,-2.9361,-2.857,-2.9394,-2.817,-2.7488,-2.8129,-2.7597,-2.7204,-2.7204,-2.7217,-2.6926,-2.6284,-2.6032,-2.6028,-2.622,-2.6048,-2.5931,-2.5931,-2.655,-2.688,-2.6877,-2.7472,-2.7877,-2.8106,-2.8106,-2.8219,-2.7378,-2.9267,-3.1105,-3.1105,-3.1308,-3.1807,-3.3081,-3.3765,-3.4418,-3.5185,-3.4683,-3.4284,-3.4956,-3.6216,-3.7387,-3.8135,-4.0417,-4.2294,-4.2772,-4.2908,-4.2925,-4.2892,-4.3126,-4.3298,-4.3354,-4.3593,-4.4014,-4.4567,-4.4364,-4.3716,-4.2564,-4.1251,-4.0216,-3.9554,-3.9062,-3.8886,-3.8994,-3.8994,-3.909,-3.9268,-3.8464,-3.7697,-3.7013,-3.6216,-3.5482,-3.4821,-3.4821,-3.4936,-3.5101,-3.5147,-3.5181,-3.5196,-3.5196,-3.525,-3.5311,-3.5311,-3.5139,-3.4944,-3.5303,-3.5237,-3.502,-3.5069,-3.4807,-3.4559,-3.5045,-3.4874,-3.434,-3.354,-3.3933,-3.4299,-3.2937,-3.3886,-3.4967,-3.4088,-3.4365,-3.4316,-3.2497,-3.2187,-3.1971,-3.0995,-3.08,-3.08,-3.08,-3.0509,-3.0392,-3.0742,-2.9045,-2.8035,-2.8863,-2.7441,-2.6556,-2.7042,-2.6647,-2.6331,-2.6331,-2.6337,-2.6112,-2.5626,-2.5605,-2.5593,-2.5593,-2.5593,-2.56,-2.56,-2.6082,-2.632,-2.632,-2.6783,-2.6997,-2.6997,-2.6997,-2.7207,-2.8035,-2.9438,-3.0406,-3.0553,-3.0988,-3.125,-3.0728,-3.1511,-3.2336,-3.2258,-3.2258,-3.2482,-3.3152,-3.4789,-3.6164,-3.6622,-3.8806,-4.0848,-4.2037,-4.1589,-4.1432,-4.2125,-4.1538,-4.1477,-4.2399,-4.245,-4.2906,-4.4014,-4.3568,-4.2962,-4.2304,-4.0931,-3.9841,-3.9067,-3.8589,-3.8477,-3.8734,-3.8623,-3.8651,-3.8772,-3.8039,-3.7291,-3.6575,-3.577,-3.5092,-3.4539,-3.4556,-3.4703,-3.4945,-3.5011,-3.5092,-3.52,-3.52,-3.5206,-3.5209,-3.5209,-3.4694,-3.4128,-3.4923,-3.4634,-3.3968,-3.4339,-3.4369,-3.4322,-3.4443,-3.4389,-3.4172,-3.3537,-3.3977,-3.4451,-3.3575,-3.4474,-3.5425,-3.4685,-3.3877,-3.3064,-3.2248,-3.1399,-3.0795,-3.0795,-3.0798,-3.08,-3.08,-3.0216,-3.0001,-3.0683,-2.8732,-2.7445,-2.8205,-2.6773,-2.5703,-2.5703,-2.5642,-2.5616,-2.5616,-2.5615,-2.5613,-2.5613,-2.5591,-2.5609,-2.5609,-2.5606,-2.5609,-2.5609,-2.561,-2.5604,-2.5604,-2.5604,-2.5601,-2.5593,-2.5593,-2.6018,-2.7443,-2.8487,-2.9291,-3.0347,-3.0685,-3.0743,-3.0627,-3.1163,-3.1542,-3.1039,-3.1331,-3.1865,-3.2541,-3.344,-3.4986,-3.778,-3.9237,-4.0661,-4.2494,-4.2373,-4.2137,-4.2266,-4.158,-4.1171,-4.1376,-4.1233,-4.1209,-4.1441,-4.1703,-4.1754,-4.1497,-4.0623,-3.9534,-3.8254,-3.7492,-3.7174,-3.7353,-3.6682,-3.6803,-3.7676,-3.6857,-3.6537,-3.6575,-3.5763,-3.499,-3.4269,-3.4262,-3.4416,-3.4674,-3.4674,-3.4879,-3.52,-3.52,-3.5206,-3.5209,-3.5209,-3.4694,-3.4128,-3.4923,-3.4213,-3.3195,-3.4718,-3.4793,-3.4422,-3.5162,-3.4867,-3.4267,-3.4153,-3.4744,-3.5214,-3.4399,-3.4415,-3.4618,-3.452,-3.3847,-3.2979,-3.2111,-3.1295,-3.0722,-3.0722,-3.0765,-3.08,-3.08,-3.0683,-3.0644,-3.0781,-2.924,-2.8127,-2.8283,-2.6783,-2.5692,-2.5692,-2.5695,-2.5677,-2.5677,-2.5683,-2.5683,-2.5683,-2.5637,-2.5609,-2.5609,-2.5605,-2.5603,-2.5603,-2.5599,-2.5597,-2.5597,-2.5597,-2.5602,-2.5609,-2.5609,-2.5686,-2.7076,-2.8498,-2.9889,-3.0841,-3.1061,-3.0887,-3.0234,-3.0829,-3.1148,-2.9886,-3.0364,-3.1139,-3.1441,-3.2661,-3.4228,-3.6157,-3.8032,-3.9836,-4.1555,-4.1929,-4.2094,-4.2288,-4.1614,-4.1124,-4.1092,-4.067,-4.0497,-4.0778,-4.1013,-4.1046,-4.0843,-3.9968,-3.8994,-3.7987,-3.721,-3.6829,-3.6913,-3.6168,-3.6061,-3.6562,-3.576,-3.5433,-3.5536,-3.4734,-3.4209,-3.3998,-3.3998,-3.4142,-3.4383,-3.4383,-3.4599,-3.4879,-3.4927,-3.5047,-3.5196,-3.5201,-3.4694,-3.4128,-3.4923,-3.4407,-3.3525,-3.4392,-3.4426,-3.4147,-3.4096,-3.4416,-3.4692,-3.4295,-3.4511,-3.4631,-3.3826,-3.3643,-3.3674,-3.3703,-3.3102,-3.2275,-3.1413,-3.0915,-3.0645,-3.0645,-3.0667,-3.0704,-3.0704,-3.0704,-3.0555,-3.0129,-2.9039,-2.8109,-2.7677,-2.6507,-2.5707,-2.5707,-2.5707,-2.5707,-2.5707,-2.5695,-2.5699,-2.5699,-2.5663,-2.5644,-2.5644,-2.5643,-2.5641,-2.5641,-2.5615,-2.5609,-2.5609,-2.5609,-2.5603,-2.559,-2.559,-2.5602,-2.713,-2.8693,-3.0388,-3.1292,-3.1409,-3.1018,-2.9856,-3.051,-3.0814,-2.9072,-2.9726,-3.0598,-3.0598,-3.1987,-3.3442,-3.4375,-3.6547,-3.8753,-4.0504,-4.1216,-4.1735,-4.2137,-4.1469,-4.0933,-4.0889,-4.012,-3.9851,-4.0441,-4.0295,-4.0153,-4.0139,-3.9171,-3.8312,-3.763,-3.689,-3.6454,-3.6307,-3.5614,-3.5354,-3.5532,-3.4899,-3.4606,-3.4588,-3.3954,-3.3669,-3.3712,-3.3712,-3.3855,-3.4111,-3.4111,-3.4267,-3.4518,-3.4572,-3.4793,-3.5092,-3.5117,-3.4511,-3.3845,-3.4838,-3.4445,-3.349,-3.3662,-3.3949,-3.4101,-3.3234,-3.3902,-3.4813,-3.423,-3.3946,-3.3652,-3.3038,-3.2788,-3.265,-3.2463,-3.1985,-3.1374,-3.0672,-3.0552,-3.0587,-3.0587,-3.0582,-3.0558,-3.0364,-3.0344,-3.005,-2.9243,-2.8428,-2.7684,-2.7064,-2.6227,-2.5682,-2.5706,-2.5707,-2.5707,-2.5707,-2.5707,-2.5707,-2.5707,-2.5707,-2.5707,-2.5707,-2.5699,-2.5702,-2.5702,-2.5643,-2.562,-2.562,-2.562,-2.5618,-2.5615,-2.5615,-2.5613,-2.7972,-2.8633,-2.9286,-3.1052,-3.109,-3.048,-2.9784,-3.0161,-3.0307,-2.8985,-2.9726,-3.0598,-3.0598,-3.1195,-3.235,-3.4267,-3.5753,-3.7592,-4.023,-4.0722,-4.1046,-4.1773,-4.0865,-4.0193,-4.021,-3.908,-3.8664,-3.9391,-3.858,-3.8442,-3.9256,-3.8294,-3.7417,-3.6753,-3.5947,-3.5277,-3.4718,-3.3924,-3.3933,-3.47,-3.4643,-3.4606,-3.4606,-3.4519,-3.4114,-3.3437,-3.3437,-3.3591,-3.3847,-3.3847,-3.3999,-3.4253,-3.4235,-3.4445,-3.4753,-3.4812,-3.3948,-3.2969,-3.4639,-3.3681,-3.1847,-3.2585,-3.3845,-3.4942,-3.412,-3.3995,-3.4109,-3.4029,-3.3437,-3.2825,-3.2819,-3.222,-3.1442,-3.0727,-3.0502,-3.0423,-3.0346,-3.0413,-3.0515,-3.0515,-3.0564,-3.0364,-2.9648,-2.9515,-2.9227,-2.8342,-2.7487,-2.6923,-2.6913,-2.6155,-2.5639,-2.5685,-2.5707,-2.5707,-2.5707,-2.5707,-2.5707,-2.5707,-2.5707,-2.5707,-2.5707,-2.5709,-2.571,-2.571,-2.5692,-2.5693,-2.5693,-2.5693,-2.5699,-2.5683,-2.5683,-2.5661,-2.8156,-2.9501,-3.0668,-3.1794,-3.1047,-3.0031,-3.0161,-2.9828,-2.9319,-2.8811,-2.9726,-3.0598,-3.0598,-3.109,-3.1887,-3.3064,-3.4377,-3.6044,-3.8338,-3.9081,-3.9826,-4.1048,-4.0397,-3.9919,-4.0071,-3.8853,-3.8041,-3.798,-3.7457,-3.7307,-3.7676,-3.7092,-3.6549,-3.6075,-3.535,-3.4762,-3.4325,-3.3628,-3.347,-3.3825,-3.3852,-3.3882,-3.3882,-3.3882,-3.3701,-3.3393,-3.3393,-3.3466,-3.3563,-3.3563,-3.3721,-3.3961,-3.3962,-3.414,-3.4401,-3.4467,-3.4269,-3.4016,-3.4726,-3.4425,-3.3605,-3.2928,-3.3501,-3.4216,-3.286,-3.2802,-3.3223,-3.3223,-3.2585,-3.1923,-3.2003,-3.1374,-3.0648,-3.0375,-3.0299,-3.0292,-3.0292,-2.9956,-2.98,-3.0282,-3.0007,-2.9607,-2.9279,-2.9221,-2.8775,-2.7454,-2.6958,-2.6576,-2.6118,-2.5753,-2.5544,-2.5585,-2.5648,-2.5707,-2.5707,-2.5707,-2.5707,-2.5707,-2.5707,-2.5707,-2.5707,-2.5707,-2.5707,-2.5707,-2.5707,-2.5961,-2.6489,-2.6489,-2.6473,-2.6479,-2.6479,-2.6188,-2.8437,-3.0295,-3.1944,-3.2629,-3.1337,-3.0031,-3.0496,-2.974,-2.8913,-2.8752,-2.9871,-3.0858,-3.0858,-3.138,-3.1926,-3.2343,-3.354,-3.4984,-3.6614,-3.779,-3.8893,-4.0008,-3.9872,-3.9613,-3.9407,-3.8381,-3.7562,-3.7126,-3.6733,-3.6488,-3.6488,-3.5847,-3.5397,-3.5196,-3.454,-3.4005,-3.3672,-3.3248,-3.3122,-3.331,-3.3352,-3.3382,-3.3393,-3.3393,-3.3393,-3.3393,-3.3393,-3.3393,-3.3393,-3.3393,-3.3506,-3.3684,-3.3671,-3.3852,-3.4105,-3.4128,-3.4207,-3.4275,-3.4315,-3.4122,-3.3688,-3.2613,-3.2503,-3.2511,-3.108,-3.1458,-3.2355,-3.2355,-3.1725,-3.1064,-3.1102,-3.0658,-3.0207,-3.0253,-3.0266,-3.0273,-3.0273,-2.9839,-2.9614,-3.0196,-2.9849,-2.931,-2.8791,-2.8714,-2.8165,-2.6529,-2.6287,-2.609,-2.5541,-2.5473,-2.548,-2.5501,-2.5572,-2.5644,-2.5644,-2.5644,-2.5648,-2.5676,-2.5676,-2.568,-2.5707,-2.5707,-2.5707,-2.5707,-2.5941,-2.6391,-2.6996,-2.7269,-2.7387,-2.7387,-2.7113,-2.6528,-2.899,-3.0856,-3.2658,-3.3329,-3.2036,-3.0598,-3.0598,-3.0074,-2.9407,-2.884,-3.019,-3.148,-3.148,-3.2063,-3.2481,-3.2513,-3.3585,-3.467,-3.5407,-3.7219,-3.8506,-3.8537,-3.921,-3.9194,-3.7844,-3.7336,-3.7119,-3.7102,-3.6423,-3.6009,-3.6009,-3.4625,-3.3889,-3.4002,-3.3285,-3.2767,-3.242,-3.2402,-3.2719,-3.331,-3.331,-3.3337,-3.3393,-3.3393,-3.3393,-3.3393,-3.3393,-3.3393,-3.3393,-3.3393,-3.3393,-3.3393,-3.3393,-3.3577,-3.3802,-3.3795,-3.3475,-3.3045,-3.317,-3.2135,-3.0798,-3.1114,-3.0633,-2.9815,-2.9136,-3.014,-3.1503,-3.1503,-3.0873,-3.0211,-3.0211,-3.0211,-3.0211,-3.0211,-3.0194,-3.0188,-3.0188,-3.0241,-3.0292,-3.0292,-3.0292,-2.9756,-2.8107,-2.78,-2.7236,-2.5575,-2.5311,-2.5341,-2.5398,-2.5391,-2.5425,-2.5495,-2.5504,-2.5504,-2.5504,-2.5504,-2.5529,-2.56,-2.5601,-2.5639,-2.5706,-2.5707,-2.5707,-2.5707,-2.6547,-2.6996,-2.6996,-2.7874,-2.8283,-2.8264,-2.7406,-2.6528,-2.9304,-3.0428,-3.1211,-3.1847,-3.0652,-2.9537,-3.0409,-2.9406,-2.8478,-2.9189,-3.0495,-3.1495,-3.1495,-3.2031,-3.2658,-3.3093,-3.3506,-3.4153,-3.5277,-3.6365,-3.7218,-3.7673,-3.8441,-3.8583,-3.7633,-3.7206,-3.676,-3.6265,-3.5612,-3.5247,-3.5247,-3.3839,-3.32,-3.3505,-3.2811,-3.2261,-3.1914,-3.2248,-3.2504,-3.2685,-3.3088,-3.3018,-3.2524,-3.2549,-3.227,-3.1763,-3.1763,-3.1763,-3.1763,-3.1763,-3.1763,-3.1763,-3.1763,-3.1815,-3.1951,-3.2493,-3.2392,-3.2063,-3.2654,-3.1946,-3.0696,-3.0246,-2.9914,-2.946,-2.814,-2.9087,-3.0605,-3.0605,-3.0414,-3.0211,-3.0211,-3.0211,-3.0211,-3.0211,-3.0192,-3.0199,-3.0199,-2.9774,-2.9564,-3.0112,-2.9787,-2.9251,-2.8714,-2.8158,-2.7416,-2.6291,-2.5606,-2.5238,-2.5264,-2.5269,-2.526,-2.5293,-2.533,-2.5398,-2.5492,-2.5501,-2.551,-2.5529,-2.5532,-2.5539,-2.5554,-2.5556,-2.5572,-2.5639,-2.65,-2.7252,-2.7893,-2.8752,-2.8889,-2.8264,-2.68,-2.5961,-2.9543,-3.0485,-3.1099,-3.147,-3.0382,-2.9464,-3.0304,-2.9319,-2.8454,-2.9334,-3.055,-3.1401,-3.1401,-3.1811,-3.2353,-3.3006,-3.3108,-3.3571,-3.4825,-3.5825,-3.6722,-3.7653,-3.7778,-3.7709,-3.7514,-3.6593,-3.5942,-3.5811,-3.5192,-3.4851,-3.4899,-3.3491,-3.2796,-3.3079,-3.2089,-3.1536,-3.1471,-3.1751,-3.1864,-3.181,-3.2593,-3.2419,-3.1469,-3.1939,-3.1735,-3.0998,-3.0998,-3.0998,0.0,-3.0998,-3.0998,-3.0998,-3.0998,-3.0998,-3.1057,-3.156,-3.1564,-3.1334,-3.1567,-3.1125,-3.0288,-2.9283,-2.8605,-2.8169,-2.8113,-2.8812,-2.9708,-3.0102,-3.0211,-3.0211,-3.0211,-3.0211,-3.0211,-3.0211,-3.0211,-3.0211,-3.0211,-2.9804,-2.9607,-3.0098,-2.9793,-2.9347,-2.9015,-2.8294,-2.7477,-2.6627,-2.5757,-2.5217,-2.5228,-2.5233,-2.5243,-2.5243,-2.5273,-2.5322,-2.541,-2.5421,-2.5432,-2.5463,-2.5463,-2.5476,-2.5501,-2.5501,-2.5521,-2.5554,-2.6418,-2.7154,-2.7745,-2.8636,-2.8622,-2.7743,-2.668,-2.6019,0.0,-3.0799,-3.1782,-3.1825,-3.094,-3.0085,-3.0251,-2.9673,0.0,-2.9404,-3.0441,-3.1288,-3.1332,-3.1414,-3.1741,-3.2495,-3.2539,-3.2954,-3.4289,-3.5644,-3.6919,-3.8076,-3.7178,-3.669,-3.7227,-3.564,-3.4906,-3.572,-3.507,-3.4673,-3.4793,-3.3408,-3.2613,-3.2613,-3.1255,-3.0679,-3.1064,-3.1083,-3.0963,-3.0751,-3.1793,-3.1585,-3.03,-3.1401,-3.1484,-3.0794,-3.0822,-3.0822,-3.0822,-3.0822,-3.0822,-3.0822,-3.0822,-3.0822,-3.0853,-3.0889,-3.0889,-3.0745,-3.0109,-2.9826,-2.9526,-2.8213,-2.6842,-2.617,-2.8708,-2.9055,-2.8814,-2.9887,-3.0171,-3.0178,-3.0204,-3.0178,-3.0171,-3.0171,-3.0164,-3.0157,-3.0157,-3.0157,-3.0157,-3.0157,-3.0157,-2.9909,-2.9107,-2.8312,-2.7523,-2.6783,-2.5874,-2.5313,-2.5372,-2.534,-2.5298,-2.5298,-2.5298,-2.5298,-2.5298,-2.5303,-2.5327,-2.5394,-2.5383,-2.5418,-2.5486,-2.5489,-2.5489,-2.5495,-2.6345,-2.6837,-2.6895,-2.7705,-2.7686,-2.6889,-2.6883,-2.6464,-2.951,0.0,-2.9728,-3.0196,-2.9803,-2.9497,0.0,-2.9597,-2.9253,-2.9813,-3.0573,-3.1292,-3.1747,-3.1559,-3.1856,-3.3456,-3.3053,-3.31,-3.4899,-3.6322,-3.6918,-3.6258,-3.6727,-3.6567,-3.5251,-3.516,-3.5272,-3.5477,-3.4471,-3.3874,-3.3898,-3.2596,-3.1846,-3.1846,-3.0969,-3.0568,-3.0654,-3.0945,-3.0792,-3.0195,-3.0854,-3.0383,-2.8963,-2.96,-2.9451,-2.8719,-2.9038,-2.9161,-2.9161,-2.9161,-2.9161,-2.9161,-2.9161,-2.9161,-2.9233,-2.9857,-2.9681,-2.9215,-2.9671,-2.9043,-2.7924,-2.7042,-2.5731,-2.4976,-2.7583,-2.7942,-2.7821,-2.9496,-2.998,-3.0011,-3.0157,-3.0098,-2.998,-2.998,-2.9836,-2.9742,-2.9742,-2.9742,-2.9742,-2.9742,-2.9742,-2.9729,-2.9663,-2.8966,-2.8384,-2.8338,-2.7064,-2.6121,-2.6146,-2.5602,-2.5231,-2.5231,-2.5228,-2.522,-2.522,-2.5273,-2.5317,-2.5322,-2.5322,-2.5331,-2.5359,-2.5359,-2.5374,-2.5418,-2.6321,-2.7128,-2.7792,-2.7357,-2.7012,-2.6818,-2.6164,-2.5739,-2.9167,-2.9411,-2.9642,-2.9699,-2.9732,-2.9766,-2.9915,-2.9643,-2.9456,-2.9858,-3.0261,-3.0603,-3.0945,-3.1177,-3.1737,-3.3048,-3.3111,-3.3425,-3.4767,-3.56,-3.5922,-3.5494,-3.5452,-3.5278,-3.4819,-3.4494,-3.4364,-3.4381,-3.3492,-3.2994,-3.3093,-3.2122,-3.1571,-3.1598,-3.0555,-3.0158,-3.0506,-3.0386,-2.997,-2.9271,-2.9719,-2.9145,-2.7751,-2.8508,-2.8458,-2.7794,-2.8165,-2.8344,-2.8378,-2.8531,-2.8382,-2.8093,-2.8455,-2.8382,-2.8093,-2.854,-2.8431,-2.8057,-2.8123,-2.7369,-2.6424,-2.6818,-2.564,-2.4606,-2.7553,-2.7717,-2.728,-2.921,-2.9751,-2.9796,-2.9905,-2.9836,-2.9751,-2.9751,-2.9681,-2.9608,-2.9608,-2.9608,-2.9608,-2.9608,-2.9608,-2.9635,-2.9734,-2.9034,-2.8518,-2.8726,-2.7361,-2.6346,-2.6434,-2.5711,-2.5206,-2.5206,-2.5204,-2.519,-2.519,-2.5228,-2.5253,-2.5253,-2.5283,-2.5307,-2.5307,-2.5298,-2.5313,-2.5348,-2.5851,-2.6343,-2.6812,-2.6361,-2.6162,-2.6146,-2.5706,-2.5501,-2.8788,-2.9588,-3.0343,-2.9757,-3.0066,-3.0361,-2.9871,-2.9682,-2.9634,-2.9761,-2.9761,-2.9848,-3.0032,-3.0708,-3.1516,-3.2414,-3.322,-3.3932,-3.4468,-3.4607,-3.4723,-3.4936,-3.4072,-3.3736,-3.4378,-3.3637,-3.308,-3.3014,-3.229,-3.1932,-3.2103,-3.1512,-3.1198,-3.1246,-3.0059,-2.9694,-3.0323,-2.9595,-2.8953,-2.8392,-2.8568,-2.7958,-2.6742,-2.777,-2.7941,-2.7404,-2.7765,-2.7925,-2.7924,-2.8355,-2.8019,-2.7296,-2.8093,-2.793,-2.7224,-2.7224,-2.7224,-2.7115,-2.6427,-2.5679,-2.5237,-2.6729,-2.5754,-2.4545,-2.7519,-2.7581,-2.699,-2.8809,-2.9448,-2.957,-2.9598,-2.958,-2.9542,-2.9542,-2.9532,-2.9513,-2.9513,-2.9513,-2.9513,-2.9513,-2.9513,-2.9523,-2.9551,-2.8933,-2.8481,-2.8564,-2.7297,-2.6346,-2.6409,-2.5663,-2.5126,-2.5126,-2.5126,-2.5132,-2.5149,-2.5154,-2.516,-2.5201,-2.5247,-2.5282,-2.5282,-2.5283,-2.5274,-2.5274,-2.5274,-2.5274,-2.5274,-2.5344,-2.5363,-2.5386,-2.5439,-2.547,-2.8422,-2.9588,-3.0343,-2.9757,-3.0066,-3.0361,-2.9774,-2.9602,-2.9602,-2.9634,-2.9634,-2.9974,-3.1193,-3.1101,-3.1482,-3.3359,-3.4334,-3.4943,-3.5203,-3.5247,-3.4694,-3.3122,-3.3675,-3.3318,-3.1249,-3.2274,-3.2862,-3.223,-3.104,-3.0359,-3.0386,-2.9913,-2.9642,-2.9642,-2.9492,-2.9446,-2.9562,-2.8887,-2.8508,-2.8392,-2.7821,-2.7108,-2.631,-2.6826,-2.6992,-2.6922,-2.7376,-2.7363,-2.7068,-2.7848,-2.7476,-2.6464,-2.726,-2.7079,-2.6373,-2.6373,-2.6373,-2.6367,-2.6228,-2.5679,-2.5045,-2.5302,-2.4761,-2.4225,-2.5421,-2.6161,-2.6806,-2.7811,-2.869,-2.9385,-2.9561,-2.9465,-2.9345,-2.9345,-2.9217,-2.91,-2.91,-2.91,-2.91,-2.91,-2.91,-2.9149,-2.9314,-2.9233,-2.8977,-2.8506,-2.7593,-2.6736,-2.6076,-2.5277,-2.4779,-2.4779,-2.4779,-2.4811,-2.4942,-2.4955,-2.5025,-2.5197,-2.5209,-2.5217,-2.5217,-2.5222,-2.5222,-2.5222,-2.5222,-2.5222,-2.5222,-2.5224,-2.5259,-2.5322,-2.5337,-2.5337,-2.7523,-2.883,-2.9968,-2.9673,-3.0333,-3.0797,-2.9827,-2.9602,-2.9602,-2.9602,-2.9602,-2.9915,-3.088,-3.1189,-3.1777,-3.3269,-3.391,-3.4009,-3.3385,-3.3031,-3.2587,-3.2018,-3.185,-3.1547,-3.0946,-3.1017,-3.1077,-3.0982,-2.9701,-2.907,-2.9442,-2.8866,-2.8599,-2.8698,-2.8359,-2.8381,-2.8853,-2.776,-2.7396,-2.7796,-2.7066,-2.6535,-2.622,-2.6399,-2.6487,-2.6539,-2.6526,-2.6474,-2.6397,-2.6667,-2.622,-2.5433,-2.6381,-2.6258,-2.5552,-2.5552,-2.528,-2.49,-2.49,-2.4664,-2.444,-2.4896,-2.4551,-2.4275,-2.5972,-2.6491,-2.6765,-2.8043,-2.8743,-2.9171,-2.9249,-2.9214,-2.9138,-2.9138,-2.9067,-2.9005,-2.9005,-2.9005,-2.9005,-2.9005,-2.9005,-2.9021,-2.9127,-2.9138,-2.8929,-2.8324,-2.7503,-2.669,-2.5981,-2.5203,-2.47,-2.47,-2.47,-2.4712,-2.4794,-2.4794,-2.4907,-2.5178,-2.5198,-2.5195,-2.5192,-2.5192,-2.5192,-2.5192,-2.5192,-2.5192,-2.5192,-2.5192,-2.5217,-2.5252,-2.5252,-2.5257,-2.6554,-2.786,-2.9181,-2.9181,-3.0122,-3.0881,-3.0207,-2.9813,-2.9687,-2.9982,-2.9926,-3.001,-3.066,-3.141,-3.2146,-3.2819,-3.3157,-3.2966,-3.1886,-3.1192,-3.0938,-3.1248,-3.0406,-3.0063,-3.0658,-2.992,-2.9428,-2.9462,-2.8315,-2.7819,-2.8262,-2.779,-2.7606,-2.7862,-2.7356,-2.7413,-2.8089,-2.6813,-2.655,-2.7282,-2.6551,-2.6202,-2.6202,-2.6202,-2.6139,-2.5995,-2.5697,-2.5514,-2.5388,-2.5456,-2.4964,-2.4289,-2.5374,-2.5369,-2.4719,-2.4719,-2.432,-2.3806,-2.3806,-2.3806,-2.3914,-2.4573,-2.4395,-2.4288,-2.6388,-2.6592,-2.6425,-2.7901,-2.8507,-2.8737,-2.895,-2.8858,-2.8767,-2.8968,-2.9005,-2.9005,-2.9005,-2.9005,-2.9005,-2.9005,-2.9005,-2.9005,-2.9005,-2.9005,-2.878,-2.8143,-2.7301,-2.6516,-2.5867,-2.5082,-2.4588,-2.4588,-2.4588,-2.4604,-2.4626,-2.4665,-2.4808,-2.5075,-2.5075,-2.5099,-2.5126,-2.5132,-2.5143,-2.5195,-2.5195,-2.5195,-2.5195,-2.5195,-2.5195,-2.5201,-2.5201,-2.5206,-2.5809,-2.6919,-2.7932,-2.7932,-2.883,-3.0024,-3.1106,-3.0445,-2.994,-3.112,-3.0881,-3.0674,-3.1457,-3.2174,-3.2496,-3.2139,-3.2573,-3.2815,-3.2478,-3.1843,-3.1235,-3.073,-3.0524,-2.9993,-2.8813,-2.9129,-2.891,-2.7697,-2.6871,-2.6358,-2.6233,-2.6293,-2.6483,-2.6896,-2.6976,-2.7068,-2.7196,-2.6405,-2.6444,-2.7282,-2.6551,-2.6202,-2.6202,-2.6202,-2.5839,-2.5194,-2.5213,-2.4622,-2.366,-2.4438,-2.4033,-2.3042,-2.4181,-2.4322,-2.3896,-2.3896,-2.385,-2.3806,-2.3806,-2.3806,-2.3806,-2.3878,-2.3891,-2.406,-2.5005,-2.5274,-2.5473,-2.6341,-2.7163,-2.7988,-2.8792,-2.8448,-2.8062,-2.8822,-2.9005,-2.9005,-2.9005,-2.9005,-2.9005,-2.9005,-2.9005,-2.9005,-2.9005,-2.9005,-2.8741,-2.7938,-2.7129,-2.6332,-2.5535,-2.4734,-2.4237,-2.4237,-2.4237,-2.4294,-2.4398,-2.4602,-2.4715,-2.4719,-2.4746,-2.4794,-2.4922,-2.4929,-2.5013,-2.5197,-2.5197,-2.5197,-2.5197,-2.5197,-2.5189,-2.5193,-2.5193,-2.5209,-2.5189,-2.6835,-2.818,-2.7375,-2.7795,-2.8744,-3.0013,-2.9954,-2.9855,-3.0712,-3.1021,-3.111,-3.096,-3.1584,-3.1768,-3.0796,-3.1261,-3.1604,-3.1068,-3.0544,-3.0099,-2.9883,-2.9229,-2.8561,-2.805,-2.7476,-2.7081,-2.6925,-2.5871,-2.5345,-2.5565,-2.5217,-2.5228,-2.5725,-2.5799,-2.601,-2.642,-2.614,-2.6211,-2.6617,-2.6336,-2.6202,-2.6169,-2.5722,-2.5358,-2.506,-2.4165,-2.353,-2.3162,-2.3192,-2.2949,-2.2612,-2.3268,-2.349,-2.35,-2.358,-2.3689,-2.3806,-2.3806,-2.3806,-2.3806,-2.3806,-2.3816,-2.399,-2.4788,-2.5397,-2.6,-2.6857,-2.7316,-2.7679,-2.8075,-2.837,-2.862,-2.8932,-2.9005,-2.9005,-2.9005,-2.9005,-2.9005,-2.9005,-2.9005,-2.9005,-2.9005,-2.9005,-2.8565,-2.7255,-2.6796,-2.6135,-2.4824,-2.4392,-2.419,-2.419,-2.419,-2.4228,-2.4266,-2.4358,-2.4393,-2.4393,-2.4588,-2.4712,-2.4772,-2.4779,-2.4808,-2.4884,-2.4961,-2.5006,-2.5006,-2.5646,-2.5627,-2.5025,-2.5577,-2.5526,-2.4542,-2.5924,-2.709,-2.6622,-2.6966,-2.7845,-2.9488,-2.9586,-2.9662,-3.0844,-3.1316,-3.1232,-3.0389,-3.0837,-3.0863,-2.9468,-3.0059,-3.0409,-2.9625,-2.9214,-2.8872,-2.8512,-2.7963,-2.7482,-2.7076,-2.6289,-2.5867,-2.6016,-2.5008,-2.4485,-2.475,-2.4322,-2.4307,-2.4815,-2.4974,-2.5266,-2.5717,-2.5846,-2.599,-2.615,-2.615,-2.6168,-2.6169,-2.5441,-2.4978,-2.4679,-2.3437,-2.2789,-2.26,-2.2255,-2.2234,-2.2395,-2.2617,-2.291,-2.3206,-2.337,-2.3547,-2.371,-2.3774,-2.3806,-2.3806,-2.3806,-2.3806,-2.394,-2.4755,-2.5389,-2.5998,-2.6842,-2.7301,-2.7524,-2.7611,-2.8089,-2.8629,-2.8897,-2.8964,-2.8964,-2.8994,-2.9005,-2.9005,-2.9005,-2.9005,-2.9005,-2.9005,-2.8785,-2.8253,-2.7145,-2.6557,-2.5823,-2.4732,-2.4355,-2.419,-2.419,-2.419,-2.419,-2.419,-2.419,-2.419,-2.419,-2.442,-2.4572,-2.4602,-2.461,-2.4634,-2.47,-2.4794,-2.4832,-2.4832,-2.5523,-2.5504,-2.4851,-2.5444,-2.5399,-2.3923,-2.4046,-2.4314,-2.5576,-2.6337,-2.7448,-2.9875,-2.9532,-2.9388,-3.1856,-3.1893,-3.1078,-2.9827,-3.0048,-2.9915,-2.8264,-2.8987,-2.9399,-2.8354,-2.8197,-2.774,-2.6551,-2.7046,-2.6985,-2.5715,-2.5713,-2.5502,-2.4853,-2.4239,-2.3793,-2.3596,-2.3595,-2.3824,-2.4281,-2.4664,-2.4942,-2.5091,-2.5478,-2.5777,-2.5992,-2.5975,-2.6063,-2.6169,-2.5424,-2.4696,-2.3967,-2.3205,-2.2492,-2.1812,-2.1812,-2.1998,-2.2303,-2.2303,-2.2538,-2.2935,-2.3189,-2.3382,-2.352,-2.3721,-2.3795,-2.3795,-2.3795,-2.3795,-2.394,-2.4737,-2.499,-2.5172,-2.5957,-2.6812,-2.7488,-2.7506,-2.7541,-2.7818,-2.8692,-2.8905,-2.8917,-2.8975,-2.8987,-2.8987,-2.8987,-2.8987,-2.8987,-2.8987,-2.8319,-2.7769,-2.778,-2.6421,-2.5393,-2.5393,-2.4695,-2.419,-2.419,-2.419,-2.419,-2.419,-2.419,-2.419,-2.419,-2.419,-2.4266,-2.4389,-2.4398,-2.4493,-2.4692,-2.47,-2.47,-2.4718,-2.4718,-2.4718,-2.4718,-2.4737,-2.4718,-2.409,-2.4984,-2.5727,-2.4728,-2.5301,-2.6245,-2.6922,-2.7904,-2.8792,-2.9059,-2.8563,-2.8015,-2.7697,-2.7789,-2.7718,-2.7242,-2.785,-2.8272,-2.7964,-2.7598,-2.7201,-2.686,-2.6356,-2.5864,-2.5492,-2.4782,-2.425,-2.4038,-2.3502,-2.3182,-2.3112,-2.3098,-2.3319,-2.3803,-2.3472,-2.3864,-2.5091,-2.4289,-2.4303,-2.5146,-2.4672,-2.5071,-2.6152,-2.4911,-2.4216,-2.3934,-2.2659,-2.2011,-2.1812,-2.1812,-2.1855,-2.1955,-2.2013,-2.2206,-2.2485,-2.2617,-2.2835,-2.3087,-2.3159,-2.3236,-2.3318,-2.3318,-2.3318,-2.3354,-2.3584,-2.4058,-2.4592,-2.4974,-2.5674,-2.6477,-2.7242,-2.7435,-2.7689,-2.8609,-2.8834,-2.8688,-2.8127,-2.8456,-2.8529,-2.739,-2.7627,-2.7846,-2.7262,-2.6969,-2.6644,-2.612,-2.5635,-2.5132,-2.4612,-2.4337,-2.419,-2.419,-2.419,-2.419,-2.419,-2.419,-2.419,-2.419,-2.419,-2.4218,-2.4266,-2.4266,-2.4294,-2.4348,-2.4444,-2.4764,-2.5324,-2.6041,-2.6022,-2.5362,-2.6544,-2.6451,-2.3482,-2.43,-2.5081,-2.4176,-2.5025,-2.6057,-2.5971,-2.7157,-2.821,-2.806,-2.7348,-2.6662,-2.647,-2.6425,-2.629,-2.5773,-2.6257,-2.6591,-2.634,-2.5994,-2.5715,-2.5468,-2.5145,-2.4864,-2.4593,-2.4003,-2.3617,-2.3617,-2.3149,-2.2872,-2.2872,-2.288,-2.2929,-2.2957,-2.2739,-2.2965,-2.3748,-2.3257,-2.3394,-2.4131,-2.3846,-2.4261,-2.5205,-2.405,-2.3521,-2.3455,-2.2311,-2.1812,-2.1812,-2.1812,-2.1812,-2.1796,-2.184,-2.1984,-2.215,-2.2317,-2.2516,-2.2721,-2.286,-2.2952,-2.3037,-2.3079,-2.3091,-2.3091,-2.3091,-2.3648,-2.4332,-2.4447,-2.5047,-2.5796,-2.6448,-2.6611,-2.6973,-2.8427,-2.8657,-2.8449,-2.7967,-2.7941,-2.7722,-2.676,-2.67,-2.6658,-2.617,-2.5815,-2.5448,-2.5012,-2.4679,-2.4299,-2.385,-2.3896,-2.3917,-2.3816,-2.3996,-2.4084,-2.3976,-2.4064,-2.4123,-2.4161,-2.4161,-2.417,-2.419,-2.419,-2.419,-2.419,-2.4275,-2.4552,-2.5042,-2.5977,-2.6117,-2.5541,-2.6881,-2.6955,-2.2564,-2.2709,-2.3184,-2.3868,-2.5224,-2.638,-2.638,-2.6836,-2.7391,-2.7894,-2.7223,-2.6347,-2.5751,-2.5594,-2.5227,-2.4161,-2.4429,-2.4569,-2.3998,-2.3892,-2.3674,-2.3111,-2.367,-2.3868,-2.3275,-2.3321,-2.3412,-2.3412,-2.3005,-2.2772,-2.2772,-2.2849,-2.2613,-2.1997,-2.2298,-2.2218,-2.1689,-2.2341,-2.2762,-2.2984,-2.3267,-2.3438,-2.3555,-2.3046,-2.2748,-2.2665,-2.2049,-2.1812,-2.1812,-2.1812,-2.1812,-2.1812,-2.1812,-2.184,-2.1911,-2.2164,-2.2303,-2.2409,-2.2708,-2.2822,-2.2865,-2.2993,-2.3017,-2.3035,-2.3035,-2.3538,-2.4125,-2.415,-2.4638,-2.5178,-2.5275,-2.5306,-2.5822,-2.7909,-2.8229,-2.8063,-2.8125,-2.7415,-2.6743,-2.6601,-2.5972,-2.5448,-2.5377,-2.4766,-2.4281,-2.4293,-2.3661,-2.32,-2.32,-2.3414,-2.3459,-2.3242,-2.3649,-2.3827,-2.3577,-2.3795,-2.3947,-2.4006,-2.4036,-2.4084,-2.4151,-2.418,-2.4226,-2.43,-2.43,-2.4373,-2.452,-2.5264,-2.5613,-2.5631,-2.6447,-2.6767,-2.3638,-2.3318,-2.3296,-2.4151,-2.4993,-2.5546,-2.5546,-2.5086,-2.4534,-2.4247,-2.4312,-2.4303,-2.3781,-2.3357,-2.3275,-2.3907,-2.345,-2.3114,-2.3341,-2.3053,-2.2764,-2.2644,-2.2686,-2.2681,-2.2544,-2.259,-2.2639,-2.2639,-2.264,-2.2638,-2.2638,-2.2758,-2.2515,-2.1852,-2.153,-2.1447,-2.1689,-2.1087,-2.1216,-2.208,-2.1891,-2.181,-2.1859,-2.2442,-2.2438,-2.1924,-2.1834,-2.1812,-2.1812,-2.1812,-2.1812,-2.1812,-2.1812,-2.1796,-2.1825,-2.1899,-2.1955,-2.201,-2.2096,-2.2229,-2.236,-2.2374,-2.2432,-2.247,-2.247,-2.259,-2.2764,-2.2976,-2.3163,-2.3471,-2.4313,-2.4536,-2.4803,-2.5865,-2.6538,-2.6929,-2.6898,-2.6764,-2.6278,-2.4989,-2.4672,-2.438,-2.3751,-2.3492,-2.3381,-2.3382,-2.3271,-2.32,-2.32,-2.3247,-2.3259,-2.32,-2.3294,-2.3357,-2.33,-2.3346,-2.338,-2.3392,-2.3588,-2.3714,-2.3724,-2.4026,-2.4511,-2.5136,-2.5136,-2.576,-2.7027,-2.721,-2.7284,-2.7302,-2.8106,-2.8143,-2.297,-2.306,-2.3662,-2.4626,-2.5107,-2.524,-2.4987,-2.4518,-2.3917,-2.3168,-2.3035,-2.3047,-2.3052,-2.24,-2.2063,-2.2673,-2.2106,-2.1675,-2.1911,-2.1749,-2.1586,-2.1577,-2.1532,-2.1497,-2.1497,-2.1756,-2.1926,-2.1926,-2.2278,-2.2486,-2.2486,-2.2629,-2.229,-2.1348,-2.1051,-2.0759,-2.0459,-2.0128,-2.0235,-2.0802,-2.0985,-2.1055,-2.1087,-2.1761,-2.1949,-2.1709,-2.1738,-2.1768,-2.1812,-2.1812,-2.1812,-2.1812,-2.1812,-2.1812,-2.1812,-2.1812,-2.1811,-2.1855,-2.1899,-2.1974,-2.2063,-2.2168,-2.2211,-2.2254,-2.2282,-2.2296,-2.2338,-2.2474,-2.2515,-2.2641,-2.3208,-2.3335,-2.3525,-2.4265,-2.542,-2.6237,-2.5857,-2.5687,-2.5239,-2.4054,-2.3549,-2.3214,-2.279,-2.2721,-2.2717,-2.2725,-2.2747,-2.276,-2.276,-2.2875,-2.2913,-2.2773,-2.3012,-2.3092,-2.2975,-2.3086,-2.3147,-2.3153,-2.3271,-2.338,-2.3403,-2.3599,-2.4037,-2.4726,-2.4736,-2.533,-2.6556,-2.694,-2.7153,-2.7222,-2.8402,-2.8542,-2.2245,-2.2782,-2.3996,-2.4814,-2.5035,-2.4927,-2.4494,-2.4326,-2.4037,-2.328,-2.2702,-2.2402,-2.2666,-2.1921,-2.1272,-2.1272,-2.0742,-2.037,-2.0447,-2.0378,-2.0313,-2.0309,-2.0409,-2.0459,-2.0459,-2.1044,-2.1399,-2.1399,-2.1996,-2.2328,-2.2215,-2.2329,-2.1848,-2.0624,-2.0623,-2.0142,-1.9078,-1.949,-1.9708,-1.9708,-2.0376,-2.0696,-2.0712,-2.1039,-2.134,-2.1572,-2.1664,-2.1723,-2.1766,-2.1797,-2.1812,-2.1812,-2.1812,-2.1812,-2.1812,-2.1812,-2.1812,-2.1796,-2.1869,-2.1899,-2.1928,-2.2094,-2.2154,-2.2183,-2.2254,-2.2282,-2.2282,-2.2296,-2.2381,-2.2448,-2.233,-2.2381,-2.2615,-2.3105,-2.4447,-2.5513,-2.5013,-2.4688,-2.4271,-2.3528,-2.2801,-2.2296,-2.2296,-2.2296,-2.2296,-2.2296,-2.2296,-2.2296,-2.2296,-2.2501,-2.2555,-2.2324,-2.2694,-2.2871,-2.2646,-2.282,-2.2968,-2.2965,-2.3002,-2.3103,-2.3293,-2.3341,-2.3583,-2.4023,-2.4055,-2.4464,-2.5263,-2.5928,-2.6311,-2.6443,-2.7921,-2.8223,-2.358,-2.3688,-2.3845,-2.395,-2.4011,-2.3986,-2.3914,-2.3541,-2.328,-2.3637,-2.3276,-2.2618,-2.1765,-2.1127,-2.0718,-2.0718,-1.9865,-1.9375,-1.983,-1.9519,-1.9218,-1.9198,-1.9618,-1.9901,-1.9901,-2.0809,-2.1399,-2.1399,-2.1926,-2.1992,-2.1479,-2.1569,-2.1082,-1.9804,-1.9936,-1.9704,-1.9012,-1.9472,-1.9708,-1.9693,-2.0102,-2.0277,-2.0277,-2.0345,-2.0598,-2.1023,-2.1495,-2.1709,-2.1708,-2.1783,-2.1812,-2.1812,-2.1812,-2.1812,-2.1812,-2.1812,-2.1812,-2.1812,-2.1796,-2.1855,-2.1913,-2.1928,-2.1986,-2.2044,-2.2183,-2.2197,-2.2228,-2.2282,-2.2767,-2.3105,-2.2465,-2.2784,-2.3122,-2.2581,-2.3117,-2.3907,-2.4465,-2.4521,-2.4271,-2.3528,-2.2801,-2.2296,-2.2296,-2.2296,-2.2296,-2.2296,-2.2296,-2.2296,-2.2296,-2.2338,-2.2338,-2.231,-2.2363,-2.2391,-2.2366,-2.2377,-2.2405,-2.2419,-2.2615,-2.3037,-2.3694,-2.3938,-2.4093,-2.4169,-2.4282,-2.4753,-2.5544,-2.5663,-2.5828,-2.6086,-2.7007,-2.7133,-2.3623,-2.3413,-2.3433,-2.3734,-2.3806,-2.3722,-2.3433,-2.318,-2.2999,-2.2939,-2.2734,-2.2486,-2.2318,-2.1368,-2.0581,-2.0581,-1.9708,-1.9071,-1.9338,-1.9143,-1.8987,-1.8987,-1.9225,-1.9344,-1.9344,-2.0055,-2.0635,-2.0932,-2.1458,-2.1625,-2.1322,-2.1375,-2.0832,-1.9636,-1.9695,-1.9495,-1.8993,-1.9205,-1.945,-1.9708,-1.9854,-1.9909,-1.9927,-2.0104,-2.0464,-2.091,-2.1151,-2.1417,-2.1709,-2.1723,-2.1768,-2.1812,-2.1812,-2.1812,-2.1812,-2.1812,-2.1812,-2.1812,-2.1812,-2.1811,-2.1855,-2.1899,-2.1911,-2.1955,-2.2061,-2.2092,-2.2204,-2.2714,-2.2811,-2.276,-2.2871,-2.3156,-2.3207,-2.2482,-2.3479,-2.4374,-2.346,-2.3594,-2.3678,-2.2936,-2.2516,-2.2296,-2.2296,-2.2296,-2.2296,-2.2296,-2.2296,-2.2296,-2.2296,-2.2296,-2.2296,-2.2296,-2.2296,-2.2465,-2.2885,-2.2919,-2.2919,-2.2919,-2.3031,-2.3036,-2.2951,-2.3076,-2.3333,-2.3746,-2.451,-2.4892,-2.4868,-2.5283,-2.5561,-2.5689,-2.6529,-2.679,-2.3319,-2.2921,-2.2935,-2.33,-2.3396,-2.33,-2.2903,-2.2787,-2.2666,-2.227,-2.2197,-2.2306,-2.2702,-2.1704,-2.0779,-2.0605,-1.9817,-1.9191,-1.9191,-1.9083,-1.8987,-1.8987,-1.8987,-1.8987,-1.8987,-1.95,-1.9978,-2.0384,-2.1019,-2.124,-2.0896,-2.1002,-2.0527,-1.9369,-1.9347,-1.9239,-1.8941,-1.8998,-1.9191,-1.9545,-1.9545,-1.9545,-1.9563,-1.9803,-2.0156,-2.0614,-2.0812,-2.1135,-2.151,-2.1632,-2.1723,-2.1783,-2.1781,-2.1812,-2.1812,-2.1812,-2.1812,-2.1812,-2.1812,-2.1812,-2.1796,-2.1855,-2.1884,-2.1899,-2.1955,-2.2118,-2.2385,-2.3061,-2.3111,-2.3093,-2.3536,-2.365,-2.3465,-2.2753,-2.3849,-2.4644,-2.319,-2.3004,-2.297,-2.2398,-2.2296,-2.2296,-2.2296,-2.2462,-2.2516,-2.233,-2.2448,-2.2499,-2.2313,-2.2448,-2.2581,-2.2581,-2.275,-2.3004,-2.3359,-2.3393,-2.3325,-2.3122,-2.3122,-2.297,-2.2584,-2.2581,-2.2835,-2.3376,-2.4703,-2.5049,-2.4352,-2.4899,-2.522,-2.5281,-2.6156,-2.6462,-2.283,-2.2438,-2.2407,-2.2301,-2.227,-2.227,-2.2246,-2.2234,-2.2221,-2.2197,-2.2197,-2.2197,-2.2234,-2.1765,-2.1199,-2.0665,-2.0117,-1.9772,-1.9772,-1.9338,-1.8987,-1.8987,-1.8987,-1.8987,-1.8987,-1.95,-1.9798,-1.9824,-2.0809,-2.0884,-1.9754,-2.0168,-1.9866,-1.8602,-1.8676,-1.8778,-1.8803,-1.9007,-1.9101,-1.9139,-1.9139,-1.9139,-1.9139,-1.9157,-1.938,-1.98,-2.058,-2.091,-2.0974,-2.1495,-2.1709,-2.1724,-2.1783,-2.1812,-2.1812,-2.1812,-2.1812,-2.1812,-2.1812,-2.1812,-2.1812,-2.1796,-2.1812,-2.1811,-2.1868,-2.2397,-2.2963,-2.3073,-2.4092,-2.5012,-2.4488,-2.4351,-2.4181,-2.3496,-2.3427,-2.3663,-2.4254,-2.3308,-2.2347,-2.2296,-2.2296,-2.2296,-2.2296,-2.2885,-2.3105,-2.2398,-2.2902,-2.3088,-2.2381,-2.2919,-2.3342,-2.3342,-2.3966,-2.4118,-2.346,-2.3393,-2.3105,-2.2398,-2.2347,-2.2649,-2.3308,-2.3342,-2.3359,-2.3393,-2.4845,-2.5216,-2.4486,-2.4535,-2.4671,-2.4936,-2.5757,-2.5869,-2.3065,-2.2574,-2.2389,-2.2328,-2.2247,-2.2197,-2.2197,-2.2197,-2.2197,-2.2197,-2.2197,-2.2197,-2.2197,-2.1765,-2.1344,-2.1151,-2.037,-1.9808,-1.9808,-1.9351,-1.8987,-1.8987,-1.8987,-1.8987,-1.8987,-1.9172,-1.9422,-1.9773,-2.0156,-2.0137,-1.9624,-1.977,-1.9459,-1.854,-1.8556,-1.8639,-1.8803,-1.8965,-1.9074,-1.9101,-1.9101,-1.9101,-1.9101,-1.9101,-1.9176,-1.9362,-1.9892,-2.0277,-2.0549,-2.1055,-2.1292,-2.1354,-2.1676,-2.1812,-2.1812,-2.1812,-2.1812,-2.1812,-2.1812,-2.1812,-2.1812,-2.1812,-2.1812,-2.1796,-2.1825,-2.2008,-2.2438,-2.3463,-2.3779,-2.3995,-2.4777,-2.4978,-2.5061,-2.5329,-2.4623,-2.4135,-2.4971,-2.4022,-2.2868,-2.2381,-2.2296,-2.2448,-2.2919,-2.3224,-2.346,-2.3678,-2.3949,-2.4017,-2.3763,-2.3528,-2.3393,-2.3393,-2.3207,-2.3173,-2.3376,-2.3393,-2.3291,-2.3021,-2.3444,-2.3613,-2.341,-2.3393,-2.3849,-2.4797,-2.4864,-2.4541,-2.3814,-2.4746,-2.5266,-2.536,-2.5631,-2.5932,-2.356,-2.3035,-2.2793,-2.2482,-2.2328,-2.2247,-2.2228,-2.2197,-2.2197,-2.2197,-2.2197,-2.2197,-2.2197,-2.1909,-2.1668,-2.1668,-2.0783,-2.0073,-2.0073,-1.9459,-1.8987,-1.8987,-1.9143,-1.9191,-1.9011,-1.9143,-1.934,-1.9512,-1.9708,-1.9747,-1.9644,-1.9598,-1.9254,-1.852,-1.8537,-1.862,-1.876,-1.8922,-1.9017,-1.9059,-1.9082,-1.9101,-1.9101,-1.9101,-1.9101,-1.912,-1.938,-1.9732,-2.0124,-2.0566,-2.0878,-2.1071,-2.1431,-2.1646,-2.1768,-2.1797,-2.1812,-2.1812,-2.1812,-2.1812,-2.1812,-2.1812,-2.1812,-2.1812,-2.1812,-2.1978,-2.2426,-2.3717,-2.3716,-2.3682,-2.5247,-2.548,-2.543,-2.5966,-2.5313,-2.4728,-2.5312,-2.4317,-2.3167,-2.2724,-2.2594,-2.2714,-2.3203,-2.3708,-2.413,-2.4364,-2.4617,-2.4669,-2.4432,-2.418,-2.3944,-2.3691,-2.3472,-2.3352,-2.3363,-2.3351,-2.3264,-2.3038,-2.3699,-2.3784,-2.3054,-2.3274,-2.3748,-2.4492,-2.4508,-2.4254,-2.378,-2.5253,-2.5981,-2.5981,-2.5981,-2.6234,0.0,0.0,0.0,-2.2671,-2.242,-2.2359,-2.2247,-2.2197,-2.2197,-2.2197,-2.2197,-2.2197,-2.2197,-2.2173,-2.2173,-2.2173,-2.1301,-2.0591,-2.0591,-1.9688,-1.8999,-1.9011,-1.9495,-1.9615,-1.9083,-1.9519,-1.9591,-1.9047,-1.9486,-1.9737,-1.969,-1.9627,-1.9275,-1.8548,-1.8648,-1.8692,-1.8692,-1.8898,-1.8993,-1.8993,-1.9078,-1.9101,-1.9101,-1.9101,-1.9101,-1.9101,-1.9101,-1.9325,-1.9711,-2.0124,-2.0515,-2.0893,-2.1039,-2.1338,-2.1693,-2.1768,-2.1812,-2.1812,-2.1797,-2.1781,-2.1812,-2.1797,-2.1781,-2.1812,-2.1812,-2.2294,-2.3023,-2.3785,-2.4,-2.4348,-2.5912,-2.5814,-2.5297,-2.5313,-2.533,-2.533,-2.533,-2.4193,-2.3202,-2.3293,-2.3231,-2.3138,-2.3155,-2.4344,-2.5079,-2.436,-2.4879,-2.5079,-2.436,-2.4879,-2.5029,-2.4277,-2.4878,-2.4776,-2.3409,-2.3231,-2.296,-2.2383,-2.2998,-2.3068,-2.2431,-2.3074,-2.3124,-2.2448,-2.3799,-2.4541,-2.4575,-2.598,-2.6674,-2.6691,-2.6691,-2.6691,-2.4772,0.0,0.0,0.0,0.0,0.0,-2.2359,-2.2278,-2.2197,-2.2197,-2.2197,-2.2197,-2.2197,-2.1873,-2.162,-2.162,-2.1043,-2.0598,-2.0598,-1.9672,-1.9131,-1.9516,-1.9724,-1.9904,-2.0133,-1.9953,-1.9748,-1.9603,-1.9364,-1.9368,-1.9666,-1.9551,-1.9364,-1.9151,-1.8762,-1.8595,-1.8692,-1.8812,-1.8908,-1.8993,-1.9078,-1.9101,-1.9101,-1.9101,-1.9101,-1.9101,-1.9101,-1.9157,-1.9291,-1.9752,-2.0002,-2.0174,-2.0797,-2.1118,-2.1291,-2.1616,-2.1753,-2.1768,-2.1526,-2.1602,-2.1751,-2.1526,-2.1602,-2.1812,-2.1812,-2.1945,-2.2376,-2.3636,-2.4,-2.4332,-2.584,-2.5675,-2.5278,-2.5809,-2.5958,-2.5959,-2.6013,-2.5246,-2.4431,-2.4025,-2.3924,-2.4075,-2.4594,-2.5029,-2.543,-2.5815,-2.605,-2.61,-2.5899,-2.5531,-2.5029,-2.4277,-2.3925,-2.3587,-2.3184,-2.3152,-2.3286,-2.3652,-2.4341,-2.466,-2.4475,-2.4659,-2.496,-2.5329,-2.5162,-2.5379,-2.6017,-2.5948,-2.6184,-2.6691,-2.6691,-2.6691,-2.501,-2.4368,-2.3749,-2.3774,0.0,0.0,-2.2556,-2.2416,-2.2295,-2.2085,-2.2048,-2.196,-2.1674,-2.1361,-2.1126,-2.1079,-2.0622,-2.0273,-2.0273,-1.9528,-1.9134,-1.9447,-1.9853,-2.0069,-1.9953,-2.0061,-1.9953,-1.9507,-1.9194,-1.9214,-1.9666,-1.9795,-1.9732,-1.9404,-1.9073,-1.8804,-1.8629,-1.8716,-1.8812,-1.8908,-1.9003,-1.9078,-1.9101,-1.9101,-1.9101,-1.9101,-1.9101,-1.9101,-1.912,-1.9402,-1.9606,-1.9803,-2.0313,-2.06,-2.0813,-2.1087,-2.1245,-2.1276,-2.1087,-2.1182,-2.1371,-2.1324,-2.1433,-2.1617,-2.1768,-2.1812,-2.2044,-2.3205,-2.3984,-2.4597,-2.5143,-2.5425,-2.5656,-2.6086,-2.6202,-2.6203,-2.6258,-2.5891,-2.5376,-2.4729,-2.4596,-2.4713,-2.5146,-2.5462,-2.5829,-2.6296,-2.6363,-2.6363,-2.6363,-2.5962,-2.5379,-2.4647,-2.418,-2.3813,-2.3543,-2.3496,-2.3616,-2.3934,-2.463,-2.4809,-2.4359,-2.4793,-2.5127,-2.5294,-2.5296,-2.5548,-2.6051,-2.6034,-2.6252,-2.6691,-2.6691,-2.6691,-2.502,-2.4795,-2.4565,-2.4059,-2.379,0.0,-2.2958,-2.2716,-2.2505,-2.2069,-2.1964,-2.1713,-2.1113,-2.0949,-2.0896,-2.0723,-2.0205,-1.9836,-1.9808,-1.9399,-1.9095,-1.9167,-2.0033,-2.0261,-1.9348,-2.0025,-2.0121,-1.9143,-1.9103,-1.9264,-1.9684,-2.0204,-2.0183,-1.9447,-1.9411,-1.9115,-1.8512,-1.8634,-1.8736,-1.8803,-1.8941,-1.9036,-1.9101,-1.9101,-1.9101,-1.9101,-1.9101,-1.9101,-1.9101,-1.9101,-1.9325,-1.9639,-1.9749,-1.9967,-2.0263,-2.0414,-2.0514,-2.058,-2.0563,-2.0646,-2.0827,-2.1103,-2.123,-2.1356,-2.1646,-2.1783,-2.1947,-2.2692,-2.3901,-2.4862,-2.4265,-2.511,-2.6103,-2.6169,-2.6202,-2.6202,-2.6202,-2.615,-2.5952,-2.5344,-2.5193,-2.5141,-2.5141,-2.565,-2.6059,-2.6059,-2.6059,-2.6059,-2.6059,-2.6059,-2.5763,-2.5022,-2.4956,-2.4744,-2.4182,-2.4034,-2.3933,-2.383,-2.4328,-2.4215,-2.3247,-2.417,-2.4432,-2.3829,-2.4862,-2.5414,-2.5414,-2.6185,-2.6573,-2.6539,-2.664,-2.6674,-2.4829,-2.4117,-2.359,-2.4483,-2.3825,0.0,-2.4096,-2.3415,-2.2709,-2.318,-2.2871,-2.2478,-2.237,-2.1984,-2.1631,-2.1442,-2.0673,-2.0068,-1.9836,-1.9724,-1.9793,-2.0249,-2.0461,-2.0694,-2.0911,-2.0334,-1.988,-1.9664,-1.9642,-1.9683,-1.9775,-2.0226,-2.0216,-1.9584,-1.9454,-1.9115,-1.8512,-1.8634,-1.8736,-1.8803,-1.8941,-1.9036,-1.9101,-1.9101,-1.9101,-1.9101,-1.9101,-1.9101,-1.9101,-1.9101,-1.9139,-1.925,-1.9584,-1.9785,-1.9932,-2.0229,-2.0414,-2.0481,-2.0258,-2.0378,-2.0614,-2.0464,-2.0812,-2.1309,-2.1371,-2.1587,-2.1947,-2.2692,-2.3537,-2.4315,-2.4779,-2.511,-2.5457,-2.6053,-2.6202,-2.6202,-2.6202,-2.5901,-2.5598,-2.5473,-2.5438,-2.5419,-2.5419,-2.5268,-2.5153,-2.5153,-2.5153,-2.5153,-2.5153,-2.5153,-2.4882,-2.4127,-2.4047,-2.4147,-2.4395,-2.4058,-2.4209,-2.5068,-2.4946,-2.475,-2.4527,-2.4735,-2.4962,-2.5135,-2.5768,-2.6096,-2.6114,-2.6384,-2.6201,-2.5581,-2.6303,-2.6623,-2.4919,-2.4326,-2.3975,-2.4317,-2.4135,0.0,0.0,-2.4028,-2.3675,-2.3406,-2.3375,-2.3177,-2.2513,-2.2222,-2.1996,-2.1825,-2.0887,-2.0275,-2.0406,-2.0128,-1.9972,-2.0193,-2.0682,-2.0899,-2.0622,-2.0358,-1.9973,-1.9447,-1.9397,-1.9526,-1.9798,-2.0013,-2.0123,-2.0039,-1.9973,-1.9634,-1.8961,-1.9021,-1.8951,-1.8755,-1.8851,-1.8912,-1.8936,-1.9045,-1.9078,-1.9055,-1.9097,-1.9101,-1.9101,-1.9101,-1.9101,-1.912,-1.9325,-1.942,-1.9479,-1.9645,-1.9788,-1.9874,-1.9747,-1.9887,-2.01,-2.0137,-2.0429,-2.0795,-2.099,-2.1293,-2.1638,-2.1999,-2.3012,-2.4083,-2.4464,-2.511,-2.5739,-2.6103,-2.6008,-2.5848,-2.5848,-2.5516,-2.5198,-2.5198,-2.504,-2.4962,-2.516,-2.504,-2.4902,-2.4902,-2.4902,-2.4902,-2.4902,-2.4902,-2.4756,-2.4393,-2.4362,-2.4439,-2.4684,-2.4477,-2.4504,-2.4887,-2.4719,-2.4497,-2.4256,-2.4477,-2.4799,-2.5179,-2.5668,-2.5888,-2.5888,-2.6206,-2.618,-2.5899,-2.6335,-2.6554,-2.5394,-2.4946,-2.4713,-2.4483,-2.4566,-2.4659,0.0,0.0,0.0,-2.3814,-2.3974,-2.3951,-2.2875,-2.2698,-2.2637,-2.2408,-2.1572,-2.1064,-2.1359,-2.0927,-2.0456,-2.0177,-2.0808,-2.0964,-2.0193,-2.0502,-2.0273,-1.9083,-1.9179,-1.9417,-1.963,-1.9747,-1.9976,-2.0331,-2.0448,-2.0151,-1.9404,-1.939,-1.9162,-1.8692,-1.8741,-1.8784,-1.8803,-1.8988,-1.9055,-1.9012,-1.9078,-1.9101,-1.9101,-1.9101,-1.9101,-1.9101,-1.9101,-1.9101,-1.9101,-1.9101,-1.9157,-1.9265,-1.9302,-1.9413,-1.9593,-1.9904,-2.0177,-2.046,-2.0867,-2.1165,-2.1392,-2.1472,-2.2671,-2.3935,-2.3984,-2.5076,-2.6184,-2.6079,-2.5793,-2.5484,-2.5408,-2.5079,-2.4784,-2.4784,-2.4451,-2.4287,-2.4719,-2.4704,-2.4643,-2.4643,-2.4643,-2.4643,-2.4643,-2.4643,-2.4643,-2.4643,-2.4643,-2.4684,-2.4779,-2.4704,-2.4558,-2.4302,-2.4219,-2.3994,-2.3616,-2.4057,-2.4451,-2.4779,-2.5179,-2.5389,-2.5389,-2.5772,-2.6115,-2.6433,-2.638,-2.6381,-2.6505,-2.5558,-2.4971,-2.6042,-2.514,-2.4457,-2.6107,0.0,-2.5024,-2.5486,0.0,-2.4845,-2.4694,0.0,0.0,-2.37,-2.3635,-2.3406,-2.2644,-2.2591,-2.2341,-2.1494,-2.1073,-2.0972,-2.1187,-2.1272,-2.067,-1.9107,-1.988,-2.0029,-1.9141,-1.9552,-1.98,-1.9786,-2.0248,-2.0151,-1.9404,-1.939,-1.9162,-1.8692,-1.8711,-1.8736,-1.8803,-1.896,-1.9012,-1.9012,-1.9078,-1.9101,-1.9101,-1.9101,-1.9101,-1.9101,-1.9101,-1.9101,-1.9101,-1.9101,-1.9101,-1.9139,-1.9265,-1.9321,-1.9376,-1.9593,-2.0316,-2.1155,-2.1492,-2.1613,-2.1732,-2.21,-2.2848,-2.3618,-2.3935,-2.5076,-2.6114,-2.5684,-2.554,-2.5408,-2.5059,-2.4639,-2.4364,-2.4364,-2.3994,-2.3824,-2.4302,-2.4021,-2.3745,-2.3745,-2.3745,-2.3745,-2.3745,-2.3745,-2.3745,-2.3745,-2.3745,-2.3915,-2.4343,-2.3979,-2.3894,-2.4281,-2.3909,-2.3674,-2.3595,-2.4057,-2.4323,-2.4364,-2.4759,-2.4962,-2.4962,-2.502,-2.5457,-2.6238,-2.5919,-2.5975,-2.6683,-2.5982,-2.5658,-2.5803,-2.5569,-2.5535,-2.6485,-2.6535,-2.6308,-2.5914,0.0,0.0,0.0,0.0,0.0,0.0,-2.4491,-2.4069,-2.404,-2.3554,-2.2971,-2.2362,-2.2228,-2.1977,-2.144,-2.1724,-2.1096,-1.9134,-1.9985,-2.0257,-1.9497,-1.9682,-2.0067,-2.066,-2.09,-2.0845,-2.0512,-2.0161,-1.9704,-1.9097,-1.8823,-1.8673,-1.8639,-1.8812,-1.8889,-1.8889,-1.8998,-1.9059,-1.9101,-1.9101,-1.9101,-1.9101,-1.9101,-1.9101,-1.9101,-1.9101,-1.9101,-1.9101,-1.9157,-1.9228,-1.9321,-1.9446,-2.0068,-2.082,-2.0953,-2.1483,-2.2027,-2.2188,-2.293,-2.3708,-2.3853,-2.4646,-2.54,-2.5195,-2.4981,-2.4759,-2.4594,-2.4204,-2.3888,-2.3888,-2.3724,-2.3659,-2.3867,-2.3724,-2.3595,-2.3595,-2.3595,-2.3595,-2.3595,-2.3595,-2.3595,-2.3595,-2.3595,-2.3681,-2.3888,-2.3702,-2.3681,-2.3888,-2.3717,-2.3774,-2.4156,-2.4384,-2.4653,-2.5054,-2.5463,-2.5476,-2.5124,-2.5376,-2.5473,-2.5438,-2.5307,-2.5329,-2.7363,-2.6709,-2.6454,-2.6122,-2.6167,-2.6435,-2.6955,-2.7242,-2.717,-2.6352,-2.6415,0.0,0.0,0.0,-2.5783,-2.5783,0.0,-2.4706,-2.5149,-2.4529,-2.3838,-2.3382,-2.3412,-2.3113,-2.228,-2.2621,-2.1992,-1.9824,-2.0645,-2.0911,-2.0054,-2.0029,-2.0434,-2.1375,-2.1399,-2.1293,-2.1054,-2.0632,-1.9993,-1.9157,-1.8807,-1.8595,-1.8517,-1.8697,-1.8779,-1.8779,-1.8922,-1.9036,-1.9078,-1.9082,-1.9101,-1.9101,-1.9101,-1.9101,-1.9101,-1.9101,-1.9101,-1.9101,-1.9101,-1.9176,-1.9332,-1.9545,-2.0007,-2.0531,-2.0926,-2.1469,-2.2044,-2.2347,-2.2968,-2.3576,-2.3692,-2.4265,-2.4784,-2.4664,-2.4395,-2.4177,-2.4094,-2.3803,-2.3566,-2.3566,-2.3588,-2.3595,-2.3588,-2.3588,-2.3595,-2.3595,-2.3595,-2.3595,-2.3595,-2.3595,-2.3595,-2.3595,-2.3595,-2.3595,-2.3595,-2.3595,-2.3595,-2.3595,-2.3774,-2.4081,-2.459,-2.4784,-2.5098,-2.56,-2.5894,-2.5741,-2.5101,-2.5394,-2.5191,-2.4563,-2.4679,-2.4784,-2.9079,-2.8014,-2.7205,-2.7772,-2.711,-2.6649,-2.7965,-2.7718,-2.721,-2.7156,-2.6658,-2.6206,-2.6191,-2.5824,-2.5521,-2.5521,-2.5644,0.0,0.0,-2.5792,-2.5508,-2.4714,-2.4283,-2.4108,-2.4187,-2.4337,-2.3587,-2.1481,-2.233,-2.2236,-2.0652,-2.0585,-2.0833,-2.1375,-2.1399,-2.1078,-2.0442,-2.0414,-1.9768,-1.8526,-1.8498,-1.8498,-1.8498,-1.8634,-1.8692,-1.8711,-1.8917,-1.8993,-1.9012,-1.9078,-1.9101,-1.9101,-1.9101,-1.9101,-1.9101,-1.9101,-1.9101,-1.9101,-1.9101,-1.9176,-1.9405,-1.9982,-2.0279,-2.0661,-2.2019,-2.1949,-2.1628,-2.2677,-2.295,-2.303,-2.3402,-2.4068,-2.4502,-2.4048,-2.3921,-2.3852,-2.3581,-2.3509,-2.3509,-2.3509,-2.356,-2.3588,-2.3494,-2.356,-2.3595,-2.3595,-2.3595,-2.3595,-2.3595,-2.3595,-2.3595,-2.3595,-2.3595,-2.3595,-2.3595,-2.3595,-2.3595,-2.3595,-2.4201,-2.459,-2.4605,-2.5217,-2.5585,-2.5615,-2.56,-2.5285,-2.4627,-2.465,-2.429,-2.3659,-2.4099,-2.4533,-2.7798,-2.7159,-2.6872,-2.7093,-2.6842,-2.6703,-2.7259,-2.7186,-2.6903,-2.6603,-2.6359,-2.6206,-2.6206,-2.6077,-2.6023,-2.6129,-2.6204,-2.6316,0.0,-2.6477,-2.6537,-2.6677,-2.6128,-2.5523,-2.494,-2.4896,-2.4305,-2.2834,-2.2575,-2.2237,-2.176,-2.2144,-2.2249,-2.194,-2.2314,-2.2229,-2.1603,-2.0793,-2.0189,-1.9754,-1.8891,-1.8498,-1.8498,-1.8556,-1.8615,-1.8711,-1.8831,-1.8908,-1.9012,-1.9078,-1.9101,-1.9101,-1.9101,-1.9101,-1.9101,-1.9101,-1.9101,-1.9101,-1.9101,-1.912,-1.9274,-1.9909,-2.0191,-2.0524,-2.1892,-2.2163,-2.2146,-2.2974,-2.318,-2.3202,-2.3329,-2.3558,-2.3702,-2.3545,-2.3501,-2.348,-2.3385,-2.3363,-2.3363,-2.3363,-2.3385,-2.3392,-2.3363,-2.3385,-2.3436,-2.3516,-2.3473,-2.3436,-2.3516,-2.3473,-2.3451,-2.3516,-2.3436,-2.3392,-2.3392,-2.377,-2.4177,-2.4636,-2.4887,-2.5198,-2.5627,-2.5888,-2.6214,-2.6653,-2.6758,-2.6455,-2.5777,-2.5425,-2.4918,-2.4246,-2.3971,-2.3915,-2.7008,-2.6701,-2.6701,-2.6701,-2.6701,-2.6783,-2.7099,-2.7004,-2.6746,-2.6444,-2.6154,-2.5983,-2.5983,-2.6063,-2.6253,-2.6642,-2.6609,-2.6614,0.0,-2.6832,-2.6965,-2.7399,-2.689,-2.6294,-2.57,-2.5668,-2.5045,-2.3444,-2.3425,-2.3218,-2.2624,-2.3208,-2.3261,-2.2536,-2.2887,-2.2704,-2.1884,-2.0914,-2.0288,-2.0028,-1.8989,-1.8498,-1.8498,-1.8498,-1.8556,-1.8634,-1.876,-1.8855,-1.8941,-1.9059,-1.9101,-1.9101,-1.9101,-1.9101,-1.9101,-1.9101,-1.9101,-1.9101,-1.9101,-1.9101,-1.9246,-2.0132,-2.0302,-2.0449,-2.2044,-2.2373,-2.2299,-2.2775,-2.3025,-2.312,-2.2886,-2.3003,-2.3157,-2.3157,-2.3157,-2.3164,-2.3223,-2.3223,-2.3223,-2.3223,-2.3275,-2.3275,-2.3246,-2.3223,-2.3275,-2.3407,-2.3363,-2.3319,-2.3422,-2.3341,-2.3319,-2.3422,-2.3341,-2.3386,-2.3599,-2.3975,-2.4481,-2.5158,-2.5408,-2.5756,-2.6169,-2.643,-2.6754,-2.7192,-2.7284,-2.6999,-2.6322,-2.5738,-2.5116,-2.4439,-2.3792,-2.3523]},{"header":{"parameterUnit":"m.s-1","parameterCategory":1,"la1":30.6,"la2":29.2853,"lo1":-89.7004,"lo2":-87.6739,"dy":0.0162,"dx":0.0183,"nx":112,"ny":82,"refTime":"2023-06-04T12:00:00:Z","depth":0,"parameterNumber":3,"parameterNumberName":"V-component_of_WINDS"},"data":[0.0,0.0,0.0,0.0,0.0,0.0,0.0,0.0,0.0,0.0,0.0,0.0,0.0,0.0,0.0,0.0,0.0,0.0,0.0,0.0,0.0,0.0,0.0,0.0,0.0,0.0,0.0,0.0,0.0,0.0,0.0,0.0,0.0,0.0,0.0,0.0,0.0,0.0,0.0,0.0,0.0,0.0,0.0,0.0,0.0,0.0,0.0,0.0,0.0,0.0,0.0,0.0,0.0,0.0,0.0,0.0,0.0,0.0,0.0,0.0,0.0,0.0,0.0,0.0,0.0,0.0,0.0,0.0,0.0,0.0,0.0,0.0,0.0,0.0,0.0,0.0,0.0,0.0,0.0,0.0,0.0,0.0,0.0,0.0,0.0,0.0,0.0,0.0,0.0,0.0,-0.8559,-0.8641,-1.076,-1.2511,-1.3243,-1.5178,-1.6582,-1.7077,0.0,0.0,0.0,0.0,0.0,0.0,0.0,0.0,0.0,0.0,0.0,0.0,0.0,0.0,0.0,0.0,0.0,0.0,0.0,0.0,0.0,0.0,0.0,0.0,0.0,0.0,0.0,0.0,0.0,0.0,0.0,0.0,0.0,0.0,0.0,0.0,0.0,0.0,0.0,0.0,0.0,0.0,0.0,0.0,0.0,0.0,0.0,0.0,0.0,0.0,0.0,0.0,0.0,0.0,0.0,0.0,0.0,0.0,0.0,0.0,0.0,0.0,0.0,0.0,0.0,0.0,0.0,0.0,0.0,0.0,0.0,0.0,0.0,0.0,0.0,0.0,0.0,0.0,0.0,0.0,0.0,0.0,0.0,0.0,0.0,0.0,0.0,0.0,0.0,0.0,0.0,0.0,0.0,0.0,0.0,0.0,0.0,0.0,0.0,0.0,0.0,0.0,0.0,0.0,-0.8272,-0.8735,-1.0031,-1.1562,-1.3173,-1.4484,-1.5638,-1.656,0.0,0.0,0.0,0.0,0.0,0.0,0.0,0.0,0.0,0.0,0.0,0.0,0.0,0.0,0.0,0.0,0.0,0.0,0.0,0.0,0.0,0.0,0.0,0.0,0.0,0.0,0.0,0.0,0.0,0.0,0.0,0.0,0.0,0.0,0.0,0.0,0.0,0.0,0.0,0.0,0.0,0.0,0.0,0.0,0.0,0.0,0.0,0.0,0.0,0.0,0.0,0.0,0.0,0.0,0.0,0.0,0.0,0.0,0.0,0.0,0.0,0.0,0.0,0.0,0.0,0.0,0.0,0.0,0.0,0.0,0.0,0.0,0.0,0.0,0.0,0.0,0.0,0.0,0.0,0.0,0.0,0.0,0.0,0.0,0.0,0.0,0.0,0.0,0.0,0.0,0.0,0.0,0.0,0.0,0.0,0.0,0.0,0.0,0.0,0.0,0.0,0.0,0.0,-0.8061,-0.8333,-0.8775,-0.9983,-1.146,-1.3177,-1.4316,-1.5402,-1.6377,-1.7231,0.0,0.0,0.0,0.0,0.0,0.0,0.0,0.0,0.0,0.0,0.0,0.0,0.0,0.0,0.0,0.0,0.0,0.0,0.0,0.0,0.0,0.0,0.0,0.0,0.0,0.0,0.0,0.0,0.0,0.0,0.0,0.0,0.0,0.0,0.0,0.0,0.0,0.0,0.0,0.0,0.0,0.0,0.0,0.0,0.0,0.0,0.0,0.0,0.0,0.0,0.0,0.0,0.0,0.0,0.0,0.0,0.0,0.0,0.0,0.0,0.0,0.0,0.0,0.0,0.0,0.0,0.0,0.0,0.0,0.0,0.0,0.0,0.0,0.0,0.0,0.0,0.0,0.0,0.0,0.0,0.0,0.0,0.0,0.0,0.0,0.0,0.0,0.0,0.0,0.0,0.0,0.0,0.0,0.0,0.0,0.0,0.0,0.0,0.0,0.0,0.0,0.0,-0.83,-0.8475,-0.8787,-0.9799,-1.121,-1.305,-1.4028,-1.5057,-1.6218,-1.6679,0.0,0.0,0.0,0.0,0.0,0.0,0.0,0.0,0.0,0.0,0.0,0.0,0.0,0.0,0.0,0.0,0.0,0.0,0.0,0.0,0.0,0.0,0.0,0.0,0.0,0.0,0.0,0.0,0.0,0.0,0.0,0.0,0.0,0.0,0.0,0.0,0.0,0.0,0.0,0.0,0.0,0.0,0.0,0.0,0.0,0.0,0.0,0.0,0.0,0.0,0.0,0.0,0.0,0.0,0.0,0.0,0.0,0.0,0.0,0.0,0.0,0.0,0.0,0.0,0.0,0.0,0.0,0.0,0.0,0.0,0.0,0.0,0.0,0.0,0.0,0.0,0.0,0.0,0.0,0.0,0.0,0.0,0.0,0.0,0.0,0.0,0.0,0.0,0.0,0.0,0.0,0.0,0.0,0.0,0.0,0.0,0.0,0.0,0.0,0.0,0.0,0.0,-0.8337,-0.8617,-0.88,-0.9041,-1.0206,-1.2606,-1.2999,-1.3958,-1.5899,-1.6009,0.0,0.0,0.0,0.0,0.0,0.0,0.0,0.0,0.0,0.0,0.0,0.0,0.0,0.0,0.0,0.0,0.0,0.0,0.0,0.0,0.0,0.0,0.0,0.0,0.0,0.0,0.0,0.0,0.0,0.0,0.0,0.0,0.0,0.0,0.0,0.0,0.0,0.0,0.0,0.0,0.0,0.0,0.0,0.0,0.0,0.0,0.0,0.0,0.0,0.0,0.0,0.0,0.0,0.0,0.0,0.0,0.0,0.0,0.0,0.0,0.0,0.0,0.0,0.0,0.0,0.0,0.0,0.0,0.0,0.0,0.0,0.0,0.0,0.0,0.0,0.0,0.0,0.0,0.0,0.0,0.0,0.0,0.0,0.0,0.0,0.0,0.0,0.0,0.0,0.0,0.0,0.0,0.0,0.0,0.0,0.0,0.0,0.0,0.0,0.0,0.0,0.0,-0.843,-0.8747,-0.8812,-0.9359,-1.0452,-1.2219,-1.3259,-1.4303,-1.5411,0.0,0.0,0.0,0.0,0.0,0.0,0.0,0.0,0.0,0.0,0.0,0.0,0.0,0.0,0.0,0.0,0.0,0.0,0.0,0.0,0.0,0.0,0.0,0.0,0.0,0.0,0.0,0.0,0.0,0.0,0.0,0.0,0.0,0.0,0.0,0.0,0.0,0.0,0.0,0.0,0.0,0.0,0.0,0.0,0.0,0.0,0.0,0.0,0.0,0.0,0.0,0.0,0.0,0.0,0.0,0.0,0.0,0.0,0.0,0.0,0.0,0.0,0.0,0.0,0.0,0.0,0.0,0.0,0.0,0.0,0.0,0.0,0.0,0.0,0.0,0.0,0.0,0.0,0.0,0.0,0.0,0.0,0.0,0.0,0.0,0.0,0.0,0.0,0.0,0.0,0.0,0.0,0.0,0.0,0.0,0.0,0.0,0.0,0.0,0.0,0.0,0.0,-0.7992,-0.8385,-0.8694,-0.8808,-0.9448,-1.0486,-1.1979,-1.3181,-1.4243,-1.5031,0.0,0.0,0.0,0.0,0.0,0.0,0.0,0.0,0.0,0.0,0.0,0.0,0.0,0.0,0.0,0.0,0.0,0.0,0.0,0.0,0.0,0.0,0.0,0.0,0.0,0.0,0.0,0.0,0.0,0.0,0.0,0.0,0.0,0.0,0.0,0.0,0.0,0.0,0.0,0.0,0.0,0.0,0.0,0.0,0.0,0.0,0.0,0.0,0.0,0.0,0.0,0.0,0.0,0.0,0.0,0.0,0.0,0.0,0.0,0.0,0.0,0.0,0.0,0.0,0.0,0.0,0.0,0.0,0.0,0.0,0.0,0.0,0.0,0.0,0.0,0.0,0.0,0.0,0.0,0.0,0.0,0.0,0.0,0.0,0.0,0.0,0.0,0.0,0.0,0.0,0.0,0.0,0.0,0.0,0.0,0.0,0.0,0.0,0.0,0.0,0.0,0.0,-0.7992,-0.8178,-0.8426,-0.8779,-0.9218,-1.0232,-1.1942,-1.266,-1.3523,0.0,0.0,0.0,0.0,0.0,0.0,0.0,0.0,0.0,0.0,0.0,0.0,0.0,0.0,0.0,0.0,0.0,0.0,0.0,0.0,0.0,0.0,0.0,0.0,0.0,0.0,0.0,0.0,0.0,0.0,0.0,0.0,0.0,0.0,0.0,0.0,0.0,0.0,0.0,0.0,0.0,0.0,0.0,0.0,0.0,0.0,0.0,0.0,0.0,0.0,0.0,0.0,0.0,0.0,0.0,0.0,0.0,0.0,0.0,0.0,0.0,0.0,0.0,0.0,0.0,0.0,0.0,0.0,0.0,0.0,0.0,0.0,0.0,0.0,0.0,0.0,0.0,0.0,0.0,0.0,0.0,0.0,0.0,0.0,0.0,0.0,0.0,0.0,0.0,0.0,0.0,0.0,0.0,0.0,0.0,0.0,0.0,0.0,0.0,0.0,0.0,0.0,0.0,-0.8008,-0.8292,-0.8655,-0.9111,-0.9678,-1.0391,-1.1247,-1.2451,-1.33,-1.3696,0.0,0.0,0.0,0.0,0.0,0.0,0.0,0.0,0.0,0.0,0.0,0.0,0.0,0.0,0.0,0.0,0.0,0.0,0.0,0.0,0.0,0.0,0.0,0.0,0.0,0.0,0.0,0.0,0.0,0.0,0.0,0.0,0.0,0.0,0.0,0.0,0.0,0.0,0.0,0.0,0.0,0.0,0.0,0.0,0.0,0.0,0.0,0.0,0.0,0.0,0.0,0.0,0.0,0.0,0.0,0.0,0.0,0.0,0.0,0.0,0.0,0.0,0.0,0.0,0.0,0.0,0.0,0.0,0.0,0.0,0.0,0.0,0.0,0.0,0.0,0.0,0.0,0.0,0.0,0.0,0.0,0.0,0.0,0.0,0.0,0.0,0.0,0.0,0.0,0.0,0.0,0.0,0.0,0.0,0.0,0.0,0.0,0.0,0.0,0.0,0.0,0.0,-0.7996,-0.8207,-0.8531,-0.8982,-0.9707,-1.0341,-1.0701,-1.2037,-1.2816,-1.2588,0.0,0.0,0.0,0.0,0.0,0.0,0.0,0.0,0.0,0.0,0.0,0.0,0.0,0.0,0.0,0.0,0.0,0.0,0.0,0.0,0.0,0.0,0.0,0.0,0.0,0.0,0.0,0.0,0.0,0.0,0.0,0.0,0.0,0.0,0.0,0.0,0.0,0.0,0.0,0.0,0.0,0.0,0.0,0.0,0.0,0.0,0.0,0.0,0.0,0.0,0.0,0.0,0.0,0.0,0.0,0.0,0.0,0.0,0.0,0.0,0.0,0.0,0.0,0.0,0.0,0.0,0.0,0.0,0.0,0.0,0.0,0.0,0.0,0.0,0.0,0.0,0.0,0.0,0.0,0.0,0.0,0.0,0.0,0.0,0.0,0.0,0.0,0.0,0.0,0.0,0.0,0.0,0.0,0.0,0.0,0.0,0.0,0.0,0.0,0.0,0.0,0.0,-0.7996,-0.804,-0.8216,-0.8659,-0.9476,-1.0114,-1.0385,-1.156,-1.2032,-1.1543,0.0,0.0,0.0,0.0,0.0,0.0,0.0,0.0,0.0,0.0,0.0,0.0,0.0,0.0,0.0,0.0,0.0,0.0,0.0,0.0,0.0,0.0,0.0,0.0,0.0,0.0,0.0,0.0,0.0,0.0,0.0,0.0,0.0,0.0,0.0,0.0,0.0,0.0,0.0,0.0,0.0,0.0,0.0,0.0,0.0,0.0,0.0,0.0,0.0,0.0,0.0,0.0,0.0,0.0,0.0,0.0,0.0,0.0,0.0,0.0,-0.1512,-0.148,0.0,0.0,0.0,0.0,0.0,0.0,0.0,0.0,0.0,0.0,0.0,0.0,0.0,0.0,0.0,0.0,0.0,0.0,0.0,0.0,0.0,0.0,0.0,0.0,0.0,0.0,0.0,0.0,0.0,0.0,0.0,0.0,0.0,0.0,0.0,0.0,0.0,0.0,0.0,0.0,-0.8203,-0.8231,-0.8611,-0.9579,-0.9864,-1.0275,-1.1022,-1.124,-1.1349,-1.1491,-1.14,0.0,0.0,0.0,0.0,0.0,0.0,0.0,0.0,0.0,0.0,0.0,0.0,0.0,0.0,0.0,0.0,0.0,0.0,0.0,0.0,0.0,0.0,0.0,0.0,0.0,0.0,0.0,0.0,0.0,0.0,0.0,0.0,0.0,0.0,0.0,0.0,0.0,0.0,0.0,0.0,0.0,0.0,0.0,0.0,0.0,0.0,0.0,0.0,0.0,0.0,0.0,0.0,0.0,0.0,0.0,0.0,0.0,0.0,0.0,-0.1376,-0.1546,0.0,0.0,0.0,0.0,0.0,0.0,0.0,0.0,0.0,0.0,0.0,0.0,0.0,0.0,0.0,0.0,0.0,0.0,0.0,0.0,0.0,0.0,0.0,0.0,0.0,0.0,0.0,0.0,0.0,0.0,0.0,0.0,0.0,0.0,0.0,0.0,0.0,0.0,0.0,0.0,-0.8268,-0.8292,-0.8581,-0.94,-0.9671,-1.0023,-1.0595,-1.0725,-1.0786,-1.074,-1.0743,0.0,0.0,0.0,0.0,0.0,0.0,0.0,0.0,0.0,0.0,0.0,0.0,0.0,0.0,0.0,0.0,0.0,0.0,0.0,0.0,0.0,0.0,0.0,0.0,0.0,0.0,0.0,0.0,0.0,0.0,0.0,0.0,0.0,0.0,0.0,0.0,0.0,0.0,0.0,0.0,0.0,0.0,0.0,0.0,0.0,0.0,0.0,0.0,0.0,0.0,0.0,0.0,0.0,0.1289,0.1247,0.1273,0.0311,-0.0157,-0.0366,-0.1083,-0.1481,-0.1622,-0.1592,0.0,0.0,0.0,0.0,0.0,0.0,0.0,0.0,0.0,0.0,0.0,0.0,0.0,0.0,0.0,0.0,0.0,0.0,0.0,0.0,0.0,0.0,-0.4685,-0.4594,-0.463,-0.4768,-0.5173,0.0,0.0,0.0,0.0,0.0,0.0,0.0,0.0,0.0,0.0,0.0,-0.8321,-0.8365,-0.8571,-0.8967,-0.9386,-0.9731,-1.0009,-1.0358,-1.0367,-1.0008,-1.0325,-1.0308,0.0,0.0,0.0,0.0,0.0,0.0,0.0,0.0,0.0,0.0,0.0,0.0,0.0,0.0,0.0,0.0,0.0,0.0,0.0,0.0,0.0,0.0,0.0,0.0,0.0,0.0,0.0,0.0,0.0,0.0,0.0,0.0,0.8317,0.7963,0.0,0.0,0.0,0.0,0.0,0.0,0.0,0.0,0.0,0.0,0.0,0.0,0.0,0.2993,0.3044,0.3056,0.3035,0.299,0.233,0.2073,0.2011,0.1131,0.0326,-0.038,-0.0487,0.0,-0.1705,-0.1624,0.0,0.0,0.0,0.0,0.0,0.0,0.0,0.0,0.0,0.0,0.0,0.0,0.0,0.0,0.0,0.0,0.0,0.0,0.0,0.0,0.0,0.0,-0.4685,-0.4594,-0.4629,-0.4627,-0.4686,-0.5143,-0.5553,-0.5616,-0.6051,-0.6688,0.0,0.0,0.0,0.0,0.0,0.0,-0.8592,-0.8662,-0.8939,-0.947,-0.9564,-0.9851,-1.0451,-1.0415,-1.0309,-1.025,-0.9932,-0.9999,-1.0617,-1.0072,0.0,0.0,0.0,0.0,0.0,0.0,0.0,0.0,0.0,0.0,0.0,0.0,0.0,0.0,0.0,0.0,0.0,0.0,0.0,0.0,0.0,0.0,0.0,0.0,0.0,0.0,0.0,0.0,0.0,0.8914,0.8724,0.8492,0.7592,0.6887,0.0,0.0,0.0,0.0,0.0,0.0,0.0,0.0,0.0,0.3196,0.321,0.322,0.3332,0.3417,0.3446,0.3421,0.3146,0.3003,0.2962,0.2043,0.144,0.1052,0.0494,-0.0217,-0.1014,-0.1468,-0.1926,-0.2439,0.0,0.0,0.0,0.0,-0.4798,-0.4734,-0.4839,-0.4779,-0.4619,-0.4706,0.0,0.0,0.0,0.0,0.0,0.0,0.0,-0.47,-0.4659,-0.4677,-0.4698,-0.4659,-0.461,-0.4621,-0.4621,-0.4849,-0.5063,-0.5054,-0.5528,-0.6184,-0.7139,-0.6966,0.0,0.0,0.0,-0.8271,-0.8312,-0.8823,-0.935,-0.9734,-0.9759,-0.9867,-1.0188,-1.0143,-1.0083,-1.0083,-0.9884,-0.9866,-1.0129,-1.0047,-1.0135,0.0,0.0,0.0,0.0,0.0,0.0,0.0,0.0,0.0,0.0,0.0,0.0,0.0,0.0,0.0,0.0,0.0,0.0,0.0,0.0,0.0,0.0,0.0,0.0,0.0,0.0,0.0,0.0,0.9628,0.9428,0.9284,0.8485,0.7652,0.0,0.0,0.0,0.0,0.0,0.0,0.4804,0.4829,0.4409,0.3551,0.3551,0.3554,0.3456,0.3499,0.3512,0.3497,0.3542,0.3556,0.3542,0.2821,0.2378,0.2156,0.142,0.0651,-0.0163,-0.1012,-0.1591,-0.2017,-0.2868,-0.3317,-0.3623,-0.4583,-0.4894,-0.4804,-0.499,-0.4934,-0.4756,-0.4776,-0.4777,-0.4696,-0.4628,0.0,0.0,0.0,0.0,-0.4708,-0.4708,-0.4692,-0.4673,-0.4673,-0.4622,-0.4621,-0.4621,-0.4626,-0.4661,-0.4616,-0.5013,-0.5616,-0.6448,-0.6336,0.0,-0.7241,-0.7458,-0.7625,-0.7919,-0.8705,-0.9354,-0.9681,-0.9821,-0.9887,-0.9884,-0.9884,-0.9884,-0.9884,-0.9884,-0.9841,-0.9674,-1.0008,-0.997,-0.9491,0.0,0.0,0.0,0.0,0.0,0.0,0.0,0.0,0.0,0.0,0.0,0.0,0.0,0.0,0.0,0.0,0.0,0.0,0.0,0.0,0.0,0.0,0.0,0.0,0.0,0.0,0.0,0.0,0.0,1.0806,1.0551,0.0,0.0,0.0,0.0,0.6161,0.6271,0.6203,0.5758,0.5718,0.5291,0.4344,0.4353,0.4118,0.3578,0.358,0.3553,0.3496,0.3499,0.3473,0.3421,0.3368,0.2886,0.2082,0.2081,0.1493,0.0586,-0.0157,-0.1258,-0.2495,-0.3021,-0.3571,-0.4136,-0.462,-0.4788,-0.4786,-0.4794,-0.479,-0.4728,-0.4758,-0.4777,-0.4708,-0.4704,-0.4702,0.0,0.0,-0.4706,-0.4708,-0.4708,-0.4645,-0.4627,-0.4627,-0.4623,-0.4621,-0.4621,-0.4623,-0.4604,-0.4685,-0.468,-0.4931,-0.5797,0.0,-0.5796,-0.6627,-0.6827,-0.6996,-0.7473,-0.8113,-0.8733,-0.9178,-0.9613,-0.9887,-0.9884,-0.9884,-0.9884,-0.9884,-0.9884,-0.9879,-0.99,-0.9927,-1.003,-1.0239,-0.9814,0.0,0.0,0.0,0.0,0.0,0.0,0.0,0.0,0.0,0.0,0.0,0.0,0.0,0.0,0.0,0.0,0.0,0.0,0.0,0.0,0.0,0.0,0.0,0.0,0.0,0.0,0.0,0.0,1.1113,1.0794,0.0,0.9595,0.8938,0.8213,0.7322,0.7388,0.7029,0.6049,0.6001,0.5526,0.4491,0.4447,0.4107,0.3529,0.3493,0.3465,0.3441,0.3402,0.3373,0.3353,0.3353,0.3144,0.2881,0.2881,0.2409,0.1566,0.1216,0.0154,-0.1329,-0.2417,-0.3125,-0.3681,-0.4273,-0.4665,-0.4922,-0.4922,-0.4865,-0.4775,-0.4694,-0.4647,-0.4632,-0.4692,-0.4667,-0.4632,-0.4692,-0.4667,-0.462,-0.462,-0.4553,-0.4483,-0.4483,-0.4438,-0.4398,-0.4398,-0.4442,-0.4493,-0.4479,-0.4506,-0.4746,-0.5696,-0.5206,-0.5018,-0.5827,-0.5976,-0.6327,-0.7064,-0.7956,-0.8867,-0.9829,-0.9906,-0.9988,-1.0147,-1.0013,-0.9986,-1.0153,-1.0164,-1.0229,-1.0335,-1.0525,-1.0433,-1.0062,-1.0046,-0.9927,0.0,0.0,0.0,0.0,0.0,0.0,0.0,0.0,0.0,0.0,0.0,0.0,0.0,0.0,0.0,0.0,0.0,0.0,0.0,0.0,0.0,0.0,0.0,0.0,0.0,1.1716,1.1515,1.1231,1.1212,1.0917,1.0228,0.9914,0.9433,0.856,0.8593,0.8129,0.698,0.6928,0.6232,0.4827,0.472,0.43,0.3469,0.3431,0.3402,0.3382,0.3341,0.3311,0.329,0.329,0.329,0.329,0.329,0.2981,0.246,0.2036,0.1253,0.0155,-0.1492,-0.2361,-0.272,-0.3799,-0.4398,-0.4679,-0.4833,-0.4824,-0.4726,-0.461,-0.4621,-0.4631,-0.4645,-0.462,-0.4633,-0.4647,-0.4596,-0.4518,-0.4487,-0.4414,-0.4338,-0.4263,-0.421,-0.421,-0.421,-0.4212,-0.4255,-0.4255,-0.4328,-0.4593,-0.5214,-0.4789,-0.4525,-0.506,-0.5137,-0.5465,-0.6356,-0.7108,-0.8048,-0.9303,-0.9531,-0.9732,-1.0029,-1.0091,-1.0196,-1.0288,-1.0363,-1.0476,-1.0587,-1.0783,-1.0606,-1.0056,-1.0051,-0.9933,-0.969,0.0,0.0,0.0,0.0,0.0,0.0,0.0,0.0,0.0,0.0,0.0,0.0,0.0,0.0,0.0,0.0,0.0,0.0,0.0,0.0,0.0,0.0,0.0,1.2631,1.2094,1.1676,1.1274,1.194,1.187,1.051,1.085,1.072,0.9746,0.9766,0.9467,0.854,0.8481,0.7532,0.5402,0.5285,0.4703,0.341,0.3407,0.3376,0.3319,0.3316,0.3285,0.3177,0.3176,0.3175,0.3175,0.3175,0.3175,0.3119,0.2269,0.1957,0.171,-0.0384,-0.1219,-0.1404,-0.3138,-0.3902,-0.406,-0.4549,-0.4636,-0.4606,-0.4604,-0.4602,-0.4604,-0.4608,-0.4608,-0.4608,-0.461,-0.45,-0.4364,-0.4314,-0.4232,-0.4151,-0.4017,-0.3994,-0.3994,-0.3994,-0.3994,-0.3994,-0.3994,-0.42,-0.4376,-0.4376,-0.4376,-0.4376,-0.4376,-0.4346,0.0,-0.5317,-0.563,-0.6264,-0.7555,-0.8537,-0.9192,-0.9552,-1.0218,-1.0501,-1.032,-1.0469,-1.0597,-1.0613,-1.0603,-1.053,-1.0299,-0.9841,-0.9707,-0.9911,0.0,0.0,0.0,0.0,0.0,0.0,0.0,0.0,0.0,0.0,0.0,0.0,0.0,0.0,0.0,0.0,0.0,0.0,0.0,0.0,0.0,1.5579,1.5293,1.417,1.3218,1.2474,1.1945,1.2029,1.2046,1.1663,1.1748,1.1505,1.0716,1.0714,1.008,0.8595,0.8385,0.7605,0.595,0.5377,0.4719,0.3918,0.3457,0.322,0.3204,0.3161,0.3132,0.3114,0.3119,0.3146,0.3146,0.3146,0.3146,0.3094,0.2795,0.2749,0.2595,0.0823,-0.0098,-0.0542,-0.1561,-0.2731,-0.3847,-0.425,-0.4355,-0.4315,-0.4206,-0.4183,-0.4208,-0.4336,-0.4332,-0.434,-0.4357,-0.4355,-0.4302,-0.4105,-0.414,-0.4151,-0.4017,-0.3994,-0.3994,-0.3994,-0.3994,-0.3994,-0.3994,-0.4053,-0.4101,-0.4101,-0.4101,-0.4101,-0.4101,-0.4081,-0.4363,-0.5082,-0.5233,-0.5975,-0.7812,-0.8039,-0.8429,-0.9323,-0.9827,-1.008,-1.0094,-1.028,-1.0622,-1.1091,-1.078,-1.053,-1.0299,-1.0164,-0.9954,0.0,0.0,0.0,0.0,0.0,0.0,0.0,0.0,0.0,0.0,0.0,0.0,0.0,0.0,0.0,0.0,0.0,0.0,0.0,0.0,0.0,0.0,1.7348,1.715,1.6471,1.4752,1.3472,1.3204,1.2505,1.2118,1.2203,1.2212,1.2044,1.1664,1.1618,1.1034,0.9541,0.9392,0.8478,0.6513,0.6066,0.5259,0.4048,0.3702,0.3417,0.3142,0.3108,0.3078,0.3101,0.3113,0.3097,0.3097,0.3097,0.3097,0.3091,0.303,0.3026,0.2917,0.0,0.0,0.0,0.0,-0.1538,-0.2699,-0.3317,-0.3557,-0.3676,-0.3924,-0.3994,-0.4012,-0.4159,-0.4181,-0.4175,-0.4185,-0.4216,-0.4204,-0.4026,-0.4018,-0.4034,-0.3944,-0.3922,-0.3922,-0.3922,-0.3922,-0.3922,-0.3922,-0.3922,0.0,-0.3922,-0.3944,-0.4006,-0.4087,-0.4028,-0.4116,-0.4569,-0.4581,-0.5178,-0.6753,-0.6973,-0.7359,-0.8295,-0.8941,0.0,0.0,0.0,-1.0269,-1.0855,-1.0638,0.0,0.0,0.0,-1.0051,-0.9879,-1.0013,0.0,0.0,-1.0374,-1.0541,0.0,0.0,0.0,0.0,0.0,0.0,0.0,0.0,0.0,0.0,0.0,0.0,0.0,0.0,0.0,0.0,1.9095,1.9145,1.8971,1.6555,1.4687,1.452,1.3105,1.2172,1.2297,1.234,1.2358,1.2382,1.2387,1.1923,1.0881,1.0781,0.0,0.0,0.0,0.6235,0.4483,0.4383,0.4093,0.348,0.3382,0.33,0.3238,0.3136,0.3086,0.3086,0.308,0.3077,0.3072,0.3016,0.2994,0.2898,0.2219,0.1912,0.1758,0.0506,-0.0404,-0.1129,-0.2028,0.0,0.0,-0.3463,-0.3754,-0.3841,-0.3849,-0.3992,-0.4126,-0.4,-0.4087,-0.4116,-0.3932,-0.3891,-0.3877,-0.3824,-0.3802,-0.3802,-0.3802,-0.3802,-0.3802,-0.3802,-0.3802,-0.3802,-0.3802,-0.3897,-0.4032,-0.4156,-0.3987,-0.3914,-0.3954,-0.3865,-0.4191,-0.5175,-0.5623,0.0,-0.6896,-0.7755,-0.8154,-0.7865,-0.883,-0.9555,-0.9951,-1.0,-1.0006,-0.9979,-0.9764,-0.977,-1.0016,-1.0043,-0.9996,-0.989,-1.0164,-1.0514,0.0,0.0,0.0,0.0,0.0,0.0,0.0,0.0,0.0,0.0,0.0,0.0,0.0,0.0,0.0,1.9137,1.9753,2.0056,1.9738,1.8513,1.6772,1.4304,1.3132,1.2361,1.1935,1.2043,1.2212,1.2372,1.2387,1.1982,1.1076,1.0788,1.0068,0.89,0.8194,0.7603,0.7226,0.6775,0.6366,0.5907,0.5083,0.0,0.418,0.337,0.3022,0.3019,0.2974,0.2953,0.2953,0.294,0.2935,0.2894,0.2791,0.2396,0.1801,0.1133,0.0266,-0.0605,-0.1172,-0.1481,-0.167,-0.1799,-0.2265,-0.2792,-0.2843,-0.336,0.0,-0.393,-0.3991,-0.402,-0.3876,-0.3844,-0.3877,-0.3824,-0.3802,-0.3802,-0.3802,-0.3802,-0.3802,-0.3802,-0.3802,-0.3802,-0.3802,-0.3833,-0.3861,-0.388,-0.3851,-0.3835,-0.3853,-0.3824,-0.411,-0.4969,-0.5141,-0.5462,-0.6067,-0.6914,-0.7304,-0.6965,-0.7684,-0.8073,-0.7884,-0.8138,-0.8152,-0.788,-0.7943,-0.8075,-0.8284,-0.8501,-0.8953,-0.9658,-1.0089,-1.0342,0.0,0.0,0.0,0.0,0.0,0.0,0.0,0.0,0.0,0.0,0.0,1.8561,1.8934,0.0,1.9256,1.9797,2.017,2.0329,2.0154,1.9273,1.7896,1.6072,1.4407,1.3309,1.2945,1.2529,1.2278,1.2377,1.2387,1.213,1.15,1.1303,1.0742,0.9685,0.921,0.8673,0.8021,0.7648,0.7197,0.6679,0.6002,0.5541,0.5295,0.4654,0.4091,0.3638,0.3602,0.332,0.292,0.292,0.292,0.2922,0.295,0.2717,0.2331,0.2038,0.1513,0.0837,0.0082,-0.0362,-0.0637,-0.114,-0.1568,-0.1925,-0.1946,-0.2291,-0.2632,-0.2601,-0.2919,-0.3277,-0.3166,-0.3482,-0.3859,-0.3812,-0.3767,-0.3695,-0.3695,-0.3661,-0.3632,-0.3632,-0.3632,-0.3632,-0.3632,-0.3632,-0.3699,-0.3789,-0.3802,-0.3785,-0.3701,-0.3695,-0.3885,-0.4344,-0.4382,-0.4574,-0.4958,-0.5458,-0.5863,-0.6097,-0.6432,-0.6772,-0.7038,-0.7224,-0.7347,-0.7389,-0.7333,-0.7334,-0.7463,-0.7566,-0.7832,-0.82,-0.8553,-0.9039,0.0,0.0,0.0,0.0,0.0,0.0,0.0,2.1097,2.1024,2.0995,2.0784,2.0616,2.0631,2.0489,2.0394,2.0395,2.0448,2.0448,2.0313,1.9555,1.8772,1.8196,1.617,1.4723,1.441,1.3421,1.2812,1.2762,1.2545,1.2222,1.1898,1.1841,1.1341,1.0334,1.0203,0.9665,0.8572,0.836,0.797,0.7466,0.6915,0.6566,0.6415,0.5994,0.5319,0.4565,0.4368,0.3751,0.2918,0.2906,0.2908,0.292,0.292,0.283,0.2766,0.2766,0.2577,0.2205,0.1294,0.0794,0.0389,-0.0469,-0.086,-0.1052,-0.1056,-0.1191,-0.1365,-0.13,-0.1786,-0.2327,-0.2285,-0.2784,-0.3331,-0.3331,-0.3229,-0.3172,-0.3172,-0.3224,-0.3279,-0.3279,-0.339,-0.3499,-0.3499,-0.3499,-0.3548,-0.3729,-0.375,-0.3685,-0.3612,-0.3564,-0.3612,-0.3719,-0.3749,-0.3821,-0.4039,-0.41,-0.4466,-0.5157,-0.517,-0.5479,-0.6207,-0.6241,-0.641,-0.6799,-0.66,-0.6553,-0.6729,-0.6725,-0.6726,-0.6729,-0.6904,-0.7529,1.9972,2.0094,2.0727,2.0956,2.1678,2.2725,0.0,2.4216,2.4036,2.4431,2.4116,2.3445,2.2355,2.2125,2.1737,2.0576,2.0655,2.0647,2.006,2.0105,1.9959,1.9303,1.7839,1.66,1.5871,1.4906,1.4261,1.4008,1.3034,1.2288,1.2062,1.1921,1.1662,1.134,1.0977,1.0738,1.0589,1.0383,1.0125,0.9824,0.8756,0.8023,0.759,0.6522,0.5849,0.5492,0.4605,0.3699,0.2914,0.2815,0.2826,0.292,0.292,0.2804,0.2703,0.2703,0.2567,0.2374,0.2117,0.1744,0.1373,0.1287,0.0619,-0.0153,-0.0156,-0.0706,-0.1298,-0.1294,-0.1373,-0.1454,-0.1451,-0.1488,-0.1567,-0.1567,-0.1576,-0.1548,-0.1548,-0.2073,-0.2511,-0.2511,-0.306,-0.3499,-0.3499,-0.3499,-0.3505,-0.3526,-0.353,-0.3526,-0.3516,-0.3514,-0.3511,-0.3538,-0.3536,-0.3606,-0.3821,-0.3748,-0.3808,-0.4057,-0.4032,-0.4051,-0.4206,-0.418,-0.418,-0.4297,-0.4324,-0.4666,-0.5336,-0.5429,-0.5815,-0.6432,-0.6482,-0.6788,2.2286,2.1966,2.2025,2.31,2.366,2.4271,2.5475,2.5583,2.5559,2.5834,2.5477,2.4929,2.4406,2.392,2.309,2.1493,2.1227,2.0925,2.0054,2.0044,2.013,2.0257,1.9579,1.8477,1.6924,1.5871,1.52,1.4895,1.3714,1.2975,1.2883,1.2059,1.1548,1.1335,1.1047,1.0834,1.0712,1.055,1.0354,1.0259,0.9508,0.9057,0.8827,0.8092,0.7268,0.6467,0.5372,0.4444,0.365,0.3528,0.3232,0.2824,0.2904,0.2822,0.2741,0.2706,0.2606,0.2417,0.225,0.2065,0.1858,0.1684,0.1288,0.0891,0.0782,0.051,0.0196,0.0196,-0.0157,-0.0548,-0.0548,-0.0901,-0.1288,-0.1309,-0.128,-0.1251,-0.1234,-0.1453,-0.1634,-0.1634,-0.1879,-0.2087,-0.2087,-0.2469,-0.2747,-0.2747,-0.3181,-0.3481,-0.3463,-0.3455,-0.3401,-0.3346,-0.3342,-0.3375,-0.3442,-0.3406,-0.3417,-0.3485,-0.3482,-0.3511,-0.3657,-0.3749,-0.3847,-0.3961,-0.4087,-0.4331,-0.4631,-0.4691,-0.4891,-0.5186,-0.5186,-0.5286,2.3279,2.3025,2.3172,2.4294,2.4977,2.5572,2.6324,2.66,2.6792,2.7065,2.6829,2.6426,2.6079,2.546,2.4482,2.2829,2.2276,2.1672,2.0769,2.0419,2.0377,2.0702,2.0551,1.9783,1.8188,1.7002,1.6209,1.5863,1.4663,1.3689,1.3254,1.2349,1.1594,1.1033,1.083,1.065,1.054,1.0331,1.026,1.0317,0.9879,0.9689,0.9602,0.907,0.8218,0.7068,0.6223,0.5383,0.4587,0.4474,0.396,0.3204,0.3235,0.3074,0.2751,0.2689,0.261,0.2493,0.2358,0.2265,0.214,0.1842,0.1681,0.1558,0.1412,0.1335,0.1296,0.1296,0.0863,0.0353,0.0353,-0.0117,-0.0619,-0.0574,-0.0592,-0.0574,-0.0532,-0.0689,-0.0806,-0.0806,-0.0975,-0.1109,-0.1109,-0.1545,-0.1913,-0.1913,-0.2433,-0.2976,-0.3299,-0.336,-0.3301,-0.32,-0.3192,-0.3192,-0.3192,-0.3192,-0.3192,-0.3192,-0.317,-0.3234,-0.3395,-0.3533,-0.365,-0.3751,-0.3985,-0.4119,-0.4119,-0.4185,-0.4268,-0.43,-0.43,-0.43,2.1728,2.2548,2.3849,2.3744,2.5126,2.6682,2.7162,2.7631,2.8111,2.8601,2.871,2.8305,2.7037,2.6512,2.5935,2.4651,2.3818,2.3125,2.2491,2.1761,2.1059,2.046,2.04,2.0292,1.9934,1.8624,1.7534,1.6987,1.5878,1.4492,1.2824,1.2694,1.2055,1.0649,1.04,1.0336,1.0327,1.0113,1.0108,1.0317,1.0099,0.9864,0.9598,0.8927,0.8114,0.7208,0.704,0.6474,0.5661,0.5586,0.5041,0.4243,0.4202,0.3558,0.2687,0.2627,0.2602,0.259,0.253,0.2358,0.2209,0.2181,0.1893,0.1524,0.1561,0.1454,0.1296,0.1296,0.1296,0.1257,0.1257,0.1197,0.1144,0.121,0.1113,0.106,0.1123,0.0524,-0.0034,-0.0034,-0.0605,-0.1109,-0.1109,-0.1109,-0.1143,-0.1143,-0.1144,-0.165,-0.3029,-0.3196,-0.3196,-0.3192,-0.3192,-0.3192,-0.3192,-0.3192,-0.3192,-0.3192,-0.3144,-0.3134,-0.319,-0.3142,-0.3127,-0.3127,-0.3453,-0.3616,-0.3616,-0.3931,-0.4183,-0.43,-0.43,-0.43,2.3381,2.4458,2.5874,2.6562,2.7232,2.7891,2.8483,2.8745,2.8824,2.8786,2.8289,2.765,2.7222,2.6823,2.6089,2.471,2.4559,2.4259,2.3383,2.2399,2.1763,2.1795,2.0979,2.0342,2.0292,1.9633,1.9024,1.8454,1.7036,1.5944,1.5263,1.3479,1.2289,1.1812,1.0812,1.0251,1.0104,1.0032,1.0032,1.0104,1.0028,0.9798,0.9411,0.9172,0.8645,0.7931,0.7775,0.714,0.6236,0.6103,0.5573,0.4826,0.4856,0.4264,0.3442,0.3417,0.3013,0.2538,0.2518,0.2458,0.2369,0.2229,0.2106,0.1941,0.1842,0.165,0.1488,0.1464,0.1342,0.1222,0.124,0.1204,0.1204,0.1174,0.1174,0.1168,0.1152,0.0933,0.0722,0.0742,0.0538,0.037,0.037,-0.0034,-0.0538,-0.1042,-0.1511,-0.2014,-0.2484,-0.2874,-0.316,-0.3186,-0.3173,-0.3136,-0.3136,-0.3136,-0.3109,-0.3082,-0.3049,-0.3045,-0.3076,-0.3143,-0.3157,-0.3157,-0.3446,-0.3611,-0.3611,-0.3806,-0.3924,-0.3961,-0.3961,-0.4028,2.4525,2.5339,2.6402,2.7274,2.7612,2.7957,2.8764,2.8951,2.889,2.8757,2.8088,2.7402,2.7108,2.6724,2.6165,2.5233,2.5319,2.5152,2.4307,2.334,2.261,2.2361,2.1354,2.0646,2.0434,2.0242,1.9909,1.9272,1.8171,1.7158,1.6313,1.4481,1.3187,1.2552,1.1313,1.0617,1.0467,1.0168,0.9994,0.9994,0.9919,0.9648,0.9285,0.9243,0.8926,0.8414,0.8237,0.7769,0.7119,0.6954,0.6424,0.5653,0.5647,0.5081,0.4248,0.4252,0.3884,0.329,0.2705,0.2511,0.247,0.2353,0.2275,0.2157,0.2042,0.1835,0.1662,0.1522,0.1401,0.1283,0.1224,0.1197,0.1202,0.1163,0.1167,0.1163,0.1104,0.1099,0.1099,0.1113,0.1109,0.1109,0.1109,0.07,0.0199,-0.0235,-0.0957,-0.1535,-0.1782,-0.2355,-0.2746,-0.2799,-0.2949,-0.3074,-0.3074,-0.3074,-0.3049,-0.2989,-0.2956,-0.2952,-0.2983,-0.3047,-0.306,-0.306,-0.3276,-0.3401,-0.3432,-0.3558,-0.3643,-0.3681,-0.3681,-0.3766,2.5029,2.5237,2.5663,2.602,2.6442,2.7066,2.8107,2.8359,2.8405,2.8584,2.8218,2.7622,2.6765,2.6379,2.6228,2.6206,2.6097,2.5863,2.5468,2.4641,2.3591,2.2306,2.1684,2.1124,2.0478,2.041,2.0126,1.9558,1.9222,1.8159,1.6109,1.5625,1.4605,1.2839,1.188,1.1365,1.1365,1.0554,1.012,1.0077,0.9786,0.953,0.9282,0.9114,0.8882,0.8669,0.8414,0.8287,0.8246,0.8069,0.7446,0.6644,0.6592,0.5978,0.5159,0.5084,0.504,0.4771,0.3173,0.2588,0.2549,0.2549,0.239,0.2192,0.2195,0.2045,0.178,0.1589,0.1514,0.1438,0.1246,0.1209,0.1211,0.121,0.1168,0.1092,0.1087,0.1099,0.1113,0.111,0.1109,0.1109,0.1109,0.1054,0.1012,0.1105,0.0448,-0.028,-0.0962,-0.163,-0.2061,-0.2065,-0.2552,-0.2885,-0.2885,-0.2915,-0.2946,-0.294,-0.2835,-0.2856,-0.2968,-0.2862,-0.279,-0.279,-0.2936,-0.3024,-0.3085,-0.3209,-0.3351,-0.3482,-0.3482,-0.3504,2.5867,2.667,2.7653,2.7763,2.7873,2.8206,2.9084,2.9277,2.9187,2.8964,2.8248,2.7422,2.6553,2.6438,2.6431,2.6228,2.674,2.7133,2.7034,2.6009,2.5013,2.4336,2.2783,2.1641,2.1124,2.0435,1.9963,1.9819,1.9546,1.8851,1.7609,1.6202,1.497,1.408,1.2955,1.2339,1.2339,1.2126,1.1655,1.0977,1.0742,1.0181,0.9277,0.9091,0.879,0.8485,0.8419,0.8212,0.7904,0.7865,0.7622,0.7258,0.7254,0.6691,0.5905,0.5906,0.5506,0.4927,0.4496,0.3951,0.3482,0.3482,0.2979,0.2375,0.2418,0.2239,0.2,0.1963,0.1717,0.1464,0.1373,0.1288,0.1206,0.1183,0.1238,0.1204,0.1136,0.1133,0.1165,0.1118,0.1109,0.1109,0.1109,0.1069,0.1067,0.1108,0.0897,0.0468,-0.0192,-0.0861,-0.132,-0.1413,-0.1476,-0.1515,-0.1515,-0.1933,-0.2149,-0.2097,-0.2507,-0.2736,-0.2785,-0.2738,-0.2725,-0.2725,-0.282,-0.2855,-0.2884,-0.3009,-0.3084,-0.314,-0.314,-0.3184,2.6728,2.7352,2.8007,2.8007,2.819,2.8452,2.863,2.9094,2.9201,2.8366,2.7774,2.721,2.6341,2.6313,2.6422,2.6271,2.6942,2.7466,2.7446,2.6682,2.5792,2.4888,2.3598,2.236,2.1204,2.0618,2.0175,1.9901,1.9636,1.9122,1.8342,1.6929,1.5892,1.5332,1.4025,1.3105,1.2717,1.2717,1.2419,1.1912,1.1668,1.1166,1.0439,1.0171,0.9674,0.9046,0.8965,0.8589,0.8063,0.7953,0.7799,0.7642,0.7642,0.7292,0.6784,0.6784,0.6433,0.5965,0.6066,0.5502,0.4688,0.4306,0.385,0.3404,0.3452,0.3396,0.3231,0.275,0.2484,0.2286,0.2159,0.1998,0.1909,0.1898,0.1839,0.1648,0.1206,0.1124,0.1151,0.1116,0.1109,0.1109,0.1109,0.1065,0.1061,0.1107,0.1014,0.0826,0.0472,-0.015,-0.0579,-0.0679,-0.0843,-0.0948,-0.0948,-0.1265,-0.1454,-0.1399,-0.1734,-0.1902,-0.1902,-0.2155,-0.2296,-0.2296,-0.2598,-0.2766,-0.2766,-0.2845,-0.2867,-0.2867,-0.2867,-0.292,2.737,2.7512,2.7498,2.751,2.7902,2.8137,2.7607,2.8373,2.8798,2.743,2.7309,2.7195,2.6311,2.6335,2.6516,2.6485,2.6984,2.7423,2.743,2.7009,2.6205,2.4999,2.4224,2.3109,2.1371,2.1049,2.0696,2.0175,1.9741,1.9184,1.8449,1.7638,1.686,1.6232,1.4958,1.3862,1.3007,1.297,1.2886,1.2832,1.2497,1.2207,1.1884,1.1579,1.0938,1.0067,0.9868,0.9339,0.8551,0.8365,0.8102,0.7804,0.7804,0.7684,0.7484,0.7484,0.7374,0.7215,0.7423,0.6889,0.5989,0.517,0.483,0.4747,0.4726,0.4833,0.4689,0.3784,0.3534,0.3507,0.3233,0.3054,0.2944,0.2882,0.2703,0.2312,0.1549,0.1302,0.1244,0.1244,0.1176,0.1109,0.1109,0.1055,0.1048,0.1105,0.1003,0.0928,0.0985,0.0497,0.0112,0.0112,-0.0336,-0.0671,-0.0671,-0.0727,-0.0783,-0.0783,-0.0866,-0.0894,-0.0894,-0.1398,-0.1679,-0.1679,-0.2184,-0.2465,-0.2465,-0.2465,-0.2493,-0.2577,-0.2577,-0.2649,2.6969,2.7211,2.7554,2.7505,2.7568,2.762,2.7516,2.8059,2.8338,2.7582,2.7841,2.7945,2.7064,2.7261,2.7519,2.7449,2.773,2.8011,2.8193,2.7452,2.6844,2.6603,2.4922,2.365,2.329,2.2213,2.1509,2.1401,2.0622,1.9526,1.8151,1.7663,1.6934,1.5845,1.5338,1.4925,1.4526,1.4311,1.3943,1.3434,1.3233,1.267,1.1884,1.1663,1.1327,1.0887,1.0844,1.0276,0.9372,0.9372,0.8737,0.7804,0.7804,0.7684,0.7484,0.7484,0.7374,0.7215,0.7423,0.7194,0.6716,0.6122,0.5433,0.4876,0.4942,0.4939,0.4854,0.4686,0.4536,0.4402,0.4148,0.3845,0.36,0.34,0.3259,0.3103,0.2951,0.2394,0.1913,0.1913,0.1478,0.1109,0.1109,0.1105,0.1104,0.1109,0.1021,0.0982,0.0988,0.0848,0.0757,0.0757,0.0645,0.0588,0.0588,0.014,-0.0168,-0.0168,-0.0615,-0.0894,-0.0894,-0.1006,-0.1062,-0.1062,-0.1146,-0.1202,-0.1202,-0.1202,-0.1482,-0.1959,-0.1959,-0.2219,2.7254,2.734,2.7629,2.7891,2.7968,2.7811,2.7223,2.7758,2.8046,2.685,2.734,2.7793,2.7391,2.7589,2.7655,2.7246,2.7568,2.7829,2.7701,2.749,2.7271,2.7006,2.5877,2.4771,2.3904,2.2951,2.2217,2.1739,2.1293,2.0409,1.8937,1.7795,1.6804,1.5929,1.5508,1.5255,1.5102,1.4705,1.4341,1.4081,1.3772,1.3424,1.2978,1.2728,1.2282,1.1706,1.1706,1.1217,1.0389,1.0389,0.9717,0.8737,0.8627,0.8212,0.7642,0.7522,0.7374,0.7215,0.7423,0.7313,0.7049,0.6802,0.6419,0.6098,0.605,0.6146,0.6156,0.5701,0.5466,0.533,0.5169,0.4803,0.4433,0.4362,0.3808,0.3285,0.3267,0.2943,0.2681,0.2681,0.2414,0.2181,0.2181,0.2181,0.207,0.1678,0.1585,0.1412,0.0997,0.0926,0.0898,0.0898,0.0898,0.0898,0.0898,0.0645,0.0477,0.0477,0.0196,0.0028,0.0028,-0.0252,-0.042,-0.042,-0.0727,-0.0894,-0.0894,-0.0894,-0.1062,-0.1341,-0.1341,-0.1482,2.7668,2.7588,2.7663,2.8237,2.8281,2.7928,2.6942,2.7471,2.7745,2.6119,2.6707,2.749,2.749,2.7745,2.7752,2.7221,2.754,2.777,2.7513,2.754,2.7428,2.7169,2.6546,2.564,2.4326,2.3632,2.3008,2.2359,2.1935,2.1125,1.9686,1.7851,1.6609,1.607,1.5564,1.524,1.5085,1.4615,1.4374,1.4401,1.4144,1.3982,1.3975,1.3718,1.322,1.2562,1.2562,1.2114,1.1372,1.1372,1.0763,0.9857,0.9669,0.8998,0.8102,0.7906,0.7572,0.7233,0.7445,0.7322,0.7119,0.7155,0.7216,0.7248,0.7102,0.7245,0.7281,0.6615,0.633,0.6199,0.6086,0.5708,0.5354,0.5287,0.4531,0.3783,0.3732,0.3582,0.3451,0.3451,0.3316,0.3178,0.3158,0.3156,0.296,0.2334,0.2237,0.1966,0.1182,0.1088,0.1037,0.0926,0.0898,0.0898,0.0898,0.0898,0.0898,0.0898,0.0898,0.0898,0.0898,0.0449,0.0196,0.0196,-0.028,-0.0503,-0.0503,-0.0503,-0.0587,-0.0699,-0.0699,-0.0783,2.785,2.7651,2.7731,2.8268,2.7994,2.7445,2.6817,2.7157,2.7229,2.6041,2.6707,2.749,2.749,2.7965,2.837,2.85,2.8375,2.8457,2.9028,2.7922,2.7232,2.7584,2.6475,2.5606,2.5432,2.4479,2.3926,2.4198,2.2782,2.109,1.9359,1.7654,1.6464,1.5933,1.5584,1.5065,1.438,1.4052,1.3926,1.4064,1.3996,1.3982,1.3982,1.399,1.374,1.3382,1.3382,1.2936,1.2194,1.2194,1.1583,1.0677,1.0671,1.004,0.915,0.8922,0.8189,0.7309,0.7442,0.7159,0.6769,0.6963,0.7233,0.7427,0.7253,0.7187,0.7211,0.7117,0.6993,0.6865,0.6603,0.6409,0.6218,0.5903,0.5619,0.5399,0.5385,0.4749,0.4187,0.4187,0.3651,0.3158,0.3051,0.3005,0.2943,0.276,0.2677,0.2415,0.1793,0.1714,0.1512,0.0953,0.0898,0.0898,0.0898,0.0898,0.0898,0.0898,0.0898,0.0898,0.0898,0.0842,0.0814,0.0814,0.0757,0.0729,0.0729,0.0729,0.0449,-0.0084,-0.0084,-0.0364,2.7609,2.7873,2.8225,2.8817,2.7954,2.704,2.7157,2.6798,2.6341,2.5884,2.6707,2.749,2.749,2.7994,2.8274,2.7929,2.8275,2.8479,2.811,2.7748,2.75,2.7298,2.6548,2.5923,2.5651,2.4692,2.4002,2.3732,2.234,2.1161,2.0456,1.9052,1.7826,1.687,1.6437,1.5705,1.4659,1.4101,1.3821,1.3881,1.3763,1.3689,1.3689,1.3689,1.3616,1.3492,1.3492,1.3309,1.301,1.301,1.2482,1.1694,1.157,1.0969,1.019,0.9965,0.9222,0.8324,0.8377,0.7868,0.7143,0.7037,0.7159,0.7273,0.6985,0.6972,0.7062,0.7062,0.6963,0.6786,0.6693,0.6454,0.6201,0.5973,0.5855,0.5785,0.5785,0.5349,0.4987,0.5067,0.4686,0.4326,0.4278,0.4269,0.4076,0.3493,0.337,0.3116,0.2429,0.2338,0.2263,0.2014,0.1344,0.0898,0.0898,0.0898,0.0898,0.0898,0.0898,0.0898,0.0898,0.0898,0.0898,0.0898,0.0898,0.0907,0.0896,0.0896,0.078,0.0549,0.0549,0.04,2.7824,2.8312,2.8826,2.9379,2.8216,2.704,2.7398,2.6778,2.6033,2.5832,2.6837,2.7785,2.7785,2.8255,2.8495,2.7991,2.8394,2.8583,2.7968,2.7899,2.7742,2.7304,2.6704,2.6034,2.5348,2.4451,2.37,2.3255,2.2181,2.16,2.16,2.0488,1.9169,1.774,1.7174,1.6311,1.508,1.4543,1.4145,1.3797,1.3645,1.3572,1.3492,1.3492,1.3492,1.3492,1.3492,1.3492,1.3492,1.3492,1.3156,1.2636,1.2505,1.1946,1.1205,1.1007,1.0295,0.9425,0.9275,0.8705,0.7932,0.738,0.7243,0.7208,0.6713,0.6722,0.6914,0.6914,0.678,0.6603,0.6611,0.6447,0.6214,0.6086,0.602,0.5987,0.5987,0.5766,0.5589,0.5665,0.5499,0.53,0.5206,0.5192,0.4935,0.4172,0.4075,0.3812,0.3051,0.2959,0.2903,0.2708,0.1928,0.1428,0.1428,0.1428,0.1344,0.1177,0.1177,0.1093,0.0898,0.0898,0.0898,0.0898,0.0906,0.0893,0.0913,0.0922,0.0926,0.0926,0.0917,0.0897,2.8738,2.9027,2.9405,2.9944,2.8782,2.749,2.749,2.7079,2.6536,2.591,2.7183,2.8407,2.8407,2.8869,2.931,2.9274,2.9003,2.8963,2.9513,2.8624,2.7912,2.787,2.6948,2.5819,2.4635,2.3728,2.3194,2.3184,2.276,2.2501,2.2501,2.1583,2.0162,1.8175,1.7651,1.6786,1.5507,1.5498,1.4911,1.3797,1.3797,1.3681,1.3492,1.3492,1.3492,1.3492,1.3492,1.3492,1.3492,1.3492,1.3492,1.3492,1.3492,1.2973,1.2261,1.205,1.1363,1.0419,0.9944,0.9519,0.9013,0.801,0.7602,0.733,0.6459,0.6441,0.6696,0.6696,0.6562,0.6387,0.6387,0.6387,0.6387,0.6387,0.628,0.621,0.621,0.605,0.5888,0.5888,0.5888,0.5784,0.5463,0.5404,0.5233,0.4769,0.4691,0.4411,0.3683,0.3597,0.3347,0.2764,0.2681,0.2681,0.2681,0.2681,0.243,0.1818,0.179,0.1512,0.0926,0.0898,0.0898,0.0898,0.0898,0.0913,0.0913,0.0973,0.0988,0.0987,0.0927,0.0897,2.8052,2.8312,2.8413,2.8991,2.7721,2.6537,2.732,2.6478,2.5698,2.6282,2.7458,2.842,2.842,2.8904,2.9405,2.9797,2.9775,2.9689,2.9667,2.8861,2.8045,2.7497,2.6482,2.5538,2.485,2.3932,2.325,2.2937,2.2361,2.2025,2.2025,2.1145,2.0097,1.8956,1.8517,1.7699,1.6481,1.5816,1.533,1.4939,1.4173,1.3634,1.3347,1.3233,1.3038,1.2833,1.2833,1.2833,1.2833,1.2833,1.2833,1.2833,1.2833,1.2653,1.2465,1.2636,1.191,1.0845,1.0926,1.0072,0.8874,0.8459,0.8191,0.7928,0.7343,0.6849,0.6505,0.6505,0.6465,0.6387,0.6387,0.6387,0.6387,0.6387,0.6383,0.635,0.635,0.6091,0.5948,0.6092,0.5925,0.5719,0.5614,0.5505,0.5329,0.5081,0.4919,0.4763,0.4512,0.4484,0.4426,0.4233,0.4125,0.3683,0.2792,0.2708,0.2625,0.243,0.2402,0.2319,0.2151,0.2124,0.1928,0.1512,0.1505,0.1339,0.0974,0.1004,0.1009,0.0987,0.0936,0.0907,2.7913,2.8366,2.8622,2.9027,2.7901,2.6822,2.7466,2.669,2.6016,2.6645,2.7689,2.8523,2.8523,2.8769,2.9131,2.9719,2.981,2.9701,2.9416,2.8817,2.7988,2.6857,2.5722,2.5018,2.4889,2.3764,2.3008,2.2814,2.2258,2.1883,2.1807,2.0928,2.0196,1.9729,1.9139,1.8345,1.731,1.6749,1.6192,1.5644,1.4811,1.4096,1.3439,1.3229,1.2902,1.2485,1.2485,1.2485,0.0,1.2485,1.2485,1.2485,1.2485,1.2485,1.2548,1.2711,1.2275,1.156,1.1606,1.0869,0.9805,0.9163,0.8507,0.7978,0.7962,0.7317,0.6586,0.6433,0.6387,0.6387,0.6387,0.6387,0.6387,0.6387,0.6387,0.6387,0.6387,0.6233,0.6125,0.626,0.6095,0.5937,0.5903,0.5724,0.5528,0.5296,0.5065,0.4873,0.4818,0.4791,0.4736,0.4736,0.4684,0.4294,0.3458,0.3375,0.3292,0.3042,0.3042,0.2931,0.2708,0.2708,0.2514,0.2151,0.2137,0.1988,0.1636,0.1438,0.1312,0.1302,0.1019,0.0909,0.0,2.8973,2.9638,2.9678,2.8852,2.7993,2.7842,2.7489,0.0,2.7003,2.7894,2.8733,2.8773,2.8597,2.8643,2.9323,2.9362,2.922,2.89,2.8543,2.7695,2.6047,2.49,2.44,2.4757,2.3367,2.256,2.2811,2.2342,2.1983,2.1794,2.0876,2.0379,2.0379,1.953,1.8754,1.807,1.8037,1.734,1.6008,1.5679,1.4897,1.3768,1.345,1.3001,1.252,1.2453,1.2453,1.2453,1.2453,1.2453,1.2453,1.2453,1.2453,1.2426,1.2441,1.2441,1.2383,1.1974,1.1786,1.1482,1.0025,0.8657,0.7721,0.8368,0.7853,0.6984,0.6592,0.6482,0.6449,0.642,0.6449,0.6482,0.6482,0.6515,0.6548,0.6548,0.6548,0.6548,0.6548,0.6548,0.6494,0.632,0.6115,0.5882,0.551,0.5176,0.4892,0.4788,0.4639,0.4546,0.4546,0.4546,0.4546,0.4546,0.4519,0.4267,0.371,0.3652,0.3403,0.2847,0.282,0.282,0.2764,0.2711,0.2702,0.2708,0.2211,0.1936,0.1851,0.1291,0.104,2.8373,0.0,2.8088,2.853,2.8036,2.7506,0.0,2.76,2.7338,2.774,2.8385,2.8989,2.9475,2.9045,2.9126,3.0589,2.9958,2.9349,2.9479,2.8314,2.7007,2.5684,2.5183,2.4897,2.474,2.3771,2.318,2.326,2.2226,2.1528,2.1491,2.0517,1.9948,1.9948,1.9399,1.9008,1.8831,1.8273,1.7643,1.6953,1.619,1.5356,1.444,1.3607,1.3036,1.2711,1.2065,1.1819,1.1819,1.1819,1.1819,1.1819,1.1819,1.1819,1.1848,1.2025,1.1992,1.1841,1.1912,1.1587,1.0965,1.0212,0.9365,0.8692,0.9029,0.8409,0.7552,0.732,0.7232,0.7101,0.6548,0.6811,0.7232,0.7232,0.7647,0.8004,0.8004,0.8004,0.8004,0.8004,0.8004,0.7827,0.7293,0.7021,0.6684,0.6088,0.5691,0.5433,0.5409,0.5238,0.5105,0.5105,0.5018,0.4959,0.4959,0.4684,0.4436,0.4294,0.4294,0.4239,0.4073,0.4073,0.3849,0.3403,0.2941,0.2732,0.2768,0.2604,0.2512,0.2494,0.2347,0.228,2.8166,2.8278,2.8376,2.843,2.8338,2.8247,2.8203,2.8007,2.7892,2.8149,2.8405,2.8726,2.9046,2.8883,2.9082,3.0283,3.001,2.9572,2.9303,2.7939,2.6581,2.5611,2.4997,2.453,2.4267,2.3431,2.2853,2.2757,2.1906,2.1273,2.1083,2.0317,1.9872,1.9793,1.9139,1.8891,1.9108,1.8484,1.7963,1.7458,1.6644,1.5783,1.4911,1.4214,1.365,1.3183,1.2466,1.2104,1.1973,1.1709,1.1503,1.1386,1.1533,1.1503,1.1386,1.1531,1.1487,1.1371,1.1363,1.0988,1.0509,1.0362,0.9778,0.92,0.9723,0.9308,0.8569,0.8101,0.7972,0.7879,0.7456,0.7647,0.7972,0.7972,0.8231,0.849,0.849,0.849,0.849,0.849,0.849,0.8393,0.8037,0.778,0.7442,0.6764,0.6254,0.5871,0.5558,0.529,0.5128,0.5128,0.5042,0.5011,0.5011,0.4818,0.468,0.468,0.4629,0.4605,0.4605,0.4546,0.4349,0.4015,0.3691,0.3556,0.3589,0.3266,0.3125,0.3095,0.2815,0.2708,2.78,2.8573,2.9366,2.8736,2.9034,2.9319,2.8533,2.8476,2.8554,2.8365,2.8365,2.8387,2.8562,2.8699,2.9006,2.9702,2.9977,2.9823,2.9051,2.7713,2.6584,2.5911,2.4811,2.4008,2.3738,2.2849,2.2208,2.1955,2.1423,2.0936,2.06,2.0075,1.9732,1.9619,1.8828,1.86,1.8994,1.8538,1.8092,1.7699,1.6996,1.6223,1.5362,1.496,1.4468,1.3888,1.3243,1.2763,1.2432,1.1927,1.1463,1.1063,1.1386,1.132,1.1034,1.1034,1.1034,1.099,1.0711,1.0375,1.0164,1.0428,0.9918,0.9361,1.022,1.0107,0.9558,0.8911,0.8688,0.8619,0.8522,0.8587,0.8646,0.8646,0.8748,0.8812,0.8812,0.8812,0.8812,0.8812,0.8812,0.878,0.8683,0.8502,0.8167,0.742,0.6933,0.6386,0.5764,0.5426,0.5226,0.5226,0.5226,0.5199,0.5117,0.5089,0.5062,0.4956,0.4822,0.4743,0.4743,0.4629,0.457,0.457,0.457,0.457,0.457,0.4042,0.379,0.3766,0.3236,0.2986,2.7447,2.8573,2.9366,2.8736,2.9034,2.9319,2.869,2.8587,2.8587,2.8554,2.8554,2.882,2.9665,2.945,2.9615,3.104,3.0577,2.991,2.9604,2.8352,2.7289,2.6941,2.5607,2.4486,2.3762,2.2862,2.2113,2.1688,2.0691,2.0094,2.0017,1.924,1.8793,1.8793,1.8518,1.8445,1.8517,1.805,1.7771,1.7699,1.7174,1.6693,1.6202,1.5449,1.5078,1.4923,1.3986,1.3088,1.2335,1.2362,1.1698,1.0726,1.1048,1.0975,1.0689,1.0689,1.0689,1.0653,1.063,1.0375,1.0119,1.0159,0.9722,0.9269,0.9695,0.9781,0.9724,0.9814,0.96,0.923,0.8651,0.8903,0.9358,0.9358,0.9811,1.0269,1.0269,1.0269,1.0269,1.0269,1.0269,1.0072,0.9454,0.9322,0.8963,0.8006,0.7717,0.7446,0.7048,0.6862,0.6756,0.6756,0.6756,0.6561,0.6046,0.5991,0.5778,0.527,0.5014,0.4873,0.4873,0.4846,0.4846,0.4846,0.4846,0.4846,0.4846,0.4732,0.4653,0.4522,0.4439,0.4325,2.6579,2.7841,2.894,2.8655,2.9292,2.974,2.8804,2.8587,2.8587,2.8587,2.8587,2.8825,2.9626,2.9726,2.9958,3.0821,3.0466,2.9825,2.9085,2.8149,2.7344,2.6806,2.5563,2.4592,2.4124,2.3162,2.232,2.1745,2.0749,1.9979,1.9533,1.888,1.8395,1.8239,1.7936,1.7864,1.803,1.7347,1.7119,1.7327,1.6872,1.6581,1.6384,1.6019,1.5797,1.5633,1.459,1.3818,1.3197,1.2364,1.1503,1.0763,1.0826,1.0609,1.0324,1.0324,1.0214,1.006,1.006,0.9965,0.9843,0.9964,0.9671,0.941,1.0002,1.0069,1.0007,1.038,1.0284,1.0009,0.9716,0.9881,1.0104,1.0104,1.0364,1.0593,1.0593,1.0593,1.0593,1.0593,1.0593,1.0491,1.0136,1.0104,0.975,0.8761,0.8441,0.8096,0.7389,0.7197,0.7112,0.7112,0.7112,0.6999,0.6701,0.6701,0.6268,0.5266,0.5069,0.4983,0.4897,0.4897,0.4897,0.4897,0.4897,0.4897,0.4897,0.4897,0.4873,0.4794,0.4794,0.4767,2.5643,2.6904,2.818,2.818,2.9089,2.9821,2.917,2.879,2.8668,2.8953,2.8899,2.898,2.9544,3.0003,3.0306,3.0272,3.025,2.9879,2.8773,2.8085,2.7431,2.6748,2.5627,2.4727,2.4332,2.3376,2.2479,2.1751,2.0904,2.0026,1.9153,1.87,1.8272,1.7879,1.7511,1.7422,1.7595,1.6836,1.663,1.7006,1.6591,1.6413,1.6413,1.6413,1.6255,1.5969,1.5099,1.4399,1.3821,1.2588,1.1674,1.1037,1.0803,1.0411,0.9987,0.9987,0.9826,0.9588,0.9588,0.9588,0.9632,0.9773,0.964,0.9537,1.0228,1.0241,1.0077,1.0536,1.0588,1.053,1.0573,1.0539,1.0506,1.0579,1.0593,1.0593,1.0593,1.0593,1.0593,1.0593,1.0593,1.0593,1.0593,1.0593,1.0297,0.9451,0.9135,0.8712,0.7847,0.7609,0.7488,0.7488,0.7488,0.7434,0.7295,0.716,0.6647,0.5645,0.5559,0.5449,0.5226,0.5199,0.5144,0.4983,0.4983,0.4983,0.4983,0.4983,0.4983,0.4956,0.4956,0.4928,2.4924,2.5995,2.6915,2.6915,2.7841,2.8994,3.0038,2.9401,2.8912,3.0052,2.9821,2.9557,2.9982,3.0532,3.0703,2.9971,3.0308,3.0334,2.9371,2.8734,2.8124,2.7488,2.6243,2.5056,2.4123,2.3274,2.2384,2.1397,2.0806,1.9998,1.8885,1.8668,1.8329,1.7718,1.756,1.7453,1.7326,1.6822,1.6725,1.7006,1.6591,1.6413,1.6413,1.6413,1.6146,1.5704,1.545,1.4576,1.3352,1.3442,1.2711,1.152,1.118,1.0481,0.9624,0.9624,0.9636,0.9588,0.9588,0.9588,0.9588,0.9617,0.9532,0.9477,0.985,0.986,0.9778,1.0078,1.0223,1.036,1.0551,1.0354,1.0214,1.0526,1.0593,1.0593,1.0593,1.0593,1.0593,1.0593,1.0593,1.0593,1.0593,1.0593,1.0461,1.0099,0.9807,0.9486,0.9105,0.885,0.8672,0.8672,0.8672,0.8454,0.7898,0.7375,0.7058,0.6972,0.695,0.6701,0.6127,0.61,0.5832,0.527,0.527,0.527,0.527,0.527,0.5211,0.5097,0.5097,0.5014,2.4272,2.5858,2.7332,2.7315,2.7917,2.8681,2.9174,2.8926,2.8831,2.9659,2.9957,2.9977,2.9767,3.0104,3.0081,2.9033,2.928,2.9342,2.8656,2.7927,2.74,2.7144,2.5973,2.5047,2.4653,2.3675,2.2723,2.1901,2.1091,2.0251,1.9396,1.9046,1.8541,1.7846,1.7773,1.7462,1.6872,1.6693,1.6618,1.6632,1.6456,1.6413,1.6392,1.6112,1.5884,1.5659,1.4991,1.4384,1.3746,1.3188,1.2623,1.2055,1.1506,1.086,1.0218,1.0131,0.9873,0.9588,0.9588,0.9588,0.9588,0.9588,0.9562,0.9601,0.9921,1.0132,1.0307,1.0478,1.0588,1.0625,1.0462,1.0396,1.0452,1.0566,1.0593,1.0593,1.0593,1.0593,1.0593,1.0593,1.0593,1.0593,1.0593,1.0593,1.0432,0.992,0.9753,0.9512,0.9004,0.8878,0.8804,0.8804,0.8804,0.8699,0.8474,0.8268,0.8162,0.8162,0.7488,0.6999,0.6783,0.6756,0.6647,0.6436,0.605,0.5859,0.5859,0.5598,0.5593,0.5778,0.5905,0.5864,2.3649,2.531,2.6854,2.6797,2.7501,2.8335,2.8789,2.8884,2.9085,2.9916,3.0242,3.0161,2.9347,2.9585,2.9417,2.7964,2.8277,2.8419,2.7626,2.7065,2.6572,2.6184,2.5511,2.4908,2.4541,2.3723,2.2935,2.2318,2.1453,2.0591,1.9775,1.9434,1.8948,1.8278,1.8061,1.765,1.7022,1.6825,1.6637,1.6459,1.6459,1.6431,1.6392,1.5898,1.5608,1.5421,1.4645,1.4171,1.3883,1.3207,1.274,1.2414,1.1963,1.1391,1.0821,1.0558,1.0208,0.9821,0.9666,0.9588,0.9588,0.9588,0.9588,0.9672,1.0002,1.0258,1.0471,1.0675,1.0789,1.0808,1.053,1.0537,1.0597,1.0661,1.0649,1.0649,1.0624,1.0593,1.0593,1.0593,1.0593,1.0593,1.0593,1.0512,1.0318,0.988,0.9666,0.9399,0.8971,0.8864,0.8804,0.8804,0.8804,0.8804,0.8804,0.8804,0.8804,0.8804,0.8082,0.7542,0.7375,0.7348,0.7268,0.7112,0.6701,0.648,0.648,0.6216,0.6211,0.6485,0.661,0.6628,2.3052,2.4098,2.5013,2.5024,2.6337,2.7931,2.9231,2.9467,2.9775,3.1033,3.0798,3.0011,2.8804,2.9081,2.8825,2.6822,2.7507,2.7838,2.6498,2.6294,2.5868,2.4651,2.4892,2.4728,2.3512,2.3253,2.2962,2.2427,2.1825,2.1004,1.9888,1.9798,1.9552,1.9013,1.8417,1.8038,1.7897,1.7307,1.686,1.6599,1.6588,1.6524,1.6392,1.5925,1.5432,1.4976,1.45,1.402,1.3597,1.3597,1.3218,1.2618,1.2618,1.211,1.1341,1.0813,1.0533,1.0318,0.9795,0.9614,0.9614,0.9614,0.9614,0.9672,0.9994,1.0097,1.017,1.052,1.0697,1.0793,1.08,1.071,1.0644,1.0763,1.0807,1.0776,1.0618,1.0586,1.0586,1.0586,1.0586,1.0586,1.0586,1.0307,1.0107,1.0077,0.9584,0.9211,0.9211,0.8958,0.8804,0.8804,0.8804,0.8804,0.8804,0.8804,0.8804,0.8804,0.8804,0.8533,0.7925,0.7898,0.7664,0.7139,0.7112,0.7112,0.7117,0.7117,0.7117,0.7117,0.7122,0.7117,2.4302,2.5038,2.5952,2.7223,2.7916,2.8641,2.99,2.9793,2.9621,3.0422,3.0165,2.9393,2.8124,2.8033,2.7718,2.6307,2.6718,2.7124,2.6712,2.619,2.5757,2.5378,2.4631,2.4013,2.3668,2.2709,2.2075,2.1931,2.1301,2.0781,2.0448,2.0435,2.0182,1.9578,1.8965,1.8436,1.7897,1.6968,1.6431,1.6252,1.5907,1.5972,1.6381,1.5566,1.5132,1.4956,1.4159,1.3721,1.3597,1.3597,1.3491,1.329,1.3194,1.2788,1.2209,1.1963,1.1541,1.1074,1.0922,1.0804,1.0719,1.0719,1.0719,1.0735,1.0841,1.1027,1.1175,1.0892,1.0997,1.1205,1.1041,1.098,1.0977,1.0982,1.0996,1.094,1.0656,1.0781,1.0809,1.0343,1.0433,1.0515,1.0295,1.0184,0.9995,0.9668,0.9457,0.9241,0.8958,0.8858,0.8804,0.8804,0.8804,0.8804,0.8804,0.8804,0.8804,0.8804,0.8804,0.8725,0.8533,0.8533,0.8454,0.8295,0.7883,0.7778,0.8015,0.7745,0.7739,0.8027,0.8369,0.834,2.4105,2.5054,2.62,2.7507,2.8788,2.9909,3.0678,3.0293,2.9988,3.0555,3.0041,2.916,2.8139,2.7968,2.7583,2.6399,2.6719,2.6883,2.6168,2.5712,2.516,2.4433,2.3809,2.3339,2.3085,2.2286,2.1783,2.1783,2.1166,2.0775,2.0775,2.0737,2.042,1.9825,1.9207,1.8597,1.7977,1.6936,1.6305,1.6162,1.5708,1.5643,1.598,1.5175,1.4805,1.4763,1.3941,1.3597,1.3597,1.3597,1.3597,1.3586,1.3515,1.3242,1.2885,1.2594,1.2193,1.1765,1.1491,1.135,1.1267,1.1225,1.12,1.12,1.12,1.1438,1.1639,1.1303,1.1448,1.1688,1.1568,1.1536,1.1484,1.1234,1.1397,1.1494,1.1228,1.1396,1.1518,1.1084,1.1025,1.0974,1.0773,1.066,1.0476,1.0201,1.0034,0.9879,0.9636,0.9413,0.9361,0.9562,0.9211,0.9035,0.9263,0.9087,0.8929,0.8883,0.8883,0.8857,0.8804,0.8804,0.8804,0.8804,0.8448,0.8364,0.8561,0.8409,0.8486,0.8732,0.9158,0.9183,2.3417,2.4729,2.609,2.6919,2.9339,3.1508,3.1508,3.094,3.0555,3.1048,3.0234,2.9261,2.8536,2.8362,2.7956,2.6893,2.7072,2.6813,2.5289,2.5012,2.4355,2.2711,2.2808,2.2799,2.2233,2.1986,2.1832,2.1832,2.1266,2.0913,2.0913,2.08,2.045,1.985,1.9213,1.8643,1.8119,1.6988,1.6386,1.6243,1.5731,1.544,1.5297,1.4753,1.4492,1.4405,1.3845,1.3597,1.3597,1.3597,1.3597,1.3597,1.3597,1.3515,1.3362,1.2861,1.2618,1.2389,1.1789,1.1566,1.1525,1.1401,1.1351,1.136,1.136,1.1576,1.1799,1.1746,1.195,1.2178,1.2157,1.2138,1.2007,1.1525,1.1874,1.2311,1.212,1.2278,1.2435,1.2369,1.2008,1.1698,1.1665,1.145,1.129,1.1264,1.1002,1.0788,1.0788,1.0364,1.0261,1.0745,0.9917,0.9536,1.0038,0.9614,0.9283,0.9185,0.9106,0.9035,0.891,0.8831,0.8818,0.8844,0.8844,0.8871,0.8925,0.9164,0.9291,0.9297,0.9626,0.9775,2.6836,2.6648,2.6564,2.9626,3.128,3.2188,3.2188,3.1256,3.0296,2.9875,3.0023,2.9679,2.8029,2.7287,2.6893,2.6727,2.593,2.5391,2.5528,2.5103,2.4626,2.423,2.3544,2.303,2.2891,2.1958,2.1343,2.1343,2.1113,2.0972,2.0972,2.0899,2.0586,1.998,1.9259,1.8644,1.8119,1.6661,1.5951,1.5896,1.5045,1.4642,1.4605,1.4644,1.4398,1.3933,1.371,1.3597,1.3597,1.3597,1.3597,1.3597,1.3597,1.3586,1.3539,1.342,1.329,1.316,1.3016,1.2866,1.2715,1.2691,1.2627,1.252,1.252,1.2586,1.2553,1.212,1.2058,1.2056,1.1858,1.1802,1.1831,1.1958,1.241,1.2772,1.2793,1.2802,1.264,1.2121,1.1834,1.1629,1.136,1.1268,1.1183,1.109,1.0913,1.0788,1.0788,1.0686,1.0661,1.0788,1.0585,1.0491,1.0618,1.0517,1.044,1.0415,1.0012,0.9762,0.9736,0.9133,0.8891,0.9118,0.9118,0.9344,0.9804,0.987,0.9897,0.9903,1.0265,1.0278,2.6717,2.718,2.795,3.1098,3.2136,3.2305,3.1982,3.1382,3.0612,2.9587,2.9417,2.9235,2.8531,2.7601,2.6944,2.7021,2.6171,2.5435,2.5206,2.4855,2.4452,2.3911,2.3344,2.3003,2.3003,2.2187,2.1688,2.1688,2.1326,2.1106,2.1106,2.101,2.0514,1.9605,1.9206,1.8568,1.7667,1.6666,1.6132,1.6107,1.5177,1.4743,1.4731,1.454,1.422,1.3797,1.3716,1.3668,1.3597,1.3597,1.3597,1.3597,1.3597,1.3597,1.3597,1.3597,1.3563,1.3491,1.342,1.3334,1.3224,1.3123,1.3051,1.2978,1.2929,1.2905,1.2832,1.2554,1.248,1.2453,1.2307,1.2277,1.2377,1.2732,1.3092,1.3296,1.3139,1.33,1.3314,1.2756,1.2456,1.2213,1.2054,1.2017,1.1983,1.1925,1.1841,1.1816,1.1816,1.1592,1.1518,1.1792,1.1317,1.1107,1.1392,1.1166,1.0948,1.0889,1.0636,1.044,1.0389,0.9987,0.959,0.9214,0.9187,0.9439,0.9896,1.0039,1.0084,1.0009,1.0478,1.0494,2.5873,2.7515,2.95,3.1547,3.2044,3.1905,3.1351,3.1136,3.0766,2.9797,2.9058,2.8673,2.9012,2.8057,2.7226,2.7226,2.6549,2.5724,2.4859,2.4611,2.4208,2.326,2.3068,2.3024,2.3024,2.2518,2.2208,2.2208,2.1616,2.1188,2.1081,2.0959,2.033,1.9065,1.898,1.8376,1.7253,1.6757,1.65,1.65,1.5635,1.521,1.5187,1.4697,1.4292,1.3975,1.3868,1.3739,1.3634,1.3621,1.3597,1.3597,1.3597,1.3597,1.3597,1.3597,1.3597,1.3586,1.3467,1.342,1.3372,1.321,1.3148,1.3099,1.2978,1.2929,1.2929,1.2905,1.2954,1.2993,1.2925,1.2954,1.3057,1.334,1.3586,1.3673,1.3405,1.3755,1.3977,1.3584,1.3164,1.2905,1.2905,1.2905,1.2905,1.2905,1.2905,1.2905,1.2905,1.2505,1.2406,1.2856,1.2067,1.1685,1.22,1.1785,1.1451,1.1325,1.125,1.1175,1.1141,1.104,1.0561,0.9676,0.9597,0.9729,1.0047,1.0279,1.0265,1.0084,1.0648,1.0623,2.7609,2.9122,3.0247,3.0586,3.0663,3.0632,3.054,3.0063,2.9797,3.0186,2.9725,2.895,2.7857,2.7042,2.6518,2.6518,2.5426,2.4743,2.5155,2.4704,2.4269,2.4135,2.3745,2.3508,2.3508,2.2709,2.2208,2.2208,2.1688,2.1145,2.0607,2.0513,1.9919,1.8712,1.8428,1.8016,1.7384,1.6778,1.65,1.6488,1.5954,1.57,1.57,1.5611,1.5276,1.472,1.4093,1.3797,1.3763,1.3644,1.3597,1.3597,1.3597,1.3597,1.3597,1.3597,1.3597,1.3597,1.3586,1.3491,1.3396,1.3372,1.3276,1.318,1.3099,1.3075,1.3061,1.2929,1.3145,1.334,1.3003,1.3154,1.335,1.3037,1.328,1.363,1.3912,1.4051,1.3977,1.3584,1.3164,1.2905,1.2905,1.2905,1.2905,1.2905,1.2905,1.2905,1.2905,1.2832,1.2832,1.2881,1.2749,1.27,1.2783,1.2725,1.2676,1.2652,1.2215,1.2088,1.2433,1.2,1.1686,1.1528,1.1194,1.115,1.144,1.1459,1.123,1.0772,1.1152,1.0894,2.834,2.9368,2.9925,3.0309,3.0402,3.0294,2.9925,2.9602,2.9371,2.9294,2.9033,2.8781,2.8565,2.7349,2.6402,2.6402,2.5226,2.441,2.4697,2.4502,2.4302,2.4302,2.4114,2.3994,2.3994,2.3377,2.2867,2.2595,2.2123,2.1437,2.0545,2.0462,1.9899,1.8634,1.8486,1.81,1.7404,1.7141,1.6833,1.65,1.6293,1.6194,1.6173,1.592,1.5456,1.488,1.457,1.4176,1.3797,1.3739,1.3668,1.3597,1.3597,1.3597,1.3597,1.3597,1.3597,1.3597,1.3597,1.3563,1.3491,1.342,1.3362,1.329,1.319,1.3176,1.3178,1.3313,1.3303,1.3273,1.3238,1.3369,1.3398,1.3013,1.359,1.4072,1.3545,1.3588,1.3636,1.3242,1.3032,1.2905,1.2905,1.2905,1.2905,1.2905,1.2905,1.2905,1.2905,1.2905,1.2905,1.2905,1.2905,1.3003,1.3213,1.3232,1.3232,1.3232,1.2997,1.2868,1.282,1.2594,1.257,1.2793,1.2254,1.1873,1.1695,1.1958,1.1919,1.164,1.1916,1.1858,2.8414,2.901,2.9223,2.9756,2.9879,2.9756,2.9248,2.9166,2.9012,2.8504,2.8411,2.855,2.9058,2.778,2.6595,2.6433,2.5364,2.4564,2.4564,2.4425,2.4302,2.4302,2.4302,2.4302,2.4302,2.3867,2.3443,2.3091,2.254,2.1709,2.0534,2.037,1.9737,1.8461,1.84,1.8059,1.7432,1.737,1.7128,1.6693,1.6693,1.6693,1.6671,1.6324,1.5854,1.5288,1.5017,1.4593,1.4069,1.3881,1.3739,1.3644,1.361,1.3597,1.3597,1.3597,1.3597,1.3597,1.3597,1.3597,1.3586,1.3491,1.3443,1.342,1.329,1.3323,1.3484,1.3686,1.3716,1.3671,1.3726,1.3723,1.3616,1.3169,1.3769,1.4228,1.3389,1.3281,1.3262,1.2964,1.2905,1.2905,1.2905,1.2969,1.3032,1.2925,1.2993,1.3023,1.2915,1.2993,1.3037,1.3037,1.3135,1.3281,1.3486,1.3506,1.3467,1.335,1.335,1.3262,1.3071,1.3037,1.3184,1.3496,1.3239,1.2832,1.2308,1.2653,1.2712,1.2501,1.2757,1.2799,2.788,2.8272,2.8296,2.8479,2.8504,2.8504,2.8473,2.8458,2.8442,2.8411,2.8411,2.8411,2.8458,2.7857,2.7134,2.651,2.5749,2.525,2.525,2.4697,2.4302,2.4302,2.4302,2.4302,2.4302,2.3867,2.3595,2.3573,2.2709,2.1673,2.0456,1.9993,1.9184,1.7963,1.7801,1.7665,1.7496,1.7303,1.7199,1.7157,1.7157,1.7157,1.7157,1.7136,1.6884,1.6358,1.5333,1.488,1.4789,1.4093,1.3797,1.3773,1.3644,1.3597,1.3597,1.3597,1.3597,1.3597,1.3597,1.3597,1.3597,1.3586,1.3597,1.3563,1.3433,1.3691,1.4037,1.3932,1.4512,1.5066,1.4496,1.4344,1.4208,1.36,1.3525,1.3662,1.3968,1.3457,1.2935,1.2905,1.2905,1.2905,1.2905,1.3213,1.334,1.2964,1.3223,1.333,1.2954,1.3232,1.3477,1.3477,1.3802,1.389,1.3545,1.3506,1.334,1.2964,1.2935,1.3076,1.3457,1.3477,1.3486,1.3506,1.4272,1.4449,1.3995,1.3987,1.3746,1.3259,1.3587,1.3288,2.761,2.8063,2.821,2.8259,2.8348,2.8411,2.8411,2.8411,2.8411,2.8411,2.8411,2.8411,2.8411,2.7857,2.7319,2.7072,2.6072,2.5296,2.5296,2.4712,2.4302,2.4302,2.4302,2.4302,2.4302,2.4156,2.3931,2.3616,2.329,2.2316,2.05,2.025,1.9459,1.7943,1.7842,1.7727,1.7496,1.7378,1.7287,1.7199,1.7199,1.7199,1.7199,1.7199,1.7115,1.6905,1.6216,1.57,1.531,1.464,1.4328,1.4201,1.3776,1.3597,1.3597,1.3597,1.3597,1.3597,1.3597,1.3597,1.3597,1.3597,1.3597,1.3586,1.3539,1.3652,1.3885,1.4343,1.4501,1.4596,1.4888,1.4971,1.4984,1.5032,1.4613,1.4288,1.4599,1.3939,1.3203,1.2954,1.2905,1.2993,1.3232,1.3408,1.3545,1.3636,1.3792,1.3831,1.3685,1.3584,1.3506,1.3506,1.3398,1.3379,1.3496,1.3506,1.3447,1.3291,1.3535,1.3633,1.3516,1.3506,1.3769,1.4316,1.4355,1.4133,1.3714,1.4287,1.4441,1.4275,1.4391,1.4412,2.7163,2.7635,2.7835,2.8137,2.8259,2.8348,2.8387,2.8411,2.8411,2.8411,2.8411,2.8411,2.8411,2.8042,2.7734,2.7734,2.6542,2.5635,2.5635,2.485,2.4302,2.4302,2.4502,2.4564,2.4333,2.4502,2.4422,2.3882,2.3696,2.2817,2.1019,2.0606,1.9635,1.7963,1.7862,1.7747,1.757,1.7453,1.735,1.7274,1.722,1.7199,1.7199,1.7199,1.7199,1.7178,1.6884,1.6411,1.5864,1.5253,1.4858,1.4583,1.4084,1.3823,1.3668,1.3621,1.3597,1.3597,1.3597,1.3597,1.3597,1.3597,1.3597,1.3597,1.3597,1.37,1.3979,1.4676,1.464,1.4584,1.5358,1.5424,1.5356,1.564,1.5247,1.4895,1.5059,1.4324,1.3544,1.3219,1.3209,1.3313,1.3599,1.3896,1.4143,1.4244,1.4392,1.4459,1.4284,1.4172,1.4034,1.3886,1.3757,1.3653,1.3557,1.3618,1.3533,1.3301,1.3717,1.3766,1.3311,1.3437,1.3711,1.4141,1.4114,1.3968,1.3695,1.458,1.5,1.5,1.5,1.5146,0.0,0.0,0.0,2.7934,2.8186,2.8235,2.8348,2.8411,2.8411,2.8411,2.8411,2.8411,2.8411,2.8381,2.8381,2.8381,2.7203,2.6296,2.6296,2.5142,2.4317,2.4333,2.4896,2.505,2.4425,2.4927,2.5019,2.4379,2.3903,2.316,2.2061,2.0955,1.9614,1.799,1.7774,1.7699,1.7699,1.7508,1.7404,1.7404,1.7253,1.7199,1.7199,1.7199,1.7199,1.7199,1.7199,1.6947,1.6466,1.5864,1.5354,1.4903,1.4629,1.4224,1.3787,1.3668,1.3597,1.3597,1.3621,1.361,1.3597,1.3621,1.361,1.3597,1.3597,1.3931,1.4386,1.4863,1.4997,1.5178,1.5918,1.5703,1.5313,1.5323,1.5333,1.5333,1.5333,1.4609,1.3907,1.3755,1.3821,1.3937,1.3947,1.47,1.5144,1.471,1.5023,1.5144,1.471,1.5023,1.5113,1.4659,1.4948,1.4777,1.3789,1.3821,1.3626,1.2988,1.3446,1.352,1.2983,1.3355,1.3385,1.2993,1.374,1.4133,1.4153,1.4962,1.54,1.541,1.541,1.541,2.5765,0.0,0.0,0.0,0.0,0.0,2.8235,2.8323,2.8411,2.8411,2.8411,2.8411,2.8411,2.7996,2.7673,2.7673,2.6934,2.6364,2.6364,2.5179,2.4487,2.4979,2.5189,2.5419,2.5711,2.5481,2.5219,2.5035,2.4453,2.3495,2.2083,2.0245,1.9029,1.8575,1.8079,1.7801,1.7699,1.7543,1.744,1.7404,1.7253,1.7199,1.7199,1.7199,1.7199,1.7199,1.7199,1.7136,1.6955,1.6355,1.6017,1.5832,1.4971,1.4514,1.426,1.3871,1.3692,1.3668,1.4046,1.3928,1.3658,1.4046,1.3928,1.3597,1.3597,1.3679,1.3948,1.4769,1.4997,1.5204,1.6107,1.5966,1.568,1.601,1.6102,1.6064,1.5902,1.5509,1.5045,1.4471,1.4375,1.4502,1.4851,1.5113,1.5356,1.5511,1.5652,1.5682,1.5562,1.5416,1.5113,1.4659,1.4411,1.4138,1.3861,1.3877,1.3957,1.4106,1.459,1.478,1.4633,1.4743,1.4887,1.5069,1.5007,1.5061,1.5249,1.5057,1.5117,1.541,1.541,1.541,2.4847,2.5178,2.5523,2.6637,0.0,0.0,2.7423,2.7436,2.741,2.7152,2.7106,2.7178,2.7432,2.7157,2.6919,2.698,2.6395,2.5949,2.5949,2.4995,2.4435,2.4835,2.541,2.5687,2.5481,2.5619,2.5481,2.4912,2.4512,2.3622,2.2083,2.0633,1.9518,1.882,1.8459,1.8119,1.7794,1.7645,1.7543,1.744,1.7337,1.7253,1.7199,1.7199,1.7199,1.7199,1.7199,1.7199,1.7178,1.6829,1.6561,1.6324,1.5622,1.5208,1.4915,1.4594,1.4398,1.4351,1.4663,1.4524,1.4246,1.435,1.4186,1.3905,1.3668,1.3597,1.3741,1.45,1.4987,1.537,1.5711,1.5887,1.607,1.634,1.6413,1.6374,1.6249,1.61,1.578,1.508,1.4999,1.5144,1.541,1.5641,1.5828,1.6075,1.6116,1.6116,1.6116,1.591,1.559,1.5103,1.4818,1.4557,1.4286,1.4328,1.4543,1.4956,1.5428,1.5729,1.5744,1.5681,1.5663,1.5729,1.5464,1.5388,1.5537,1.5297,1.5233,1.541,1.541,1.541,2.3743,2.3892,2.4352,2.6141,2.6596,0.0,2.6237,2.6189,2.6061,2.5612,2.5547,2.5762,2.6306,2.6337,2.6329,2.6465,2.5804,2.5275,2.5296,2.4773,2.4441,2.4533,2.5641,2.5933,2.4764,2.5573,2.5696,2.4502,2.4286,2.3631,2.2249,2.1619,2.0584,1.9027,1.8868,1.85,1.7916,1.776,1.7625,1.7496,1.7432,1.7329,1.7199,1.7199,1.7199,1.7199,1.7199,1.7199,1.7199,1.7199,1.6947,1.6552,1.6389,1.6061,1.5654,1.5488,1.5389,1.5333,1.5355,1.5277,1.5062,1.4674,1.4489,1.4303,1.3823,1.3644,1.3714,1.4179,1.4935,1.5535,1.5163,1.5691,1.635,1.6392,1.6413,1.6413,1.6413,1.6459,1.6296,1.5722,1.5742,1.5862,1.5862,1.6262,1.6602,1.6602,1.6602,1.6602,1.6602,1.6602,1.6413,1.5941,1.5899,1.565,1.5038,1.5164,1.5394,1.5661,1.6217,1.6526,1.6582,1.6418,1.6133,1.5698,1.5498,1.5383,1.5383,1.5617,1.5613,1.54,1.542,1.5439,2.2454,2.2736,2.3031,2.4323,2.4725,0.0,2.584,2.6119,2.6298,2.6665,2.7136,2.7512,2.7625,2.7209,2.6892,2.7017,2.5932,2.5116,2.5275,2.5189,2.5333,2.5918,2.6248,2.6488,2.6765,2.6026,2.5389,2.5112,2.4255,2.3614,2.3308,2.2024,2.0934,2.0104,1.9243,1.85,1.7916,1.776,1.7625,1.7496,1.7432,1.7329,1.7199,1.7199,1.7199,1.7199,1.7199,1.7199,1.7199,1.7199,1.7157,1.7031,1.6616,1.6346,1.6105,1.5698,1.5488,1.5433,1.5756,1.5601,1.5288,1.5456,1.5017,1.4373,1.428,1.3952,1.3714,1.4179,1.4707,1.5194,1.5484,1.5691,1.5946,1.6319,1.6413,1.6413,1.6413,1.674,1.7024,1.686,1.6877,1.6905,1.6905,1.7407,1.7776,1.7776,1.7776,1.7776,1.7776,1.7776,1.7585,1.713,1.7074,1.683,1.6223,1.6651,1.6912,1.6869,1.7427,1.7736,1.7779,1.7725,1.7438,1.6874,1.6259,1.5953,1.5924,1.5892,1.5666,1.5333,1.5532,1.5643,2.1377,2.1904,2.2602,2.3432,2.3925,0.0,0.0,2.4882,2.5057,2.4773,2.5177,2.5571,2.5614,2.579,2.5983,2.6126,2.5508,2.515,2.5596,2.5418,2.5391,2.5788,2.6472,2.6749,2.6395,2.6057,2.5564,2.4835,2.4277,2.3846,2.3595,2.2871,2.196,2.0887,2.0325,1.9506,1.835,1.8288,1.8023,1.7604,1.7502,1.7406,1.7352,1.7261,1.7253,1.7308,1.7233,1.7199,1.7199,1.7199,1.7199,1.7178,1.6947,1.6808,1.671,1.6484,1.6312,1.6238,1.6423,1.6284,1.5988,1.591,1.5534,1.504,1.4834,1.4396,1.4052,1.4286,1.466,1.5049,1.5287,1.5691,1.6122,1.635,1.6609,1.6786,1.6786,1.7251,1.7644,1.7644,1.7902,1.8011,1.7699,1.7902,1.8093,1.8093,1.8093,1.8093,1.8093,1.8093,1.8028,1.7763,1.774,1.7634,1.7324,1.7581,1.7844,1.8081,1.8375,1.867,1.8951,1.8697,1.8267,1.7672,1.6989,1.6652,1.6652,1.6296,1.5965,1.56,1.5746,1.5798,2.0563,2.1165,2.2203,2.2831,2.3313,2.3555,0.0,0.0,0.0,2.2997,2.3253,2.3639,2.3688,2.4447,2.5085,2.5107,2.5035,2.5159,2.5625,2.55,2.5431,2.5652,2.6573,2.6773,2.5788,2.6241,2.5949,2.4425,2.4548,2.4411,2.376,2.3638,2.2929,2.1472,2.136,2.0506,1.882,1.8806,1.8424,1.7699,1.7591,1.7516,1.7496,1.7323,1.7308,1.7384,1.7253,1.7199,1.7199,1.7199,1.7199,1.7199,1.7199,1.7199,1.7199,1.7199,1.7136,1.7044,1.7002,1.6876,1.6697,1.6262,1.6049,1.5878,1.5405,1.4993,1.4668,1.4585,1.4828,1.5102,1.5023,1.5708,1.6441,1.6534,1.687,1.723,1.7341,1.7847,1.8255,1.8255,1.8762,1.8975,1.8375,1.8363,1.8444,1.8444,1.8444,1.8444,1.8444,1.8444,1.8444,1.8444,1.8444,1.839,1.8294,1.8363,1.859,1.8987,1.9093,1.9344,1.9773,1.9265,1.8762,1.8294,1.7672,1.7368,1.7368,1.6937,1.6477,1.6,1.6087,1.6048,2.0063,2.0421,2.0953,2.2046,2.2047,2.2167,2.3662,0.0,2.4218,2.4611,0.0,2.5504,2.5515,0.0,0.0,2.5248,2.5015,2.4827,2.4603,2.5311,2.61,2.6901,2.6612,2.6543,2.7119,2.7226,2.6457,2.4456,2.5389,2.552,2.428,2.3824,2.3081,2.1975,2.1524,2.0506,1.882,1.8806,1.8424,1.7699,1.7679,1.7625,1.7496,1.7412,1.7384,1.7384,1.7253,1.7199,1.7199,1.7199,1.7199,1.7199,1.7199,1.7199,1.7199,1.7199,1.7199,1.7157,1.7044,1.6981,1.6918,1.6697,1.6562,1.6417,1.594,1.5775,1.5645,1.5224,1.5375,1.5521,1.5102,1.5708,1.6516,1.7,1.7146,1.7341,1.7875,1.8483,1.8907,1.8907,1.9344,1.9552,1.8987,1.9279,1.9618,1.9618,1.9618,1.9618,1.9618,1.9618,1.9618,1.9618,1.9618,1.941,1.8934,1.9331,1.9436,1.9013,1.9448,1.9734,1.9798,1.9265,1.896,1.8907,1.8321,1.8011,1.8011,1.7929,1.7374,1.6355,1.6712,1.6588,1.9431,1.9847,2.0547,2.0709,2.0844,2.1284,2.2671,2.327,2.3584,2.3902,0.0,0.0,0.0,0.0,0.0,0.0,2.4977,2.4978,2.5168,2.4929,2.5178,2.6415,2.7388,2.7815,2.7442,2.7067,2.6168,2.4435,2.558,2.5639,2.397,2.3717,2.3135,2.2155,2.1928,2.1166,1.9809,1.9469,1.8987,1.8322,1.7902,1.772,1.7727,1.7543,1.7461,1.7461,1.737,1.7274,1.7199,1.7199,1.7199,1.7199,1.7199,1.7199,1.7199,1.7199,1.7199,1.7199,1.7136,1.7086,1.6981,1.6867,1.6951,1.7086,1.6892,1.6822,1.6788,1.6607,1.6621,1.6639,1.6432,1.6899,1.7457,1.7683,1.7984,1.8321,1.8575,1.9081,1.9474,1.9474,1.9643,1.9721,1.95,1.9643,1.9798,1.9798,1.9798,1.9798,1.9798,1.9798,1.9798,1.9798,1.9798,1.9695,1.9474,1.9669,1.9695,1.9474,1.9682,1.9949,2.0314,2.0101,2.0143,2.0424,1.9849,1.9416,1.9105,1.8735,1.817,1.7401,1.7556,1.749,1.9115,1.9494,2.0162,1.9954,2.0215,2.0793,2.1925,2.2407,2.2647,2.2706,2.2962,0.0,0.0,0.0,2.4043,2.4043,0.0,2.4598,2.5039,2.4582,2.4685,2.5912,2.7778,2.8607,2.7698,2.7748,2.6976,2.4811,2.5954,2.5766,2.3532,2.3399,2.3046,2.2231,2.2208,2.1574,2.0288,1.9881,1.9307,1.8541,1.8004,1.7801,1.7882,1.7666,1.755,1.755,1.7453,1.7329,1.7253,1.722,1.7199,1.7199,1.7199,1.7199,1.7199,1.7199,1.7199,1.7199,1.7199,1.7115,1.7028,1.714,1.7353,1.7613,1.7872,1.7895,1.7811,1.7776,1.7744,1.7686,1.7531,1.7873,1.8255,1.8417,1.8804,1.9146,1.9251,1.9578,1.9862,1.9862,1.9837,1.9798,1.9837,1.9837,1.9798,1.9798,1.9798,1.9798,1.9798,1.9798,1.9798,1.9798,1.9798,1.9798,1.9798,1.9798,1.9798,1.9798,1.9949,2.0251,2.0679,2.0842,2.1106,2.1481,2.1063,2.0568,2.0055,1.9618,1.9113,1.8551,1.8429,1.8255,1.9338,1.9343,1.9675,2.0224,2.0429,2.0774,2.1849,2.1753,2.1451,2.1456,2.111,2.0799,2.0787,2.1241,2.1605,2.1605,2.2538,0.0,0.0,2.4262,2.5231,2.5929,2.7386,2.8289,2.8195,3.0054,2.9653,2.5828,2.6849,2.6266,2.3088,2.2912,2.2686,2.2231,2.2208,2.1402,1.9741,1.9714,1.9089,1.7929,1.7902,1.7902,1.7902,1.776,1.7699,1.7679,1.7487,1.7404,1.7384,1.7253,1.7199,1.7199,1.7199,1.7199,1.7199,1.7199,1.7199,1.7199,1.7199,1.7115,1.7093,1.7678,1.7784,1.7881,1.8848,1.887,1.8554,1.8487,1.846,1.836,1.7916,1.8137,1.8632,1.9214,1.9371,1.9488,1.9875,1.999,1.999,1.999,1.9901,1.9837,1.9978,1.9901,1.9798,1.9798,1.9798,1.9798,1.9798,1.9798,1.9798,1.9798,1.9798,1.9798,1.9798,1.9798,1.9798,1.9798,2.0352,2.0679,2.0691,2.1207,2.1468,2.1493,2.1481,2.1217,2.0665,2.0638,2.0337,1.9721,1.9212,1.8655,1.8618,1.8448,1.8555,1.8751,1.8839,1.9135,2.0263,2.0393,2.0411,2.0832,2.0826,2.0705,2.0705,2.0836,2.1214,2.1974,2.2429,2.2927,0.0,2.4155,2.4638,2.526,2.6242,2.7073,2.7637,2.765,2.7053,2.5696,2.5742,2.5024,2.3131,2.3386,2.2989,2.1701,2.2072,2.1797,2.0816,2.008,1.9497,1.9076,1.8282,1.7902,1.7902,1.7842,1.7781,1.7679,1.7522,1.744,1.7384,1.7253,1.7199,1.7199,1.7199,1.7199,1.7199,1.7199,1.7199,1.7199,1.7199,1.7178,1.724,1.7848,1.7943,1.8038,1.9114,1.9309,1.9209,1.9535,1.9623,1.9598,1.9446,1.9506,1.9669,1.9888,1.9939,1.9965,2.0105,2.0131,2.0131,2.0131,2.0105,2.0067,2.0131,2.0105,2.0016,1.9952,2.0003,2.0016,1.9952,2.0003,2.0029,1.9952,2.0016,2.0067,2.0067,2.0437,2.0832,2.1227,2.1444,2.1712,2.2082,2.2257,2.2537,2.2865,2.2803,2.2495,2.1967,2.1476,2.0955,2.039,1.9804,1.941,1.8217,1.801,1.801,1.801,1.801,1.8236,1.9152,1.9218,1.921,1.9657,1.9619,1.9491,1.9491,1.9774,2.0327,2.1192,2.1886,2.2731,0.0,2.4054,2.4227,2.4562,2.5517,2.6352,2.6905,2.6989,2.645,2.514,2.5397,2.479,2.2922,2.3361,2.3059,2.1762,2.2101,2.1925,2.1087,2.0152,1.9591,1.9383,1.8378,1.7902,1.7902,1.7902,1.7842,1.776,1.757,1.7468,1.7432,1.7274,1.7199,1.7199,1.7199,1.7199,1.7199,1.7199,1.7199,1.7199,1.7199,1.7199,1.7329,1.8127,1.82,1.8211,1.9503,1.9751,1.9599,1.9885,2.0192,2.0321,2.0114,2.0218,2.0398,2.0398,2.0398,2.0359,2.0322,2.0322,2.0322,2.0322,2.0233,2.0233,2.0296,2.0322,2.0233,2.008,2.0131,2.0182,2.0093,2.0156,2.0182,2.0093,2.0156,2.0284,2.0515,2.0887,2.1375,2.1966,2.2185,2.2439,2.2798,2.2975,2.3257,2.3586,2.3509,2.3212,2.2681,2.1982,2.1357,2.0827,2.0231,1.9914]}]]